[[{"header":{"parameterUnit":"m.s-1","parameterCategory":1,"la1":30.6,"la2":28.766,"lo1":-90.7593,"lo2":-88.6598,"dy":0.0162,"dx":0.0183,"nx":116,"ny":114,"refTime":"2023-08-07T06:00:00:Z","depth":0,"parameterNumber":2,"parameterNumberName":"U-component_of_WINDS"},"data":[0.0,0.0,0.0,0.0,0.0,0.0,0.0,0.0,0.0,0.0,0.0,0.0,0.0,0.0,0.0,0.0,0.0,0.0,0.0,0.0,0.0,0.0,0.0,0.0,0.0,0.0,0.0,0.0,0.0,0.0,0.0,0.0,0.0,0.0,0.0,0.0,0.0,0.0,0.0,0.0,0.0,0.0,0.0,0.0,0.0,0.0,0.0,0.0,0.0,0.0,0.0,0.0,0.0,0.0,0.0,0.0,0.0,0.0,0.0,0.0,0.0,0.0,0.0,0.0,0.0,0.0,0.0,0.0,0.0,0.0,0.0,0.0,0.0,0.0,0.0,0.0,0.0,0.0,0.0,0.0,0.0,0.0,0.0,0.0,0.0,0.0,0.0,0.0,0.0,0.0,0.0,0.0,0.0,0.0,0.0,0.0,0.0,0.0,0.0,0.0,0.0,0.0,0.0,0.0,0.0,0.0,0.0,0.0,0.0,0.0,0.0,0.0,0.0,0.0,0.0,0.0,0.0,0.0,0.0,0.0,0.0,0.0,0.0,0.0,0.0,0.0,0.0,0.0,0.0,0.0,0.0,0.0,0.0,0.0,0.0,0.0,0.0,0.0,0.0,0.0,0.0,0.0,0.0,0.0,0.0,0.0,0.0,0.0,0.0,0.0,0.0,0.0,0.0,0.0,0.0,0.0,0.0,0.0,0.0,0.0,0.0,0.0,0.0,0.0,0.0,0.0,0.0,0.0,0.0,0.0,0.0,0.0,0.0,0.0,0.0,0.0,0.0,0.0,0.0,0.0,0.0,0.0,0.0,0.0,0.0,0.0,0.0,0.0,0.0,0.0,0.0,0.0,0.0,0.0,0.0,0.0,0.0,0.0,0.0,0.0,0.0,0.0,0.0,0.0,0.0,0.0,0.0,0.0,0.0,0.0,0.0,0.0,0.0,0.0,0.0,0.0,0.0,0.0,0.0,0.0,0.0,0.0,0.0,0.0,0.0,0.0,0.0,0.0,0.0,0.0,0.0,0.0,0.0,0.0,0.0,0.0,0.0,0.0,0.0,0.0,0.0,0.0,0.0,0.0,0.0,0.0,0.0,0.0,0.0,0.0,0.0,0.0,0.0,0.0,0.0,0.0,0.0,0.0,0.0,0.0,0.0,0.0,0.0,0.0,0.0,0.0,0.0,0.0,0.0,0.0,0.0,0.0,0.0,0.0,0.0,0.0,0.0,0.0,0.0,0.0,0.0,0.0,0.0,0.0,0.0,0.0,0.0,0.0,0.0,0.0,0.0,0.0,0.0,0.0,0.0,0.0,0.0,0.0,0.0,0.0,0.0,0.0,0.0,0.0,0.0,0.0,0.0,0.0,0.0,0.0,0.0,0.0,0.0,0.0,0.0,0.0,0.0,0.0,0.0,0.0,0.0,0.0,0.0,0.0,0.0,0.0,0.0,0.0,0.0,0.0,0.0,0.0,0.0,0.0,0.0,0.0,0.0,0.0,0.0,0.0,0.0,0.0,0.0,0.0,0.0,0.0,0.0,0.0,0.0,0.0,0.0,0.0,0.0,0.0,0.0,0.0,0.0,0.0,0.0,0.0,0.0,0.0,0.0,0.0,0.0,0.0,0.0,0.0,0.0,0.0,0.0,0.0,0.0,0.0,0.0,0.0,0.0,0.0,0.0,0.0,0.0,0.0,0.0,0.0,0.0,0.0,0.0,0.0,0.0,0.0,0.0,0.0,0.0,0.0,0.0,0.0,0.0,0.0,0.0,0.0,0.0,0.0,0.0,0.0,0.0,0.0,0.0,0.0,0.0,0.0,0.0,0.0,0.0,0.0,0.0,0.0,0.0,0.0,0.0,0.0,0.0,0.0,0.0,0.0,0.0,0.0,0.0,0.0,0.0,0.0,0.0,0.0,0.0,0.0,0.0,0.0,0.0,0.0,0.0,0.0,0.0,0.0,0.0,0.0,0.0,0.0,0.0,0.0,0.0,0.0,0.0,0.0,0.0,0.0,0.0,0.0,0.0,0.0,0.0,0.0,0.0,0.0,0.0,0.0,0.0,0.0,0.0,0.0,0.0,0.0,0.0,0.0,0.0,0.0,0.0,0.0,0.0,0.0,0.0,0.0,0.0,0.0,0.0,0.0,0.0,0.0,0.0,0.0,0.0,0.0,0.0,0.0,0.0,0.0,0.0,0.0,0.0,0.0,0.0,0.0,0.0,0.0,0.0,0.0,0.0,0.0,0.0,0.0,0.0,0.0,0.0,0.0,0.0,0.0,0.0,0.0,0.0,0.0,0.0,0.0,0.0,0.0,0.0,0.0,0.0,0.0,0.0,0.0,0.0,0.0,0.0,0.0,0.0,0.0,0.0,0.0,0.0,0.0,0.0,0.0,0.0,0.0,0.0,0.0,0.0,0.0,0.0,0.0,0.0,0.0,0.0,0.0,0.0,0.0,0.0,0.0,0.0,0.0,0.0,0.0,0.0,0.0,0.0,0.0,0.0,0.0,0.0,0.0,0.0,0.0,0.0,0.0,0.0,0.0,0.0,0.0,0.0,0.0,0.0,0.0,0.0,0.0,0.0,0.0,0.0,0.0,0.0,0.0,0.0,0.0,0.0,0.0,0.0,0.0,0.0,0.0,0.0,0.0,0.0,0.0,0.0,0.0,0.0,0.0,0.0,0.0,0.0,0.0,0.0,0.0,0.0,0.0,0.0,0.0,0.0,0.0,0.0,0.0,0.0,0.0,0.0,0.0,0.0,0.0,0.0,0.0,0.0,0.0,0.0,0.0,0.0,0.0,0.0,0.0,0.0,0.0,0.0,0.0,0.0,0.0,0.0,0.0,0.0,0.0,0.0,0.0,0.0,0.0,0.0,0.0,0.0,0.0,0.0,0.0,0.0,0.0,0.0,0.0,0.0,0.0,0.0,0.0,0.0,0.0,0.0,0.0,0.0,0.0,0.0,0.0,0.0,0.0,0.0,0.0,0.0,0.0,0.0,0.0,0.0,0.0,0.0,0.0,0.0,0.0,0.0,0.0,0.0,0.0,0.0,0.0,0.0,0.0,0.0,0.0,0.0,0.0,0.0,0.0,0.0,0.0,0.0,0.0,0.0,0.0,0.0,0.0,0.0,0.0,0.0,0.0,0.0,0.0,0.0,0.0,0.0,0.0,0.0,0.0,0.0,0.0,0.0,0.0,0.0,0.0,0.0,0.0,0.0,0.0,0.0,0.0,0.0,0.0,0.0,0.0,0.0,0.0,0.0,0.0,0.0,0.0,0.0,0.0,0.0,0.0,0.0,0.0,0.0,0.0,0.0,0.0,0.0,0.0,0.0,0.0,0.0,0.0,0.0,0.0,0.0,0.0,0.0,0.0,0.0,0.0,0.0,0.0,0.0,0.0,0.0,0.0,0.0,0.0,0.0,0.0,0.0,0.0,0.0,0.0,0.0,0.0,0.0,0.0,0.0,0.0,0.0,0.0,0.0,0.0,0.0,0.0,0.0,0.0,0.0,0.0,0.0,0.0,0.0,0.0,0.0,0.0,0.0,0.0,0.0,0.0,0.0,0.0,0.0,0.0,0.0,0.0,0.0,0.0,0.0,0.0,0.0,0.0,0.0,0.0,0.0,0.0,0.0,0.0,0.0,0.0,0.0,0.0,0.0,0.0,0.0,0.0,0.0,0.0,0.0,0.0,0.0,0.0,0.0,0.0,0.0,0.0,0.0,0.0,0.0,0.0,0.0,0.0,0.0,0.0,0.0,0.0,0.0,0.0,0.0,0.0,0.0,0.0,0.0,0.0,0.0,0.0,0.0,0.0,0.0,0.0,0.0,0.0,0.0,0.0,0.0,0.0,0.0,0.0,0.0,0.0,0.0,0.0,0.0,0.0,0.0,0.0,0.0,0.0,0.0,0.0,0.0,0.0,0.0,0.0,0.0,0.0,0.0,0.0,0.0,0.0,0.0,0.0,0.0,0.0,0.0,0.0,0.0,0.0,0.0,0.0,0.0,0.0,0.0,0.0,0.0,0.0,0.0,0.0,0.0,0.0,0.0,0.0,0.0,0.0,0.0,0.0,0.0,0.0,0.0,0.0,0.0,0.0,0.0,0.0,0.0,0.0,0.0,0.0,0.0,0.0,0.0,0.0,0.0,0.0,0.0,0.0,0.0,0.0,0.0,0.0,0.0,0.0,0.0,0.0,0.0,0.0,0.0,0.0,0.0,0.0,0.0,0.0,0.0,0.0,0.0,0.0,0.0,0.0,0.0,0.0,0.0,0.0,0.0,0.0,0.0,0.0,0.0,0.0,0.0,0.0,0.0,0.0,0.0,0.0,0.0,0.0,0.0,0.0,0.0,0.0,0.0,0.0,0.0,0.0,0.0,0.0,0.0,0.0,0.0,0.0,0.0,0.0,0.0,0.0,0.0,0.0,0.0,0.0,0.0,0.0,0.0,0.0,0.0,0.0,0.0,0.0,0.0,0.0,0.0,0.0,0.0,0.0,0.0,0.0,0.0,0.0,0.0,0.0,0.0,0.0,0.0,0.0,0.0,0.0,0.0,0.0,0.0,0.0,0.0,0.0,0.0,0.0,0.0,0.0,0.0,0.0,0.0,0.0,0.0,0.0,0.0,0.0,0.0,0.0,0.0,0.0,0.0,0.0,0.0,0.0,0.0,0.0,0.0,0.0,0.0,0.0,0.0,0.0,0.0,0.0,0.0,0.0,0.0,0.0,0.0,0.0,0.0,0.0,0.0,0.0,0.0,0.0,0.0,0.0,0.0,0.0,0.0,0.0,0.0,0.0,0.0,0.0,0.0,0.0,0.0,0.0,0.0,0.0,0.0,0.0,0.0,0.0,0.0,0.0,0.0,0.0,0.0,0.0,0.0,0.0,0.0,0.0,0.0,0.0,0.0,0.0,0.0,0.0,0.0,0.0,0.0,0.0,0.0,0.0,0.0,0.0,0.0,0.0,0.0,0.0,0.0,0.0,0.0,0.0,0.0,0.0,0.0,0.0,0.0,0.0,0.0,0.0,0.0,0.0,0.0,0.0,0.0,0.0,0.0,0.0,0.0,0.0,0.0,0.0,0.0,0.0,0.0,0.0,0.0,0.0,0.0,0.0,0.0,0.0,0.0,0.0,0.0,0.0,0.0,0.0,0.0,0.0,0.0,0.0,0.0,0.0,0.0,0.0,0.0,0.0,0.0,0.0,0.0,0.0,0.0,0.0,0.0,0.0,0.0,0.0,0.0,0.0,0.0,0.0,0.0,0.0,0.0,0.0,0.0,0.0,0.0,0.0,0.0,0.0,0.0,0.0,0.0,0.0,0.0,0.0,0.0,0.0,0.0,0.0,0.0,0.0,0.0,0.0,0.0,0.0,0.0,0.0,0.0,0.0,0.0,0.0,0.0,0.0,0.0,0.0,0.0,0.0,0.0,0.0,0.0,0.0,0.0,0.0,0.0,0.0,0.0,0.0,0.0,0.0,0.0,0.0,0.0,0.0,0.0,0.0,0.0,0.0,0.0,0.0,0.0,0.0,0.0,0.0,0.0,0.0,0.0,0.0,0.0,0.0,0.0,0.0,0.0,0.0,0.0,0.0,0.0,0.0,0.0,0.0,0.0,0.0,0.0,0.0,0.0,0.0,0.0,0.0,0.0,0.0,0.0,0.0,0.0,0.0,0.0,0.0,0.0,0.0,0.0,0.0,0.0,0.0,0.0,0.0,0.0,0.0,0.0,0.0,0.0,0.0,0.0,0.0,0.0,0.0,0.0,0.0,0.0,0.0,0.0,0.0,0.0,0.0,0.0,0.0,0.0,0.0,0.0,0.0,0.0,0.0,0.0,0.0,0.0,0.0,0.0,0.0,0.0,0.0,0.0,0.0,0.0,0.0,0.0,0.0,0.0,0.0,0.0,0.0,0.0,0.0,0.0,0.0,0.0,0.0,0.0,0.0,0.0,0.0,0.0,0.0,0.0,0.0,0.0,0.0,0.0,0.0,0.0,0.0,0.0,0.0,0.0,0.0,0.0,0.0,0.0,0.0,0.0,0.0,0.0,0.0,0.0,0.0,0.0,0.0,0.0,0.0,0.0,0.0,0.0,0.0,0.0,0.0,-4.3979,0.0,0.0,0.0,0.0,0.0,0.0,0.0,0.0,0.0,0.0,0.0,0.0,0.0,0.0,0.0,0.0,0.0,0.0,0.0,0.0,0.0,0.0,0.0,0.0,0.0,0.0,0.0,0.0,0.0,0.0,0.0,0.0,0.0,0.0,0.0,0.0,0.0,0.0,0.0,0.0,0.0,0.0,0.0,0.0,0.0,0.0,0.0,0.0,0.0,0.0,0.0,0.0,0.0,0.0,0.0,0.0,0.0,0.0,0.0,0.0,0.0,0.0,0.0,0.0,0.0,0.0,0.0,0.0,0.0,0.0,0.0,0.0,0.0,0.0,0.0,0.0,0.0,0.0,0.0,0.0,0.0,0.0,0.0,0.0,0.0,0.0,0.0,0.0,0.0,0.0,0.0,0.0,0.0,0.0,0.0,0.0,0.0,0.0,0.0,0.0,0.0,0.0,0.0,0.0,0.0,0.0,0.0,0.0,0.0,0.0,0.0,0.0,0.0,0.0,0.0,0.0,-4.5544,0.0,0.0,0.0,0.0,0.0,0.0,0.0,0.0,0.0,0.0,0.0,0.0,0.0,0.0,0.0,0.0,0.0,0.0,0.0,0.0,0.0,0.0,0.0,0.0,0.0,0.0,0.0,0.0,0.0,0.0,0.0,0.0,0.0,0.0,0.0,0.0,0.0,0.0,0.0,0.0,0.0,0.0,0.0,0.0,0.0,0.0,0.0,0.0,0.0,0.0,0.0,0.0,0.0,0.0,0.0,0.0,0.0,0.0,0.0,0.0,0.0,0.0,0.0,0.0,0.0,0.0,0.0,0.0,0.0,0.0,0.0,0.0,0.0,0.0,0.0,0.0,0.0,0.0,0.0,0.0,0.0,0.0,0.0,0.0,0.0,0.0,0.0,0.0,0.0,0.0,0.0,0.0,0.0,0.0,0.0,0.0,0.0,0.0,0.0,0.0,0.0,0.0,0.0,0.0,0.0,0.0,0.0,0.0,-5.7749,-5.8388,-5.8507,-5.8132,-5.7474,-5.6475,-5.2612,-4.9457,-4.709,-4.7266,0.0,0.0,0.0,0.0,0.0,0.0,0.0,0.0,0.0,0.0,0.0,0.0,0.0,0.0,0.0,0.0,0.0,0.0,0.0,0.0,0.0,0.0,0.0,0.0,0.0,0.0,0.0,0.0,0.0,0.0,0.0,0.0,0.0,0.0,0.0,0.0,0.0,0.0,-4.9382,-5.027,-5.0381,-4.967,0.0,0.0,0.0,0.0,0.0,0.0,0.0,0.0,0.0,0.0,0.0,0.0,0.0,0.0,0.0,0.0,0.0,0.0,0.0,0.0,0.0,0.0,0.0,0.0,0.0,0.0,0.0,0.0,0.0,0.0,0.0,0.0,0.0,0.0,0.0,0.0,0.0,0.0,0.0,0.0,0.0,0.0,0.0,0.0,-4.3118,-4.5275,0.0,0.0,0.0,0.0,0.0,0.0,0.0,0.0,0.0,0.0,0.0,0.0,0.0,-5.66,-5.8587,-6.0911,-6.2105,-6.2169,-6.5033,-6.5037,-6.2624,-6.2631,-6.1873,-6.0497,-5.9206,0.0,-5.0711,-4.8783,0.0,0.0,0.0,0.0,0.0,0.0,0.0,0.0,0.0,0.0,0.0,0.0,0.0,0.0,0.0,0.0,0.0,0.0,0.0,0.0,0.0,0.0,0.0,0.0,0.0,0.0,0.0,0.0,0.0,0.0,0.0,0.0,0.0,0.0,0.0,0.0,0.0,0.0,0.0,-5.365,-5.4278,-5.4534,-5.2126,-5.0465,-4.9237,-4.6484,0.0,0.0,0.0,0.0,0.0,0.0,0.0,0.0,0.0,0.0,0.0,0.0,0.0,0.0,0.0,0.0,0.0,0.0,0.0,0.0,0.0,0.0,0.0,0.0,0.0,0.0,0.0,0.0,0.0,0.0,0.0,0.0,0.0,0.0,0.0,0.0,0.0,0.0,0.0,-4.4833,-4.6618,-4.6116,-4.7592,-4.7939,0.0,0.0,0.0,0.0,0.0,0.0,0.0,0.0,0.0,-5.9258,-6.1693,-6.3675,-6.5109,-6.6509,-6.7661,-6.8561,-6.946,-6.9683,-6.9277,-6.8397,-6.7442,-6.6309,-6.4601,-6.1748,-5.8029,-5.4432,-5.1414,-4.8727,0.0,0.0,0.0,0.0,-4.4282,-4.4384,0.0,0.0,0.0,0.0,0.0,0.0,0.0,0.0,0.0,0.0,0.0,0.0,0.0,0.0,0.0,0.0,0.0,0.0,0.0,0.0,0.0,0.0,0.0,0.0,0.0,0.0,0.0,0.0,0.0,0.0,0.0,0.0,0.0,-5.8661,-5.8249,-5.596,-5.2296,-5.0322,-4.7458,0.0,0.0,0.0,0.0,0.0,0.0,0.0,0.0,0.0,0.0,0.0,0.0,0.0,0.0,0.0,0.0,0.0,0.0,0.0,0.0,0.0,0.0,0.0,0.0,0.0,0.0,0.0,0.0,0.0,0.0,0.0,0.0,0.0,0.0,0.0,0.0,0.0,0.0,-4.8102,-4.9677,-4.7426,-5.0765,-5.1646,0.0,0.0,0.0,0.0,0.0,0.0,-5.8553,-6.1184,-6.3621,-6.5812,-6.8486,-7.0386,-7.1402,-7.1675,-7.2538,-7.3921,-7.3077,-7.3219,-7.4145,-7.2508,-7.1377,-7.0567,-6.8145,-6.6068,-6.3971,-5.9099,-5.531,-5.2401,-4.9999,-4.8376,-4.7428,-4.78,-4.7597,-4.7394,0.0,0.0,0.0,0.0,0.0,0.0,0.0,0.0,0.0,0.0,0.0,0.0,0.0,0.0,0.0,0.0,0.0,0.0,0.0,0.0,0.0,0.0,0.0,0.0,0.0,0.0,0.0,0.0,0.0,0.0,0.0,0.0,0.0,0.0,0.0,-6.2211,-5.9889,-5.332,-5.0846,-5.0894,0.0,0.0,0.0,0.0,0.0,0.0,0.0,0.0,0.0,0.0,0.0,0.0,0.0,0.0,0.0,0.0,0.0,0.0,0.0,0.0,0.0,0.0,0.0,0.0,0.0,0.0,0.0,0.0,0.0,0.0,0.0,0.0,0.0,0.0,0.0,0.0,0.0,0.0,0.0,-5.0655,-5.6088,0.0,0.0,0.0,0.0,-5.6154,-5.9625,-6.2784,-6.5109,-6.8232,-7.0676,-7.2183,-7.3885,-7.5515,-7.7072,-7.6339,-7.641,-7.7253,-7.6446,-7.5693,-7.4977,-7.3396,-7.2184,-7.1297,-6.8898,-6.7387,-6.6203,-6.0283,-5.7306,-5.6224,-5.3247,-5.2029,-5.1894,-5.1217,-5.0948,-5.0744,0.0,0.0,0.0,0.0,0.0,0.0,0.0,0.0,0.0,0.0,0.0,0.0,0.0,0.0,0.0,0.0,0.0,0.0,0.0,0.0,0.0,0.0,0.0,0.0,0.0,0.0,0.0,0.0,0.0,0.0,0.0,0.0,0.0,0.0,0.0,0.0,0.0,0.0,-5.4248,-5.0749,-4.7381,-4.3876,0.0,0.0,0.0,0.0,0.0,0.0,0.0,0.0,0.0,0.0,0.0,0.0,0.0,0.0,0.0,0.0,0.0,0.0,0.0,0.0,0.0,0.0,0.0,0.0,0.0,0.0,0.0,0.0,0.0,0.0,0.0,0.0,0.0,0.0,0.0,0.0,0.0,-5.7666,-6.2108,0.0,-5.8809,-6.0041,-6.1704,-6.3102,-6.5392,-6.8209,-7.1562,-7.3841,-7.5946,-7.805,-7.9173,-8.0259,-8.1346,-7.9497,-7.8743,-7.9028,-7.7199,-7.6159,-7.5843,-7.4177,-7.2992,-7.2177,-7.0233,-6.8673,-6.7286,-6.4174,-6.1637,-5.9505,-5.7442,-5.575,-5.4465,-5.416,-5.3518,-5.2672,0.0,0.0,0.0,0.0,0.0,0.0,0.0,0.0,0.0,0.0,0.0,0.0,0.0,0.0,0.0,0.0,0.0,0.0,0.0,0.0,0.0,0.0,0.0,0.0,0.0,0.0,0.0,0.0,0.0,0.0,0.0,0.0,0.0,0.0,0.0,0.0,0.0,0.0,0.0,0.0,-4.9762,-4.6969,-4.4095,0.0,0.0,0.0,0.0,0.0,0.0,0.0,0.0,0.0,0.0,0.0,0.0,0.0,0.0,0.0,0.0,0.0,0.0,0.0,0.0,0.0,0.0,0.0,0.0,0.0,0.0,0.0,0.0,0.0,0.0,0.0,0.0,0.0,0.0,0.0,-6.1447,-6.1961,-6.6549,-6.81,-6.3899,-6.5532,-6.7445,-6.8902,-7.1117,-7.3776,-7.6963,-7.8919,-8.0549,-8.1889,-8.2686,-8.3084,-8.3084,-8.1448,-8.0259,-7.9499,-7.7883,-7.6697,-7.5829,-7.4416,-7.3361,-7.2514,-7.0926,-6.9485,-6.8199,-6.6948,-6.485,-6.2245,-6.0757,-5.893,-5.7205,-5.7205,-5.6258,-5.4972,0.0,0.0,0.0,0.0,0.0,0.0,0.0,0.0,0.0,0.0,0.0,0.0,0.0,0.0,0.0,0.0,0.0,0.0,0.0,0.0,0.0,0.0,0.0,0.0,0.0,0.0,0.0,0.0,0.0,0.0,0.0,0.0,0.0,0.0,0.0,0.0,0.0,0.0,0.0,0.0,0.0,0.0,-4.9786,0.0,0.0,0.0,0.0,0.0,0.0,0.0,0.0,0.0,0.0,0.0,0.0,0.0,0.0,0.0,0.0,0.0,0.0,0.0,0.0,0.0,0.0,0.0,0.0,0.0,0.0,0.0,0.0,0.0,0.0,0.0,0.0,0.0,-5.4803,-6.0933,-6.4897,-6.3356,-6.9486,-7.1651,-6.6192,-7.0302,-7.3337,-7.3379,-7.6696,-7.9462,-8.1092,-8.341,-8.4352,-8.3591,-8.4316,-8.3953,-8.236,-8.236,-8.1092,-7.8738,-7.8702,-7.745,-7.5118,-7.4226,-7.3362,-7.2422,-7.0905,-6.9799,-6.9045,-6.8199,-6.6576,-6.4478,-6.3024,-6.1501,-6.0114,-6.0114,-5.9133,-5.7645,0.0,0.0,0.0,0.0,0.0,0.0,0.0,0.0,0.0,0.0,0.0,0.0,0.0,0.0,0.0,0.0,0.0,0.0,0.0,0.0,0.0,0.0,0.0,0.0,0.0,0.0,0.0,0.0,0.0,0.0,0.0,0.0,0.0,0.0,0.0,0.0,0.0,0.0,0.0,0.0,0.0,0.0,-5.0894,0.0,0.0,0.0,0.0,0.0,0.0,0.0,0.0,0.0,0.0,0.0,0.0,0.0,0.0,0.0,0.0,0.0,0.0,0.0,0.0,0.0,0.0,0.0,0.0,0.0,0.0,0.0,0.0,0.0,0.0,0.0,0.0,-6.097,-6.1374,-6.5668,-6.9486,-7.1358,-7.4404,-7.5666,-7.4006,-7.503,-7.6263,-7.7298,-7.8767,-8.0549,-8.2722,-8.4026,-8.4859,-8.5221,-8.4895,-8.4497,-8.4026,-8.2867,-8.1382,-7.9571,-7.8992,-7.7729,-7.5933,-7.5118,-7.4299,-7.3367,-7.1746,-7.0337,-6.9011,-6.7658,-6.6136,-6.4546,-6.414,-6.2381,-6.0114,-6.0114,-5.8829,-5.69,0.0,0.0,0.0,0.0,0.0,0.0,0.0,0.0,0.0,0.0,0.0,0.0,0.0,0.0,0.0,0.0,0.0,0.0,0.0,0.0,0.0,0.0,0.0,0.0,0.0,0.0,0.0,0.0,0.0,0.0,0.0,0.0,0.0,0.0,0.0,0.0,0.0,0.0,0.0,0.0,0.0,0.0,-5.4868,-5.0882,-4.9263,-4.8876,-4.7461,-4.7881,-4.8876,-4.7422,0.0,0.0,0.0,0.0,0.0,0.0,0.0,0.0,0.0,0.0,0.0,0.0,0.0,0.0,0.0,0.0,0.0,0.0,0.0,0.0,0.0,0.0,0.0,0.0,-6.234,-6.7026,-6.8862,-7.0844,-7.2936,-7.5139,-7.6533,-7.7279,-7.7186,-7.7322,-7.7892,-7.8968,-8.003,-8.1306,-8.294,-8.381,-8.4462,-8.4859,-8.4424,-8.3881,-8.3193,-8.2251,-8.0802,-7.8883,-7.8412,-7.7335,-7.5795,-7.5299,-7.4452,0.0,-7.1953,-7.0515,-6.8977,-6.7455,-6.5933,0.0,0.0,0.0,0.0,0.0,-5.7983,-5.6224,0.0,0.0,0.0,0.0,0.0,0.0,0.0,0.0,0.0,0.0,0.0,0.0,0.0,0.0,0.0,0.0,0.0,0.0,0.0,0.0,0.0,0.0,0.0,0.0,0.0,0.0,0.0,0.0,0.0,0.0,0.0,0.0,0.0,0.0,0.0,0.0,0.0,0.0,0.0,0.0,0.0,0.0,-5.9644,-5.4218,-5.3034,-5.3836,-5.0779,-4.9912,-5.0218,-5.0027,0.0,0.0,0.0,0.0,0.0,0.0,0.0,0.0,0.0,0.0,0.0,0.0,0.0,0.0,0.0,0.0,0.0,0.0,0.0,0.0,0.0,0.0,0.0,0.0,-6.8128,-7.2826,-7.5946,-7.5836,-7.5726,-7.6423,-7.7157,-7.7567,-7.7567,-7.8071,-7.8679,-7.9284,-8.0706,-8.1736,-8.2287,0.0,0.0,0.0,0.0,-8.2396,-8.0984,-8.0875,-7.9716,-7.7507,-7.7507,-7.6692,-7.5227,-7.5227,-7.4264,-7.2589,-7.1767,-7.0572,-6.8977,-6.7354,-6.5764,-6.4208,-6.2719,-6.1298,-5.9911,-5.8423,-5.7036,-5.5818,0.0,0.0,0.0,0.0,0.0,0.0,0.0,0.0,0.0,0.0,0.0,0.0,0.0,0.0,0.0,0.0,0.0,0.0,0.0,0.0,0.0,0.0,0.0,0.0,0.0,0.0,0.0,0.0,0.0,0.0,0.0,0.0,0.0,0.0,0.0,0.0,0.0,0.0,0.0,0.0,0.0,0.0,-5.9071,-5.6587,-5.5441,-5.4982,-5.3607,-5.4868,-5.6969,-5.5594,-5.5403,-5.5326,-5.311,0.0,0.0,0.0,0.0,0.0,0.0,0.0,0.0,0.0,0.0,0.0,0.0,0.0,0.0,0.0,0.0,0.0,0.0,0.0,0.0,-6.6916,-7.1394,-7.5139,-7.7745,-7.8552,-7.8883,-7.9066,-7.9213,-7.9323,-7.9323,-7.9146,-7.9351,-8.012,-8.083,-8.1526,-8.2287,-8.2469,-8.2541,-8.2541,-8.1273,-8.044,-8.0151,-7.9499,-7.8593,-7.7507,0.0,0.0,-7.6072,-7.6072,-7.5155,-7.3492,-7.2131,-7.0632,-6.8944,-6.6779,-6.4681,-6.2651,-6.1129,-6.0351,-5.9911,-5.8423,-5.734,-5.6494,0.0,0.0,0.0,0.0,0.0,0.0,0.0,0.0,0.0,0.0,0.0,0.0,0.0,0.0,0.0,0.0,0.0,0.0,0.0,0.0,0.0,0.0,0.0,0.0,0.0,0.0,0.0,0.0,0.0,0.0,0.0,0.0,0.0,0.0,0.0,0.0,0.0,0.0,0.0,0.0,0.0,0.0,-5.9568,-5.7886,-5.7008,-5.6549,-5.567,-5.6969,-5.8981,-5.8116,-5.8154,-5.8268,-5.7008,-5.46,-5.1697,0.0,0.0,0.0,0.0,0.0,0.0,0.0,0.0,0.0,0.0,0.0,0.0,0.0,0.0,-5.539,0.0,0.0,-6.732,-7.1798,-7.5249,-7.7928,-7.958,-8.0498,-8.0534,-7.9323,-7.9543,-7.98,-7.98,-7.997,-8.0173,-8.0375,-8.1075,-8.1375,-8.1128,-8.1199,-8.1018,-8.0513,-7.9716,-7.91,-7.8702,-7.8303,-7.7688,-7.6891,-7.6891,-7.6503,-7.569,-7.569,-7.4789,-7.309,-7.1599,-7.025,-6.8876,-6.6237,-6.4038,-6.2279,-6.1163,-6.0216,-5.9438,-5.8287,-5.7205,-5.6224,0.0,0.0,0.0,0.0,0.0,0.0,0.0,0.0,0.0,0.0,0.0,0.0,0.0,0.0,0.0,0.0,0.0,0.0,0.0,0.0,0.0,0.0,0.0,0.0,0.0,0.0,0.0,0.0,0.0,0.0,0.0,0.0,0.0,0.0,0.0,0.0,0.0,0.0,0.0,0.0,0.0,0.0,-5.9988,-5.8459,-5.8001,-5.8001,-5.6969,-5.7275,-5.8192,-5.8689,-5.888,-5.8956,-5.9453,-5.8459,-5.6358,-5.2614,-5.12,0.0,0.0,0.0,0.0,0.0,0.0,0.0,0.0,0.0,-5.2197,-5.4987,-5.785,-6.1227,-6.5668,-6.8972,-7.2312,-7.6203,-7.8626,-8.0241,-8.0901,-8.1562,-8.1195,-7.9066,-7.9543,-7.9947,-7.98,-8.0356,-8.0561,-8.0193,-8.1023,-8.0998,-7.9751,-7.9819,-7.9457,-7.8484,-7.8303,-7.7905,-7.7253,-7.7253,-7.6927,-7.6275,-7.6275,-7.5969,-7.5299,-7.5012,-7.4014,-7.2396,-7.0485,-6.9149,-6.8233,-6.5527,-6.37,-6.2516,-6.1637,-6.0452,-5.9133,-5.8389,-5.7103,-5.5681,0.0,0.0,0.0,0.0,0.0,0.0,0.0,0.0,0.0,0.0,0.0,0.0,0.0,0.0,0.0,0.0,0.0,0.0,0.0,0.0,0.0,0.0,0.0,0.0,0.0,0.0,0.0,0.0,0.0,0.0,0.0,0.0,0.0,0.0,0.0,0.0,0.0,0.0,0.0,0.0,0.0,0.0,-5.9147,-5.823,-5.8345,-5.8765,-5.716,-5.5747,-5.5021,-5.7275,-5.8039,-5.8421,-6.0637,-6.0179,-5.8459,-5.6473,0.0,-4.8437,-4.9366,-4.9489,-4.9994,-5.2701,-5.201,-5.2674,0.0,0.0,-5.9221,-6.3135,-6.5375,-6.743,-7.0146,-7.2679,-7.5469,-7.8846,-8.0204,-8.0901,-8.1012,-8.1085,-8.0755,-7.9764,-8.0388,-8.0571,-7.9874,-7.9709,-7.9584,-7.9354,-7.9985,-7.9923,-7.8883,-7.8881,-7.8519,-7.7651,-7.6927,-7.6529,-7.642,-7.642,-7.6384,-7.6275,-7.6275,-7.6242,-7.6104,-7.4689,-7.3538,-7.2481,-6.8809,-6.6761,-6.5933,-6.4309,-6.3531,-6.326,-6.1839,-6.0757,-5.9877,-5.9167,-5.7543,-5.5681,0.0,0.0,0.0,0.0,0.0,0.0,0.0,0.0,0.0,0.0,0.0,0.0,0.0,0.0,0.0,0.0,0.0,0.0,0.0,0.0,0.0,0.0,0.0,0.0,0.0,0.0,0.0,0.0,0.0,0.0,0.0,0.0,0.0,0.0,0.0,0.0,0.0,0.0,0.0,0.0,0.0,0.0,-6.0408,-5.9109,-5.7925,-5.674,-5.4982,-5.4256,0.0,0.0,-5.632,-5.7504,-5.9529,-5.8994,-5.7313,-5.5632,-5.3416,0.0,-5.2639,-5.321,0.0,0.0,-5.7608,-6.0089,-6.3356,-6.4127,-6.5044,-6.8164,-7.0073,-7.1908,-7.4338,-7.6056,-7.7818,0.0,-8.0388,-8.0461,-8.0938,-8.0204,-7.8956,-7.7157,-7.7671,-7.8589,-7.969,-7.97,-7.954,-7.9241,-7.947,-7.9156,-7.805,-7.8014,-7.7615,-7.6818,-7.6456,-7.6275,-7.6275,-7.6275,-7.6275,-7.6275,-7.6275,-7.5819,-7.4866,-7.4226,-7.2678,-7.0496,-6.8342,-6.6542,-6.5019,-6.441,-6.3632,-6.2753,-6.1704,-6.0825,-6.0013,-5.9268,-5.7611,-5.5681,0.0,0.0,0.0,0.0,0.0,0.0,0.0,0.0,0.0,0.0,0.0,0.0,0.0,0.0,0.0,0.0,0.0,0.0,0.0,0.0,0.0,0.0,0.0,0.0,0.0,0.0,0.0,0.0,0.0,0.0,0.0,0.0,0.0,0.0,0.0,0.0,0.0,0.0,0.0,0.0,0.0,0.0,-6.1058,-5.888,-5.6536,-5.418,-5.2652,-5.204,0.0,0.0,-5.311,-5.4868,-5.6778,-5.6702,-5.5708,-5.4753,-5.4295,-5.4129,-5.422,0.0,0.0,-5.853,-6.2359,-6.5874,-6.6051,-6.7614,-6.9633,-7.1835,-7.3017,-7.4235,-7.6246,-7.7127,0.0,-7.9727,-7.969,-7.9727,-8.0571,-7.8883,-7.7011,-7.5432,-7.4771,-7.5322,-7.7561,-7.8369,-7.872,-7.8548,-7.8734,-7.835,-7.7251,-7.7362,-7.7108,-7.6311,-7.6275,-7.6275,-7.6275,-7.6275,-7.6275,-7.6275,-7.6094,-7.5354,-7.4189,-7.3333,-7.1535,-6.905,-6.783,-6.6405,-6.4909,-6.45,-6.3425,-6.2042,-6.1501,-6.0554,-5.9438,-5.8896,-5.7442,-5.5681,0.0,0.0,0.0,0.0,0.0,0.0,0.0,0.0,0.0,0.0,0.0,0.0,0.0,0.0,0.0,0.0,0.0,0.0,0.0,0.0,0.0,0.0,0.0,0.0,0.0,0.0,0.0,0.0,0.0,0.0,0.0,0.0,0.0,0.0,0.0,0.0,0.0,0.0,0.0,0.0,0.0,0.0,-6.0064,-5.6778,-5.3951,-5.1608,-5.0703,0.0,0.0,0.0,-4.7876,-4.9759,-5.2231,-5.3531,0.0,-5.5135,-5.4753,0.0,0.0,0.0,-5.9202,-6.1937,-6.4933,-6.7827,-7.0478,-7.1762,-7.2826,-7.4478,-7.4102,-7.3786,-7.4778,-7.4909,-7.5397,-7.7127,-7.8112,-7.8919,-7.969,-7.7047,-7.5285,-7.5983,-7.2642,-7.0917,0.0,-7.4845,-7.638,-7.687,-7.7604,-7.7549,-7.6417,-7.7072,-7.7108,-7.6311,-7.6275,-7.6275,-7.6275,-7.6275,-7.6275,-7.6275,-7.5515,-7.5119,-7.4944,-7.1907,-7.001,-6.9056,-6.6768,-6.5769,-6.5669,-6.4149,-6.2669,-6.1332,-6.1298,-5.9945,-5.7949,-5.7915,-5.7002,-5.5681,0.0,0.0,0.0,0.0,0.0,0.0,0.0,0.0,0.0,0.0,0.0,0.0,0.0,0.0,0.0,0.0,0.0,0.0,0.0,0.0,0.0,0.0,0.0,0.0,0.0,0.0,0.0,0.0,0.0,0.0,0.0,0.0,0.0,0.0,0.0,0.0,0.0,0.0,0.0,0.0,0.0,0.0,-5.9281,-5.5836,-5.2686,-4.9799,0.0,0.0,0.0,0.0,0.0,0.0,-4.8678,0.0,0.0,-5.0779,-5.2996,-5.525,0.0,0.0,-6.4267,-6.7448,-6.9761,-7.1787,-7.3791,-7.4143,-7.3964,-7.3413,-7.1712,-7.0234,-7.0006,-6.9062,-6.9547,-7.3257,-7.4159,-7.5434,-7.8395,-7.693,-7.4695,-7.2277,-7.1728,0.0,0.0,0.0,0.0,-7.5124,-7.5871,-7.6287,-7.6309,-7.6565,-7.6565,-7.6311,-7.6275,-7.6275,-7.6275,-7.5768,-7.5768,-7.6275,-7.4935,-7.403,-7.3454,-7.1367,-6.9954,-6.9139,-6.7793,-6.6659,-6.5613,-6.4131,-6.2935,-6.1884,-6.0374,-5.8998,-5.7814,-5.734,-5.6224,-5.4972,0.0,0.0,0.0,0.0,0.0,0.0,0.0,0.0,0.0,0.0,0.0,0.0,0.0,0.0,0.0,0.0,0.0,0.0,0.0,0.0,0.0,0.0,0.0,0.0,0.0,0.0,0.0,0.0,0.0,0.0,0.0,0.0,0.0,0.0,0.0,0.0,0.0,0.0,0.0,0.0,0.0,0.0,-5.6733,-5.3617,-5.0724,0.0,0.0,0.0,0.0,0.0,0.0,0.0,0.0,0.0,-4.8602,-5.0015,-5.3416,-5.7466,0.0,-6.4632,-6.8372,-7.1683,-7.3498,-7.4546,-7.4893,-7.4732,-7.3707,-7.0917,-6.8724,-6.6774,-6.4862,-6.3346,-6.3779,-6.796,-6.8747,-7.0522,-7.539,-7.4403,-7.2795,-7.1626,-7.1406,0.0,0.0,0.0,0.0,-7.3791,-7.5115,-7.5858,-7.5877,-7.613,-7.6275,-7.6275,-7.6275,-7.642,-7.671,-7.6239,-7.5949,-7.5841,-7.4247,-7.2907,-7.1825,-7.0566,-6.9685,-6.9095,-6.7722,-6.6461,-6.5233,-6.3693,-6.2327,-6.1028,-5.9556,-5.8254,-5.707,-5.6596,-5.548,-5.4228,0.0,0.0,0.0,0.0,0.0,0.0,0.0,0.0,0.0,0.0,0.0,0.0,0.0,0.0,0.0,0.0,0.0,0.0,0.0,0.0,0.0,0.0,0.0,0.0,0.0,0.0,0.0,0.0,0.0,0.0,0.0,0.0,0.0,0.0,0.0,0.0,0.0,0.0,0.0,0.0,0.0,0.0,-5.2619,-5.0259,0.0,0.0,0.0,0.0,0.0,0.0,0.0,0.0,0.0,0.0,-5.204,-5.2919,-5.6167,-6.0599,-6.5605,-6.8814,-7.1492,-7.4576,-7.5849,-7.5907,-7.4089,-7.3479,-7.1982,-6.7173,-6.5201,-6.3168,0.0,0.0,-5.8323,-6.1802,-6.2558,-6.494,-7.1398,-7.031,-7.0237,0.0,0.0,0.0,0.0,0.0,0.0,-7.287,0.0,-7.6079,-7.5225,-7.5913,-7.6348,-7.6275,-7.6348,-7.671,-7.747,-7.747,-7.6601,-7.4938,-7.3414,-7.1857,-7.0372,-6.9558,-6.9157,-6.8929,-6.6662,-6.527,-6.4491,-6.2843,-6.0947,-5.8967,-5.8863,-5.7543,-5.5649,-5.5649,-5.4735,-5.3585,0.0,0.0,0.0,0.0,0.0,0.0,0.0,0.0,0.0,0.0,0.0,0.0,0.0,0.0,0.0,0.0,0.0,0.0,0.0,0.0,0.0,0.0,0.0,0.0,0.0,0.0,0.0,0.0,0.0,0.0,0.0,0.0,0.0,0.0,0.0,0.0,0.0,0.0,0.0,0.0,0.0,0.0,-5.1068,0.0,0.0,0.0,0.0,0.0,0.0,0.0,0.0,0.0,0.0,0.0,-5.5747,-5.7862,0.0,-6.5605,-6.9387,-7.2711,-7.549,-7.724,-7.615,-7.4417,-7.3595,-7.076,-6.711,-6.2778,-5.9213,-5.5965,0.0,0.0,0.0,-5.9528,-6.343,0.0,-7.3733,-7.5043,0.0,0.0,0.0,-7.3088,-7.1034,-7.2137,0.0,0.0,-7.3913,-7.5004,-7.5949,-7.6746,-7.6927,-7.6311,-7.6855,-7.7289,-7.7507,-7.6891,-7.5515,-7.3305,-7.2291,-7.1313,-7.0372,-6.9565,-6.8553,-6.7402,-6.6753,-6.5428,-6.3555,-6.1453,-5.9966,-5.8839,-5.7182,-5.5852,-5.4871,-5.4871,-5.4296,-5.3518,0.0,0.0,0.0,0.0,0.0,0.0,0.0,0.0,0.0,0.0,0.0,0.0,0.0,0.0,0.0,0.0,0.0,0.0,0.0,0.0,0.0,0.0,0.0,0.0,0.0,0.0,0.0,0.0,0.0,0.0,0.0,0.0,0.0,0.0,0.0,0.0,0.0,0.0,0.0,0.0,0.0,0.0,0.0,0.0,0.0,0.0,0.0,0.0,0.0,0.0,0.0,-5.2461,-5.4333,-5.7199,-6.0422,-6.2944,0.0,-7.019,-7.3552,-7.5948,-7.768,-7.8488,-7.6446,-7.3429,-7.0483,-6.7252,-6.322,-5.7271,-5.4158,0.0,0.0,0.0,0.0,0.0,0.0,0.0,-7.176,-7.4337,-7.5716,0.0,-7.6554,0.0,-7.3736,-7.4392,-7.479,0.0,-7.4718,-7.5189,-7.5732,-7.6855,-7.7289,-7.6818,-7.7253,-7.7507,-7.7507,-7.6348,-7.508,-7.374,-7.1893,-7.0625,-6.9828,-6.8669,-6.7438,-6.6243,0.0,-6.4331,-6.2699,-6.0419,-5.9088,-5.8289,-5.6438,-5.5243,-5.46,-5.46,-5.4126,-5.3518,0.0,0.0,0.0,0.0,0.0,0.0,0.0,0.0,0.0,0.0,0.0,0.0,0.0,0.0,0.0,0.0,0.0,0.0,0.0,0.0,0.0,0.0,0.0,0.0,0.0,0.0,0.0,0.0,0.0,0.0,0.0,0.0,0.0,0.0,0.0,0.0,0.0,0.0,0.0,0.0,0.0,0.0,0.0,0.0,0.0,0.0,0.0,0.0,0.0,0.0,-5.2843,-5.4677,-5.8689,-6.2357,-6.5696,-6.818,-7.1183,-7.4354,-7.764,-7.8673,-7.8842,-7.8986,-7.648,-7.2451,-6.6496,-6.3429,-5.9637,-5.1867,0.0,0.0,-4.5741,0.0,-4.788,-5.2118,0.0,-6.0484,-6.8525,-7.1675,-7.4573,-7.8267,-7.8774,-7.8484,-7.7579,-7.6855,-7.642,-7.6311,-7.6275,-7.5985,-7.5334,-7.6674,-7.7507,-7.7507,-7.7398,-7.7289,-7.7181,-7.5696,-7.4866,-7.4721,-7.1675,-6.9895,-6.9134,-6.7402,-6.6177,-6.5222,0.0,0.0,-6.1427,-5.9386,-5.8124,-5.7397,-5.6062,-5.5243,-5.4735,-5.4735,-5.4262,-5.3653,0.0,0.0,0.0,0.0,0.0,0.0,0.0,0.0,0.0,0.0,-3.8069,0.0,0.0,0.0,0.0,0.0,0.0,0.0,0.0,0.0,0.0,0.0,0.0,0.0,0.0,0.0,0.0,0.0,0.0,0.0,0.0,0.0,0.0,0.0,0.0,0.0,0.0,0.0,0.0,0.0,0.0,0.0,0.0,0.0,0.0,0.0,0.0,0.0,0.0,0.0,-5.6511,-6.0561,-6.3427,-6.7095,-7.0877,-7.3437,-7.5577,-7.7717,-8.043,-8.0862,-8.0302,-7.9249,-7.5234,-7.0251,-6.5419,-6.0419,0.0,0.0,0.0,-4.5838,-4.3719,-4.5075,0.0,-5.3603,0.0,0.0,0.0,0.0,-7.642,0.0,0.0,0.0,0.0,0.0,0.0,0.0,0.0,-7.6239,-7.6094,-7.7,-7.7507,-7.7507,-7.6855,-7.6203,-7.5517,-7.4576,-7.3776,-7.3088,-7.0589,-6.9352,-6.9134,-6.6858,-6.5075,-6.3734,-6.2803,0.0,-5.8515,-5.7482,-5.6676,-5.5993,-5.5143,-5.5108,-5.5513,-5.5513,-5.504,-5.4397,0.0,0.0,0.0,0.0,0.0,0.0,0.0,0.0,0.0,0.0,-4.2089,-4.1457,0.0,0.0,0.0,0.0,0.0,0.0,0.0,0.0,0.0,0.0,0.0,0.0,0.0,0.0,0.0,0.0,0.0,0.0,0.0,0.0,0.0,0.0,0.0,0.0,0.0,0.0,0.0,0.0,0.0,0.0,0.0,0.0,0.0,0.0,0.0,0.0,0.0,0.0,-5.5861,-6.0485,-6.5222,-6.9311,-7.2864,-7.5386,-7.7335,-7.9207,-8.1729,-8.1837,-8.0849,-7.9352,-7.4735,-6.8794,-6.2402,0.0,0.0,0.0,0.0,-4.4014,-4.3065,0.0,0.0,0.0,0.0,0.0,0.0,0.0,0.0,0.0,0.0,0.0,0.0,0.0,0.0,0.0,0.0,0.0,-7.6275,-7.7072,-7.7507,-7.7507,-7.671,-7.5913,-7.5083,-7.3885,-7.2871,-7.2074,-7.0118,-6.8959,-6.8488,-6.5701,-6.3855,-6.276,-6.1574,0.0,-5.8296,-5.7557,-5.7087,-5.6679,-5.5585,-5.5412,-5.5681,-5.5681,-5.548,-5.5108,0.0,0.0,0.0,0.0,0.0,0.0,0.0,-3.7931,-4.034,-4.3265,-4.5133,-4.4978,-4.1714,-4.0578,0.0,0.0,0.0,0.0,0.0,0.0,0.0,0.0,0.0,0.0,0.0,0.0,0.0,0.0,0.0,0.0,0.0,0.0,0.0,0.0,0.0,0.0,0.0,0.0,0.0,0.0,0.0,0.0,0.0,0.0,0.0,0.0,0.0,0.0,0.0,0.0,-5.3492,-5.7581,-6.3388,-6.8432,-7.2559,-7.4507,-7.6953,-7.9532,-8.19,-8.1991,-8.0956,-7.9041,-7.4041,-6.7504,-5.9538,-5.4408,0.0,0.0,0.0,-4.3104,-4.292,0.0,0.0,0.0,0.0,0.0,0.0,0.0,0.0,0.0,0.0,0.0,0.0,0.0,0.0,0.0,0.0,0.0,-7.6275,-7.6891,-7.7144,-7.7,-7.6203,-7.5334,-7.4356,-7.2943,-7.182,-7.0987,-6.9575,-6.8597,-6.7879,-6.4823,-6.3081,-6.2408,-6.0579,0.0,0.0,-5.7838,-5.7569,-5.7501,-5.6367,-5.6055,-5.619,-5.619,-5.6089,-5.5852,0.0,0.0,0.0,0.0,0.0,0.0,0.0,-3.7808,-4.0397,-4.4031,-4.4924,-4.5121,-4.4885,-4.4055,0.0,0.0,0.0,0.0,0.0,0.0,0.0,0.0,0.0,0.0,0.0,0.0,0.0,0.0,0.0,0.0,0.0,0.0,0.0,0.0,0.0,0.0,0.0,0.0,0.0,0.0,0.0,0.0,0.0,0.0,0.0,0.0,0.0,0.0,0.0,0.0,0.0,-5.2678,-5.5632,-6.2548,-6.9578,-6.9807,0.0,0.0,-8.0541,-8.1222,-8.0704,-7.7878,-7.2499,-6.5999,-5.8584,0.0,0.0,0.0,-4.3196,-4.3142,-4.292,-4.3046,0.0,0.0,0.0,0.0,0.0,0.0,0.0,0.0,0.0,0.0,0.0,0.0,0.0,0.0,0.0,0.0,-7.6275,-7.6348,-7.6094,-7.5336,-7.4573,-7.3378,-7.1857,-7.1024,-7.0221,-6.9424,-6.8525,-6.809,-6.7879,-6.4823,-6.3367,-6.3132,-6.0272,0.0,0.0,-5.7189,-5.6906,-5.6906,-5.6767,-5.7103,-5.7679,-5.7679,-5.7273,-5.6697,0.0,0.0,0.0,0.0,0.0,0.0,0.0,-3.7312,-3.9808,-4.3844,-4.5531,-4.6479,-4.6773,-4.586,-4.4265,0.0,0.0,0.0,0.0,0.0,0.0,0.0,0.0,0.0,0.0,0.0,0.0,0.0,0.0,0.0,0.0,0.0,0.0,0.0,0.0,0.0,0.0,0.0,0.0,0.0,0.0,0.0,0.0,0.0,0.0,0.0,0.0,0.0,0.0,0.0,0.0,0.0,-4.9328,-5.3913,0.0,0.0,-6.9413,-7.308,-7.6907,-7.8685,-7.8853,-7.6218,-7.0856,-6.4604,-5.8253,0.0,0.0,-4.3981,-4.316,-4.3087,-4.292,-4.2901,-4.3425,0.0,0.0,0.0,0.0,0.0,0.0,0.0,0.0,0.0,0.0,0.0,0.0,0.0,0.0,0.0,-7.4863,-7.5334,-7.5442,-7.5083,-7.3849,-7.2653,-7.1531,-7.077,-6.9756,-6.8452,-6.8162,-6.751,-6.6467,-6.4357,-6.2903,-6.1914,-6.0279,0.0,0.0,-5.7981,-5.7837,-5.7442,-5.7442,-5.7645,-5.7881,-5.7881,-5.7712,-5.7408,0.0,0.0,0.0,0.0,0.0,0.0,-3.4966,-3.653,-3.8792,-4.2482,-4.4404,-4.5786,-4.6692,-4.5794,-4.4323,-4.2252,0.0,0.0,0.0,0.0,0.0,0.0,0.0,0.0,0.0,0.0,-4.1991,-4.2221,-4.2791,0.0,0.0,0.0,0.0,0.0,0.0,0.0,0.0,0.0,0.0,0.0,0.0,0.0,0.0,0.0,0.0,0.0,0.0,0.0,0.0,0.0,0.0,0.0,0.0,0.0,0.0,0.0,-6.4193,-6.7846,-7.2061,-7.4929,-7.6148,-7.3538,-6.8694,-6.3037,0.0,0.0,0.0,-4.3816,-4.3141,-4.3067,-4.2901,-4.2901,-4.2901,0.0,0.0,0.0,0.0,0.0,0.0,0.0,0.0,0.0,0.0,0.0,0.0,0.0,0.0,0.0,0.0,-7.4178,-7.4392,-7.4392,-7.3305,-7.211,-7.0842,-7.0299,-6.9249,-6.7655,-6.7402,-6.6714,-6.5526,-6.3819,-6.2564,-6.1673,0.0,0.0,0.0,-5.8871,-5.8599,-5.8173,-5.7991,-5.7881,-5.7881,-5.7881,-5.7881,-5.778,0.0,0.0,0.0,0.0,0.0,0.0,0.0,-3.5425,-3.7373,-3.9822,-4.0779,-4.2066,-4.4213,-4.3468,-4.2997,-4.3438,0.0,0.0,0.0,0.0,0.0,0.0,0.0,0.0,0.0,0.0,-4.3176,-4.3968,-4.4501,-4.421,-4.3208,0.0,0.0,0.0,0.0,0.0,0.0,0.0,0.0,0.0,0.0,0.0,0.0,0.0,0.0,0.0,0.0,0.0,0.0,0.0,0.0,0.0,0.0,0.0,0.0,0.0,-5.7953,-6.4006,-6.6049,-6.992,-7.2626,-6.9687,-6.5888,-6.1349,0.0,0.0,0.0,-4.3651,-4.3104,-4.3067,-4.2901,-4.2901,-4.2901,-4.2901,0.0,0.0,0.0,0.0,0.0,0.0,0.0,0.0,0.0,0.0,0.0,0.0,0.0,0.0,0.0,-7.316,-7.2726,-7.2726,-7.2726,-7.1567,-6.9243,-6.9243,-6.838,-6.6786,-6.6025,-6.5627,-6.5526,-6.3245,-6.2586,0.0,0.0,0.0,0.0,-5.9478,-5.8909,-5.8841,-5.8173,-5.7881,-5.7881,-5.7881,-5.7881,-5.778,0.0,0.0,0.0,0.0,0.0,0.0,0.0,-3.3176,-3.494,-3.6663,-3.8505,-4.0419,-4.2545,-4.241,-4.232,-4.2742,0.0,0.0,0.0,0.0,0.0,0.0,0.0,0.0,0.0,0.0,-4.3666,-4.5428,-4.5393,-4.5354,-4.5376,-4.458,-4.3714,0.0,0.0,0.0,0.0,0.0,0.0,0.0,0.0,0.0,0.0,0.0,0.0,0.0,0.0,0.0,0.0,0.0,0.0,0.0,0.0,0.0,0.0,0.0,0.0,0.0,-5.8813,-6.1523,-6.3161,-6.1128,-5.8437,-5.531,-5.1742,0.0,-4.5589,-4.3541,-4.3104,-4.3067,-4.2901,-4.2901,-4.3063,-4.3607,0.0,0.0,0.0,0.0,0.0,0.0,0.0,0.0,0.0,0.0,0.0,0.0,0.0,0.0,0.0,-7.0951,-7.135,-7.1857,-7.1386,-7.0227,-6.8416,-6.838,-6.7583,-6.5989,-6.5736,-6.4773,-6.3245,-6.2534,0.0,0.0,0.0,0.0,0.0,-6.003,-5.9346,-5.884,-5.8119,-5.7531,-5.7103,-5.6596,-5.6393,-5.6359,0.0,0.0,0.0,0.0,0.0,0.0,0.0,-3.1794,-3.329,-3.4579,-3.6424,-3.8549,-4.0919,-4.089,-4.1091,-4.2107,0.0,0.0,0.0,0.0,0.0,0.0,0.0,0.0,0.0,-4.3252,-4.4337,-4.6543,-4.6224,-4.6464,-4.7279,-4.645,-4.5296,-4.3919,-4.3275,0.0,0.0,0.0,0.0,0.0,0.0,0.0,-4.5364,0.0,0.0,0.0,0.0,0.0,0.0,0.0,0.0,0.0,0.0,0.0,0.0,0.0,-4.7185,0.0,0.0,-5.5607,-5.7079,-5.5794,-5.3885,0.0,0.0,0.0,-4.4839,-4.334,-4.3012,-4.2994,-4.2901,-4.2901,-4.3082,-4.357,0.0,0.0,0.0,0.0,0.0,0.0,0.0,0.0,0.0,0.0,0.0,0.0,0.0,0.0,0.0,-6.9394,-6.9575,-6.972,-6.9865,-6.9176,-6.7583,-6.7547,-6.675,-6.5156,-6.4563,-6.3703,-6.2586,-6.2028,0.0,0.0,0.0,0.0,0.0,-6.0282,-5.9404,-5.8392,-5.7672,-5.7019,-5.6325,-5.5886,-5.5681,-5.5683,0.0,0.0,0.0,0.0,0.0,0.0,0.0,0.0,0.0,0.0,-3.4622,-3.6482,-3.9156,-3.9002,-3.946,0.0,0.0,0.0,0.0,0.0,0.0,0.0,0.0,0.0,-4.3968,-4.393,-4.5011,-4.7273,-4.7061,-4.7644,-4.8951,-4.8678,-4.7315,-4.5002,-4.4085,-4.3312,0.0,0.0,0.0,0.0,0.0,-4.4985,0.0,0.0,0.0,0.0,0.0,0.0,0.0,0.0,0.0,0.0,0.0,0.0,0.0,0.0,0.0,0.0,0.0,0.0,0.0,0.0,0.0,0.0,0.0,0.0,0.0,-4.3011,-4.2792,-4.2756,-4.281,-4.281,-4.2846,0.0,0.0,0.0,0.0,0.0,0.0,0.0,0.0,0.0,0.0,0.0,0.0,0.0,0.0,0.0,0.0,-6.8235,-6.7474,-6.6641,-6.8054,-6.8126,-6.6641,-6.6641,-6.5844,-6.4287,-6.2945,-6.255,-6.3,-6.1566,0.0,0.0,0.0,0.0,0.0,-6.0043,-5.8953,-5.7635,-5.6983,-5.6259,-5.5649,-5.5546,-5.5512,-5.548,0.0,0.0,0.0,0.0,0.0,0.0,0.0,0.0,0.0,0.0,0.0,-3.4723,-3.5981,-3.7492,0.0,0.0,0.0,0.0,0.0,0.0,0.0,0.0,0.0,0.0,-4.3968,-4.3405,-4.4361,-4.692,-4.8055,-4.9213,-5.0333,-5.0879,-5.0178,-4.8362,-4.625,-4.4515,0.0,0.0,0.0,0.0,-4.3711,-4.3492,0.0,0.0,0.0,0.0,-4.3165,-4.3022,0.0,0.0,0.0,0.0,0.0,0.0,0.0,0.0,-4.1947,-4.2139,-4.2907,0.0,-4.5883,0.0,0.0,0.0,0.0,0.0,0.0,0.0,0.0,0.0,0.0,0.0,0.0,0.0,0.0,0.0,0.0,0.0,0.0,0.0,0.0,0.0,0.0,0.0,0.0,0.0,0.0,0.0,0.0,-6.6279,-6.5808,-6.4975,-6.5337,-6.5337,-6.4975,-6.4975,-6.4468,-6.3454,-6.3133,-6.2436,-6.1472,-6.0509,0.0,0.0,0.0,0.0,-5.9173,-5.7961,-5.7246,-5.6874,-5.6191,-5.545,-5.4803,-5.4228,-5.4025,-5.3991,0.0,0.0,0.0,0.0,0.0,0.0,0.0,0.0,0.0,0.0,0.0,0.0,0.0,0.0,0.0,0.0,0.0,0.0,0.0,0.0,0.0,0.0,0.0,0.0,-4.3968,-4.3814,-4.5104,-4.7912,-4.9011,-5.0378,-5.1903,-5.2344,-5.1279,-4.8857,-4.5663,-4.3356,-4.1945,-4.2962,-4.3147,-4.2661,-4.2852,0.0,0.0,0.0,0.0,0.0,-4.1852,-4.159,0.0,-4.2297,-4.2366,-4.2234,0.0,0.0,0.0,0.0,-4.122,-4.1005,-4.0557,-4.1925,-4.3387,-4.2932,-4.3063,-4.3286,0.0,0.0,0.0,0.0,0.0,0.0,0.0,0.0,0.0,0.0,0.0,0.0,0.0,0.0,0.0,0.0,0.0,0.0,0.0,0.0,0.0,0.0,0.0,0.0,0.0,-6.4685,-6.4287,-6.3852,-6.349,-6.349,-6.3852,-6.3852,-6.3454,-6.2657,-6.237,-6.1588,-6.048,-6.0023,-5.9455,0.0,0.0,0.0,-5.7745,-5.6992,-5.633,-5.5687,-5.5277,-5.4702,-5.4059,-5.3653,-5.3518,-5.3518,0.0,0.0,0.0,0.0,0.0,0.0,0.0,0.0,0.0,0.0,0.0,0.0,0.0,0.0,0.0,0.0,0.0,0.0,0.0,0.0,0.0,0.0,0.0,-4.2335,-4.4159,-4.4326,-4.5919,-4.9021,-4.9812,-5.1229,-5.3203,-5.357,-5.1756,-4.7976,-4.4415,-4.1894,-4.0388,-4.2057,-4.2096,-4.1101,-4.2013,0.0,0.0,0.0,0.0,0.0,0.0,0.0,0.0,-4.049,-4.1028,-4.1437,-4.1338,0.0,0.0,0.0,0.0,0.0,-3.9939,-4.1562,-4.3372,-4.3082,-4.3706,-4.4163,0.0,0.0,0.0,0.0,0.0,0.0,0.0,0.0,0.0,0.0,0.0,0.0,0.0,0.0,0.0,0.0,0.0,0.0,0.0,0.0,0.0,0.0,0.0,0.0,0.0,-6.3273,-6.2766,-6.2657,-6.2005,-6.1969,-6.2621,-6.2766,-6.244,-6.1616,-6.107,-6.0389,-5.9724,-5.9523,-5.8739,0.0,0.0,0.0,-5.6322,-5.6258,-5.5517,-5.4431,-5.4431,-5.4059,-5.3518,-5.3518,-5.3518,-5.3518,0.0,0.0,0.0,0.0,0.0,0.0,0.0,0.0,0.0,0.0,0.0,0.0,0.0,0.0,0.0,0.0,0.0,0.0,0.0,0.0,0.0,0.0,-4.1227,-4.2641,-4.5048,-4.3513,-4.4511,-4.828,-5.011,-5.1784,-5.324,-5.5295,-5.302,-4.7223,-4.592,-4.348,-4.0337,-4.0626,-4.0745,-4.0728,-4.0446,0.0,0.0,0.0,0.0,0.0,0.0,0.0,0.0,-4.0428,-4.0186,-3.9635,-4.0277,0.0,0.0,0.0,0.0,0.0,-3.9428,-4.1356,-4.294,-4.1657,-4.2357,-4.3305,0.0,0.0,0.0,0.0,0.0,0.0,0.0,0.0,0.0,0.0,0.0,0.0,0.0,0.0,0.0,0.0,0.0,0.0,0.0,0.0,0.0,0.0,0.0,0.0,0.0,0.0,-6.0883,-6.0158,-6.005,-6.005,-6.0158,-6.0846,-6.0774,-5.9977,-5.9835,-5.9492,-5.8866,-5.816,-5.7426,0.0,0.0,-5.4956,-5.4704,-5.4223,-5.3856,-5.3687,-5.3687,-5.3585,-5.3518,-5.3518,-5.3518,-5.3518,0.0,0.0,0.0,0.0,0.0,0.0,0.0,0.0,0.0,0.0,0.0,0.0,0.0,0.0,0.0,0.0,0.0,0.0,0.0,0.0,0.0,-4.16,-4.2412,-4.3405,-4.459,-4.4221,-4.6017,-5.0065,-5.1547,-5.306,-5.4473,-5.3849,-5.1022,-4.6397,-4.4709,-4.2259,-3.9446,-3.9569,-3.9723,-3.9848,0.0,0.0,0.0,0.0,0.0,0.0,0.0,0.0,0.0,0.0,-3.8563,-3.8877,-3.8818,0.0,0.0,0.0,0.0,0.0,-3.8776,-4.034,-4.1703,-4.1009,-4.2632,-4.4177,0.0,0.0,0.0,0.0,0.0,0.0,0.0,0.0,0.0,0.0,0.0,0.0,0.0,0.0,0.0,0.0,0.0,0.0,0.0,0.0,0.0,0.0,0.0,0.0,0.0,0.0,-5.9977,-5.9615,-5.9615,-5.9398,-5.8963,-5.8891,-5.9108,-5.9615,-5.9615,-5.9069,-5.8045,-5.766,-5.6721,-5.5344,0.0,-5.4235,-5.3881,-5.3618,-5.3518,-5.3518,-5.3518,-5.3518,-5.3518,-5.3518,-5.3518,-5.3518,0.0,0.0,0.0,0.0,0.0,0.0,0.0,0.0,0.0,0.0,0.0,0.0,0.0,0.0,0.0,0.0,0.0,0.0,0.0,0.0,-4.1233,-4.2331,-4.2927,-4.3792,-4.5017,-4.5539,-4.7701,-5.1602,-5.2484,-5.3665,-5.4987,-5.2123,-4.8967,-4.5516,-4.3277,-4.0965,-3.8741,-3.9128,-3.9192,-3.9036,0.0,0.0,0.0,0.0,0.0,0.0,0.0,0.0,0.0,0.0,0.0,0.0,0.0,0.0,0.0,-3.859,-3.8287,-3.8113,-3.8234,-3.9291,-4.0398,-4.0398,0.0,0.0,0.0,0.0,0.0,0.0,0.0,0.0,0.0,0.0,0.0,0.0,0.0,0.0,0.0,0.0,0.0,0.0,0.0,0.0,0.0,0.0,0.0,0.0,0.0,0.0,0.0,0.0,-5.9253,-5.9035,-5.8854,-5.8456,-5.784,-5.7043,-5.7369,-5.8746,-5.8601,-5.7844,-5.666,-5.666,-5.5716,-5.4056,-5.4056,-5.3751,-5.3208,-5.3378,-5.3347,-5.3213,-5.3213,-5.3213,-5.3247,-5.345,-5.3518,-5.3518,0.0,0.0,0.0,0.0,0.0,0.0,0.0,0.0,0.0,0.0,0.0,0.0,0.0,0.0,0.0,0.0,0.0,0.0,0.0,0.0,-4.0111,-4.1184,-4.1028,-4.3189,-4.8071,-4.7203,-4.8221,-5.1342,-5.1848,-5.2527,-5.3335,-5.161,-4.8636,-4.4709,-4.3057,-4.0965,-3.8762,-3.9528,-3.9417,-3.8823,-3.9851,0.0,0.0,0.0,0.0,0.0,0.0,0.0,0.0,0.0,0.0,0.0,0.0,0.0,-3.751,-3.8122,-3.7778,-3.7326,-3.8043,-3.8843,-3.9495,-3.9495,0.0,0.0,0.0,0.0,0.0,0.0,0.0,0.0,0.0,0.0,0.0,0.0,0.0,0.0,0.0,0.0,0.0,0.0,0.0,0.0,0.0,0.0,0.0,0.0,0.0,0.0,0.0,0.0,0.0,-5.7406,-5.6645,-5.621,-5.6174,-5.545,-5.5486,-5.6247,-5.5558,-5.4864,-5.418,-5.418,-5.376,-5.3112,-5.3112,-5.2764,-5.2234,-5.2922,-5.2885,-5.2401,-5.2401,-5.2401,-5.2469,-5.3213,-5.3518,-5.3518,0.0,0.0,0.0,0.0,0.0,0.0,0.0,0.0,0.0,0.0,0.0,0.0,0.0,0.0,0.0,0.0,0.0,0.0,0.0,0.0,-4.0552,-4.1844,-4.2624,-4.4387,-4.7368,-4.7286,-4.881,-5.2048,-5.3027,-5.3408,-5.313,-5.1022,-4.8416,-4.5369,-4.324,-4.1515,-4.0141,-3.946,-3.957,-4.012,-3.9547,-3.9022,0.0,0.0,0.0,0.0,0.0,0.0,0.0,0.0,-3.5528,-3.6148,0.0,0.0,-3.794,-3.8198,-3.7693,-3.71,-3.7374,-3.8046,-3.8753,-3.926,0.0,0.0,0.0,0.0,0.0,0.0,0.0,0.0,0.0,0.0,0.0,0.0,0.0,0.0,0.0,0.0,0.0,0.0,0.0,0.0,0.0,0.0,0.0,0.0,0.0,0.0,0.0,0.0,0.0,-5.5776,-5.5486,-5.5305,-5.5305,-5.4037,-5.353,-5.382,-5.4544,-5.4749,-5.4514,-5.4086,-5.3762,-5.352,-5.2764,-5.2295,-5.2088,-5.1996,-5.1815,-5.1623,-5.1623,-5.1623,-5.1657,-5.1961,-5.2367,-5.2706,0.0,0.0,0.0,0.0,0.0,0.0,0.0,0.0,0.0,0.0,0.0,0.0,0.0,0.0,0.0,0.0,0.0,0.0,0.0,-3.9622,-4.0496,-4.2059,-4.2898,-4.4154,-4.5896,-4.6611,-4.8512,-5.1582,-5.2708,-5.2711,-5.1589,-4.9781,-4.7763,-4.5551,-4.3233,-4.1994,-4.1516,-3.9889,-3.9825,-4.0618,-3.9353,-3.8716,0.0,0.0,0.0,0.0,0.0,0.0,0.0,0.0,-3.4797,0.0,0.0,0.0,0.0,0.0,-3.7281,-3.6508,-3.6017,-3.6633,-3.7558,0.0,0.0,0.0,0.0,0.0,0.0,0.0,0.0,0.0,0.0,0.0,0.0,0.0,0.0,0.0,0.0,0.0,0.0,0.0,0.0,0.0,0.0,0.0,0.0,0.0,0.0,0.0,0.0,0.0,0.0,0.0,-5.4399,-5.4146,-5.4146,-5.2552,-5.1719,-5.1756,-5.2842,-5.3385,-5.3362,-5.2929,-5.272,-5.2634,-5.182,-5.1494,-5.1511,-5.1172,-5.0955,-5.0879,-5.1116,-5.1082,-5.0879,-5.1083,-5.1522,-5.1894,0.0,0.0,0.0,0.0,0.0,0.0,0.0,0.0,0.0,0.0,0.0,0.0,0.0,0.0,0.0,0.0,0.0,0.0,-3.9753,-3.9129,-3.954,-4.14,-4.123,-4.2009,-4.3949,-4.5233,-4.7095,-4.9574,-5.0362,-4.9921,-4.8287,-4.7736,-4.6638,-4.4971,-4.292,-4.2246,-4.2587,-4.1017,-4.0176,-3.9868,-3.9293,-3.8942,-3.8627,0.0,0.0,0.0,0.0,0.0,0.0,0.0,-3.4803,-3.3931,0.0,0.0,0.0,0.0,-3.6435,-3.5442,-3.3864,-3.4588,0.0,0.0,0.0,0.0,0.0,0.0,0.0,0.0,0.0,0.0,0.0,0.0,0.0,0.0,0.0,0.0,0.0,0.0,0.0,0.0,0.0,0.0,0.0,0.0,0.0,0.0,0.0,0.0,0.0,0.0,0.0,0.0,-5.3313,-5.248,-5.248,-5.0886,-5.0112,-5.0112,-5.0075,-5.0112,-5.0112,-5.0112,-5.0112,-5.0112,-5.009,-5.0194,-5.0385,-5.0576,-5.0466,-5.0135,-5.0913,-5.0744,-5.0168,-5.0913,-5.1151,-5.1217,0.0,0.0,0.0,0.0,0.0,0.0,0.0,0.0,0.0,0.0,0.0,0.0,0.0,0.0,0.0,0.0,0.0,0.0,0.0,-3.8726,-3.9393,-3.8971,-4.033,-4.1477,-4.221,-4.411,-4.5993,-4.7865,-4.8067,-4.7804,-4.7017,-4.6778,-4.5395,-4.312,-4.2986,-4.2093,-4.0625,-3.9048,-3.8977,-3.9842,-3.9048,-3.8348,-3.781,0.0,0.0,0.0,0.0,0.0,0.0,0.0,0.0,0.0,0.0,0.0,0.0,0.0,-3.6001,-3.555,-3.4552,0.0,0.0,0.0,0.0,0.0,0.0,0.0,0.0,0.0,0.0,0.0,0.0,0.0,0.0,0.0,0.0,0.0,0.0,0.0,0.0,0.0,0.0,0.0,0.0,0.0,0.0,0.0,0.0,0.0,0.0,0.0,0.0,0.0,-5.1067,-5.0814,-5.0814,-4.9764,-4.9257,-4.9257,-4.8677,-4.9003,-5.0112,-5.0112,-5.0112,-5.009,-4.9657,-4.9281,-4.8982,-4.8797,-4.898,-4.9357,-4.956,-4.9526,-4.9357,-4.956,-4.9965,-5.0338,0.0,0.0,0.0,0.0,0.0,0.0,0.0,0.0,0.0,0.0,0.0,0.0,0.0,0.0,0.0,0.0,0.0,0.0,0.0,0.0,-3.9222,-3.8714,-4.0252,-4.145,-4.2284,-4.3563,-4.4562,-4.5168,-4.5828,-4.5625,-4.4607,-4.5858,-4.5179,-4.2924,-4.3777,-4.3283,-4.1732,-3.923,-3.8835,-3.9773,-3.8738,-3.7957,-3.7502,0.0,0.0,0.0,0.0,0.0,0.0,0.0,0.0,0.0,0.0,0.0,0.0,-3.5494,-3.5002,-3.4546,-3.4011,0.0,0.0,0.0,0.0,0.0,0.0,0.0,0.0,0.0,0.0,0.0,0.0,0.0,0.0,0.0,0.0,0.0,0.0,0.0,0.0,0.0,0.0,0.0,0.0,0.0,0.0,0.0,0.0,0.0,0.0,0.0,0.0,0.0,-4.98,-4.9619,-4.9619,-4.8822,-4.8402,-4.8402,-4.7932,-4.8206,-4.9148,-4.9148,-4.9148,-4.9126,-4.9104,-4.8663,-4.7917,-4.8059,-4.8109,-4.8139,-4.8139,-4.8308,-4.8578,-4.8578,-4.9052,-4.9593,0.0,0.0,0.0,0.0,0.0,0.0,0.0,0.0,0.0,0.0,0.0,0.0,0.0,0.0,0.0,0.0,0.0,0.0,0.0,0.0,-3.9056,-3.9659,-4.0671,-4.1882,-4.3368,-4.3478,-4.302,-4.2016,-4.3555,-4.3342,-4.1596,-4.4814,-4.5246,-4.336,-4.4568,-4.4757,-4.4014,-4.0464,-3.9135,-3.9404,-3.8304,-3.7681,-3.7411,-3.7551,0.0,0.0,0.0,0.0,0.0,0.0,0.0,0.0,0.0,0.0,0.0,-3.4516,-3.3738,-3.2898,0.0,0.0,0.0,0.0,0.0,0.0,0.0,0.0,0.0,0.0,0.0,0.0,0.0,0.0,0.0,0.0,0.0,0.0,0.0,0.0,0.0,0.0,0.0,0.0,0.0,0.0,0.0,0.0,0.0,0.0,0.0,0.0,0.0,-4.9894,-4.9184,-4.8764,-4.8764,-4.8098,-4.7699,0.0,-4.7699,-4.7663,-4.7569,-4.7663,-4.7699,-4.7714,-4.8432,-4.8171,-4.7317,-4.7943,-4.7692,-4.6874,-4.6815,-4.7225,-4.7804,-4.7804,-4.824,-4.8815,0.0,0.0,0.0,0.0,0.0,0.0,0.0,0.0,0.0,0.0,0.0,0.0,0.0,0.0,0.0,0.0,0.0,0.0,0.0,0.0,-3.9166,-3.8043,-4.0598,-4.2213,-4.2543,-4.3167,-4.2314,-3.996,-4.0924,-4.0981,0.0,0.0,0.0,-3.9823,0.0,-4.1391,-3.8992,-3.7538,-3.6977,-3.7095,-3.7455,-3.7165,-3.6553,-3.6582,-3.5697,0.0,0.0,0.0,0.0,0.0,0.0,0.0,-3.2841,-3.3541,-3.448,-3.3828,-3.3291,0.0,0.0,0.0,0.0,0.0,0.0,0.0,0.0,0.0,0.0,0.0,0.0,0.0,0.0,0.0,0.0,0.0,0.0,0.0,0.0,0.0,0.0,0.0,0.0,0.0,0.0,0.0,0.0,0.0,0.0,0.0,0.0,0.0,0.0,-4.8206,-4.8061,-4.7968,-4.7968,-4.7787,-4.7699,0.0,-4.7699,-4.7373,-4.6794,-4.7409,-4.7699,-4.7714,-4.7455,-4.752,-4.7772,-4.716,-4.7113,-4.7414,-4.699,-4.6887,-4.7022,-4.7022,-4.7124,-4.7259,0.0,0.0,0.0,0.0,0.0,0.0,0.0,0.0,0.0,0.0,0.0,0.0,0.0,0.0,0.0,0.0,0.0,0.0,0.0,0.0,0.0,0.0,0.0,0.0,0.0,0.0,0.0,0.0,0.0,0.0,0.0,0.0,0.0,-4.0284,0.0,-4.1481,-3.9549,-3.7685,-3.6848,-3.6806,-3.6904,-3.6228,-3.5167,-3.5545,-3.4452,-3.274,-3.2706,0.0,0.0,0.0,0.0,0.0,0.0,0.0,-3.3671,-3.324,-3.2628,-3.2197,0.0,0.0,0.0,0.0,0.0,0.0,0.0,0.0,0.0,0.0,0.0,0.0,0.0,0.0,0.0,0.0,0.0,0.0,0.0,0.0,0.0,0.0,0.0,0.0,0.0,0.0,0.0,0.0,0.0,0.0,0.0,-4.7699,-4.7699,-4.7699,-4.7699,-4.7518,-4.712,-4.712,-4.6939,-4.654,-4.654,-4.6323,-4.5961,-4.6757,-4.7337,-4.7678,-4.7407,-4.738,-4.7428,-4.6903,-4.6595,-4.6473,-4.6172,-4.6164,-4.6278,-4.6278,-4.6481,-4.6786,0.0,0.0,0.0,0.0,0.0,0.0,0.0,0.0,0.0,0.0,0.0,0.0,0.0,0.0,0.0,0.0,0.0,0.0,0.0,0.0,0.0,0.0,0.0,0.0,0.0,0.0,0.0,0.0,0.0,0.0,0.0,0.0,0.0,-4.1654,0.0,-4.2275,-4.1216,-3.8341,-3.7034,-3.69,-3.6172,-3.5015,-3.3799,-3.4383,-3.3368,-3.1648,-3.2241,-3.2134,-3.1671,-3.1404,0.0,0.0,0.0,0.0,-3.2537,-3.2537,-3.1743,-3.1025,0.0,0.0,0.0,0.0,0.0,0.0,0.0,0.0,0.0,0.0,0.0,0.0,0.0,0.0,0.0,0.0,0.0,0.0,0.0,0.0,0.0,0.0,0.0,0.0,0.0,0.0,0.0,0.0,0.0,0.0,-4.7482,-4.7373,-4.7373,-4.7482,-4.7373,-4.6975,-4.6287,-4.6287,-4.5961,-4.5309,-4.5164,-4.5164,-4.5309,-4.5852,-4.6613,-4.7518,-4.7663,-4.745,-4.7039,-4.6949,-4.6317,-4.5416,-4.5346,-4.5384,-4.55,-4.55,-4.5906,-4.6413,0.0,0.0,0.0,0.0,0.0,0.0,0.0,0.0,0.0,0.0,0.0,0.0,0.0,0.0,0.0,0.0,0.0,0.0,0.0,0.0,0.0,0.0,-4.0985,0.0,0.0,0.0,0.0,0.0,0.0,0.0,0.0,0.0,0.0,-4.0043,0.0,0.0,-3.8905,-3.6525,-3.549,-3.5401,-3.4697,-3.3795,-3.296,-3.3141,-3.2479,-3.1557,-3.181,-3.2223,-3.2505,-3.1739,-3.2157,0.0,0.0,0.0,-3.1398,-3.1398,-3.0623,0.0,0.0,0.0,0.0,0.0,0.0,0.0,0.0,0.0,0.0,0.0,0.0,0.0,0.0,0.0,0.0,0.0,0.0,0.0,0.0,0.0,0.0,0.0,0.0,0.0,0.0,0.0,0.0,0.0,0.0,0.0,-4.6613,-4.5997,-4.5961,-4.6649,-4.5997,-4.5562,-4.5454,-4.5454,-4.5417,-4.5273,-4.4584,-4.4621,-4.5273,-4.4693,-4.5236,-4.6721,-4.7409,-4.7657,-4.7572,-4.7084,-4.6543,-4.595,-4.5468,-4.5076,-4.475,-4.475,-4.4818,-4.4886,0.0,0.0,0.0,0.0,0.0,0.0,0.0,0.0,0.0,0.0,0.0,0.0,0.0,0.0,0.0,-3.3964,0.0,0.0,0.0,0.0,0.0,-3.968,-3.9313,-3.9344,-4.0002,0.0,0.0,0.0,0.0,0.0,0.0,-4.0308,-4.1836,0.0,0.0,0.0,0.0,0.0,-3.5518,-3.496,-3.3436,-3.2295,-3.1464,-3.1143,-3.047,-2.9901,-3.0851,-3.1313,-3.1529,-3.1485,-3.1781,-3.2085,-3.1797,0.0,0.0,0.0,-3.1115,0.0,0.0,0.0,0.0,0.0,0.0,0.0,0.0,0.0,0.0,0.0,0.0,0.0,0.0,0.0,0.0,0.0,0.0,0.0,0.0,0.0,0.0,0.0,0.0,0.0,0.0,0.0,0.0,0.0,0.0,-4.4114,-4.444,-4.415,-4.4114,-4.4476,-4.415,-4.3751,-4.3298,-4.3715,-4.3969,-4.3932,-4.3607,-4.3607,-4.3969,-4.4041,-4.4983,-4.654,-4.6866,-4.7301,-4.7678,-4.7428,-4.6845,-4.6074,-4.5825,-4.5302,-4.4615,-4.4615,-4.4615,-4.4615,0.0,0.0,0.0,0.0,0.0,0.0,0.0,0.0,0.0,0.0,0.0,0.0,0.0,0.0,0.0,0.0,-3.4375,0.0,0.0,0.0,0.0,-3.8322,-3.7823,-3.7613,-3.7894,0.0,0.0,0.0,0.0,0.0,-3.7823,-3.9721,-4.263,0.0,-4.4345,0.0,0.0,0.0,0.0,0.0,-3.2555,-3.1003,-3.0173,-2.9885,-2.9179,-2.856,-3.0334,-3.078,-3.0656,-3.1317,-3.1462,-3.1355,-3.1339,-3.1308,0.0,0.0,0.0,0.0,0.0,0.0,0.0,0.0,0.0,0.0,0.0,0.0,0.0,0.0,0.0,0.0,0.0,0.0,0.0,0.0,0.0,0.0,0.0,0.0,0.0,0.0,0.0,0.0,0.0,0.0,0.0,0.0,0.0,-4.2375,-4.2592,-4.2411,-4.2375,-4.2592,-4.2411,-4.2013,-4.1379,-4.1977,-4.2375,-4.2592,-4.2592,-4.2592,-4.2629,-4.3425,-4.444,-4.5635,-4.625,-4.683,-4.7409,-4.7627,-4.7062,-4.6098,-4.6098,-4.5477,-4.4615,-4.4615,-4.4615,-4.4615,0.0,0.0,0.0,0.0,0.0,0.0,0.0,0.0,0.0,0.0,0.0,0.0,-3.3282,-3.2827,-3.2558,-3.2866,-3.3193,-3.3851,-3.4976,-3.5862,0.0,-3.7529,-3.7529,0.0,-3.708,0.0,0.0,0.0,0.0,0.0,-3.856,-3.9388,-4.1802,-4.5432,-4.4596,-4.262,-3.9664,0.0,0.0,0.0,0.0,0.0,0.0,0.0,0.0,0.0,0.0,0.0,-3.0782,-3.1395,-3.1557,-3.1359,-3.0534,-3.0236,-3.0059,0.0,0.0,0.0,0.0,0.0,0.0,0.0,0.0,0.0,0.0,0.0,0.0,0.0,0.0,0.0,0.0,0.0,0.0,0.0,0.0,0.0,0.0,0.0,0.0,0.0,0.0,0.0,0.0,0.0,0.0,0.0,0.0,-4.0945,-4.1705,-4.1053,-4.0981,-4.1741,-4.1017,-4.0583,-4.0546,-4.0583,-4.1017,-4.1741,-4.1741,-4.1741,-4.1777,-4.2592,-4.2991,-4.3227,-4.5526,-4.654,-4.6613,-4.7409,-4.7062,-4.6098,-4.6098,-4.5477,-4.4615,-4.4615,-4.4615,-4.4615,0.0,0.0,0.0,0.0,0.0,0.0,0.0,0.0,0.0,0.0,0.0,0.0,0.0,-3.3349,-3.3055,-3.3159,-3.3048,-3.3173,-3.3568,-3.3888,0.0,-3.5533,-3.5876,-3.5735,-3.5098,0.0,0.0,0.0,0.0,-3.4387,-3.5752,-3.7478,-3.8491,-3.8939,-4.1136,-4.1792,-4.0905,-3.718,0.0,0.0,0.0,0.0,0.0,0.0,0.0,0.0,0.0,0.0,0.0,0.0,0.0,-3.0542,-3.0232,-3.0127,-3.0074,-2.977,-2.9364,0.0,0.0,0.0,0.0,0.0,0.0,0.0,0.0,0.0,0.0,0.0,0.0,0.0,0.0,0.0,0.0,0.0,0.0,0.0,0.0,0.0,0.0,0.0,0.0,0.0,0.0,0.0,0.0,0.0,0.0,0.0,-3.9441,-3.9188,-3.9152,-3.9441,-3.9152,-3.926,-3.9804,-3.9804,-4.0202,-4.0945,-4.0669,-4.0688,-4.0945,-4.1516,-4.1895,-4.223,-4.415,-4.5562,-4.654,-4.683,-4.6597,-4.6098,-4.6098,-4.5477,-4.4615,-4.4615,-4.4615,-4.4615,0.0,0.0,0.0,0.0,0.0,0.0,0.0,0.0,0.0,0.0,0.0,0.0,0.0,0.0,-3.2913,-3.302,-3.3034,-3.295,-3.2814,-3.2795,-3.3263,-3.429,-3.4875,-3.4778,0.0,0.0,0.0,0.0,0.0,0.0,0.0,-3.5545,-3.6098,-3.5663,-3.7719,-3.9169,0.0,0.0,0.0,-3.38,0.0,0.0,-3.0126,0.0,0.0,0.0,0.0,0.0,0.0,0.0,0.0,0.0,0.0,-2.9773,-2.9736,-2.9736,-2.9382,0.0,0.0,0.0,0.0,0.0,0.0,0.0,0.0,0.0,0.0,0.0,0.0,0.0,0.0,0.0,0.0,0.0,0.0,0.0,0.0,0.0,0.0,0.0,0.0,0.0,0.0,0.0,0.0,0.0,0.0,0.0,-3.8191,-3.8191,-3.8191,-3.8191,-3.8191,-3.848,-3.8971,-3.9024,-3.9369,-4.0112,-3.9712,-3.973,-4.0148,-4.0537,-4.0915,-4.1379,-4.2701,-4.4367,-4.6085,-4.6194,-4.6177,-4.6074,-4.59,-4.5354,-4.4615,-4.4615,-4.4615,-4.4615,0.0,0.0,0.0,0.0,0.0,0.0,0.0,0.0,0.0,-2.9455,0.0,0.0,0.0,0.0,0.0,-3.2301,-3.2985,-3.3213,-3.2818,-3.2763,-3.3136,-3.3937,0.0,0.0,0.0,0.0,0.0,0.0,0.0,0.0,0.0,0.0,-3.48,0.0,-3.4697,-3.4869,-3.6111,0.0,-3.4731,-3.3785,0.0,-2.9747,-3.1688,0.0,0.0,0.0,-3.3632,-3.3228,0.0,-3.1773,0.0,0.0,0.0,0.0,0.0,0.0,0.0,0.0,0.0,0.0,0.0,0.0,0.0,0.0,0.0,0.0,0.0,0.0,0.0,0.0,0.0,0.0,0.0,0.0,0.0,0.0,0.0,0.0,0.0,0.0,0.0,0.0,0.0,0.0,0.0,0.0,0.0,-3.8191,-3.8191,-3.8191,-3.8191,-3.8191,-3.8191,-3.8191,-3.8191,-3.8191,-3.8589,-3.9369,-3.8868,-3.8887,-3.9352,-3.9729,-4.0106,-4.0528,-4.1379,-4.3099,-4.5269,-4.5588,-4.5845,-4.6014,-4.552,-4.5035,-4.4615,-4.4615,-4.4615,-4.4615,0.0,0.0,0.0,0.0,0.0,0.0,0.0,0.0,-2.9489,0.0,0.0,0.0,-3.1765,-3.2283,-3.2873,-3.354,-3.3263,-3.3007,-3.2874,-3.2352,-3.2284,-3.2754,-3.3246,0.0,0.0,0.0,0.0,0.0,0.0,0.0,0.0,0.0,0.0,0.0,-3.3766,-3.3716,-3.3076,-3.3386,0.0,0.0,-3.1056,-3.0623,0.0,0.0,0.0,0.0,0.0,-3.2482,-3.3087,0.0,-3.1933,-3.156,0.0,0.0,0.0,0.0,0.0,0.0,-2.7097,0.0,0.0,0.0,0.0,0.0,0.0,0.0,0.0,0.0,0.0,0.0,0.0,0.0,0.0,0.0,0.0,0.0,0.0,0.0,0.0,0.0,0.0,0.0,0.0,0.0,0.0,0.0,-3.7419,-3.7721,-3.8238,-3.8274,-3.8241,-3.8191,-3.8191,-3.8191,-3.8191,-3.8191,-3.8299,-3.8536,-3.777,-3.7603,-3.8044,-3.9022,-3.9684,-4.0178,-4.1829,-4.3281,-4.4476,-4.5132,-4.532,-4.5277,-4.5715,-4.5346,-4.4615,-4.4615,-4.4615,-4.4615,0.0,0.0,0.0,0.0,0.0,0.0,0.0,0.0,-3.0731,0.0,0.0,0.0,-3.2697,-3.3421,-3.3904,-3.4096,-3.3662,-3.3248,-3.2938,-3.2214,-3.191,-3.2073,-3.2602,-3.2653,0.0,0.0,0.0,0.0,0.0,0.0,0.0,0.0,0.0,0.0,0.0,0.0,0.0,0.0,0.0,0.0,-3.0263,0.0,0.0,-3.0546,-3.1686,0.0,0.0,0.0,-3.4755,-3.3012,-3.221,0.0,0.0,0.0,0.0,0.0,0.0,0.0,0.0,0.0,0.0,0.0,0.0,0.0,0.0,-2.6535,0.0,0.0,0.0,0.0,0.0,0.0,0.0,0.0,0.0,0.0,0.0,0.0,0.0,0.0,0.0,0.0,0.0,0.0,0.0,-3.6524,-3.6567,-3.6801,-3.7225,-3.7293,-3.7439,-3.7733,-3.7766,-3.7947,-3.8241,-3.8241,-3.8224,-3.8174,-3.7375,-3.7151,-3.7523,-3.8459,-3.9261,-3.9971,-4.1664,-4.2846,-4.3643,-4.4301,-4.4535,-4.4506,-4.5057,-4.4793,-4.4147,-4.4479,-4.4615,-4.4615,0.0,0.0,0.0,0.0,0.0,0.0,0.0,0.0,0.0,0.0,-3.3041,-3.3352,-3.4268,-3.4855,-3.4973,-3.4407,-3.4199,-3.3835,-3.3214,-3.2283,-3.18,-3.18,-3.2352,-3.2317,0.0,0.0,0.0,0.0,0.0,0.0,0.0,0.0,0.0,0.0,0.0,0.0,0.0,0.0,0.0,-2.9437,-2.8835,-2.992,0.0,0.0,-3.3645,0.0,-3.5164,-3.563,-3.6482,-3.3673,-3.2183,0.0,0.0,0.0,0.0,0.0,-2.9104,0.0,0.0,0.0,0.0,0.0,0.0,0.0,-2.5229,-2.5564,-2.6018,0.0,0.0,0.0,0.0,0.0,0.0,0.0,0.0,0.0,0.0,0.0,0.0,0.0,0.0,0.0,0.0,-3.5398,-3.5596,-3.5627,-3.5716,-3.5783,-3.5706,-3.5841,-3.6235,-3.6926,-3.7098,-3.7499,-3.8162,-3.8271,-3.8274,-3.8191,-3.7486,-3.7262,-3.7468,-3.8148,-3.8967,-3.9912,-4.1248,-4.2193,-4.2842,-4.3288,-4.3543,-4.3711,-4.4014,-4.3818,-4.3477,-4.4282,-4.4615,-4.4615,-3.3785,0.0,0.0,0.0,0.0,0.0,0.0,0.0,0.0,0.0,-3.3889,-3.4387,-3.5732,-3.5456,-3.5387,-3.5835,-3.4786,-3.4303,-3.4731,-3.2904,-3.18,-3.18,-3.1351,-3.0765,-2.9972,0.0,0.0,0.0,0.0,0.0,0.0,0.0,0.0,0.0,0.0,0.0,0.0,0.0,0.0,-2.9558,-3.0023,0.0,-3.2479,-3.1186,-3.1865,-3.3467,-3.3174,-3.3618,-3.4322,0.0,-3.2593,-3.1485,0.0,0.0,0.0,0.0,0.0,0.0,0.0,0.0,0.0,0.0,0.0,0.0,-2.691,-2.7471,-2.8048,0.0,0.0,0.0,0.0,0.0,0.0,0.0,0.0,0.0,0.0,0.0,0.0,0.0,0.0,0.0,0.0,-3.4189,-3.4274,-3.4507,-3.5227,-3.5473,-3.5097,-3.5666,-3.6042,-3.6111,-3.676,-3.7196,-3.7326,-3.8024,-3.8336,-3.8274,-3.7828,-3.7394,-3.7071,-3.8812,-3.9522,-3.9549,-4.173,-4.2546,-4.2338,-4.2456,-4.2619,-4.294,-4.393,-4.3957,-4.3477,-4.4282,-4.4615,-4.4615,-3.3234,0.0,0.0,0.0,0.0,0.0,0.0,0.0,0.0,0.0,0.0,0.0,-3.6215,-3.5973,-3.5904,-3.6284,-3.5283,-3.4628,-3.4628,-3.3214,-3.2179,-3.18,-3.1076,-3.0662,-3.0662,-3.0662,0.0,0.0,0.0,0.0,0.0,0.0,0.0,0.0,0.0,0.0,0.0,0.0,-3.1007,-3.0627,-3.0213,0.0,-3.1054,-3.0261,-3.1136,-3.275,-3.275,-3.299,-3.3299,-3.3299,-3.2818,0.0,0.0,-3.0827,-3.0415,0.0,-2.9607,-2.9298,0.0,0.0,0.0,-2.921,0.0,0.0,0.0,-2.747,-2.7249,0.0,0.0,0.0,0.0,0.0,0.0,0.0,0.0,0.0,0.0,0.0,0.0,0.0,0.0,0.0,0.0,-3.2456,-3.3025,-3.3482,-3.3791,-3.3911,-3.3676,-3.4253,-3.4779,-3.5131,-3.5751,-3.641,-3.7135,-3.7583,-3.7952,-3.829,-3.7721,-3.7412,-3.7354,-3.8993,-3.9684,-3.9711,-4.1697,-4.2418,-4.2175,-4.176,-4.1655,-4.1789,-4.2767,-4.28,-4.2455,-4.3572,-4.4012,-4.4045,-3.2422,0.0,0.0,0.0,0.0,0.0,0.0,0.0,0.0,0.0,0.0,0.0,0.0,0.0,0.0,0.0,-3.5835,-3.5042,0.0,0.0,0.0,-3.1834,-3.1076,-3.0765,-3.0938,-3.0627,0.0,0.0,0.0,0.0,0.0,0.0,0.0,0.0,0.0,0.0,0.0,0.0,0.0,-3.1248,0.0,-2.9506,-2.9886,-2.9558,-3.0677,-3.249,-3.249,-3.2662,-3.2869,-3.2559,0.0,-3.2628,-3.1163,-3.1007,0.0,0.0,0.0,0.0,0.0,0.0,0.0,0.0,0.0,-2.8561,0.0,0.0,0.0,0.0,0.0,0.0,0.0,0.0,0.0,0.0,0.0,0.0,0.0,0.0,0.0,0.0,0.0,0.0,0.0,-3.0961,-3.2051,-3.2561,-3.2514,-3.2502,-3.2666,-3.3019,-3.3542,-3.4247,-3.4724,-3.5542,-3.6739,-3.7067,-3.7494,-3.8069,-3.7721,-3.7681,-3.7972,-3.9339,-4.0052,-4.0279,-4.1669,-4.2236,-4.2092,-4.1333,-4.0873,-4.0786,-4.1533,-4.1569,-4.1425,-4.2746,-4.3254,-4.3328,-3.2016,-3.1681,0.0,0.0,0.0,0.0,0.0,0.0,0.0,0.0,0.0,0.0,0.0,0.0,0.0,0.0,0.0,0.0,-3.8836,0.0,0.0,0.0,0.0,0.0,-2.7833,-2.9006,-2.9006,0.0,0.0,0.0,0.0,0.0,0.0,0.0,-2.8592,0.0,0.0,0.0,-2.9075,0.0,-2.8851,-2.973,0.0,-3.0023,-3.011,-3.0938,-3.0938,-3.18,-3.2697,0.0,-3.18,-3.2628,0.0,-3.0282,-3.0006,0.0,0.0,0.0,0.0,0.0,0.0,0.0,-3.0218,0.0,0.0,0.0,0.0,0.0,0.0,0.0,0.0,0.0,0.0,0.0,0.0,0.0,0.0,0.0,0.0,0.0,0.0,0.0,0.0,0.0,-3.1615,-3.1826,-3.2359,-3.2937,-3.3606,-3.335,-3.3393,-3.3789,-3.4503,-3.4993,-3.5162,-3.6574,-3.7296,-3.7348,-3.831,-3.8797,-3.8833,-4.0448,-4.1205,-4.1262,-4.2158,-4.2313,-4.1881,-4.1265,-4.0765,-4.043,-4.1305,-4.1537,-4.1478,-4.2432,-4.2686,-4.2615,-3.0054,-3.0282,0.0,0.0,0.0,0.0,0.0,0.0,0.0,0.0,0.0,0.0,0.0,0.0,0.0,0.0,0.0,-3.6973,0.0,0.0,0.0,0.0,0.0,0.0,0.0,-3.0317,-2.9661,0.0,-2.8903,0.0,0.0,0.0,0.0,0.0,-2.8385,0.0,-2.8213,0.0,0.0,0.0,0.0,0.0,0.0,-2.9455,-2.9351,-3.0006,-3.0006,-3.0696,-3.1386,0.0,-3.0662,0.0,0.0,0.0,0.0,0.0,0.0,0.0,0.0,0.0,0.0,0.0,0.0,0.0,-2.8596,0.0,-2.7895,0.0,0.0,0.0,0.0,0.0,0.0,0.0,0.0,0.0,0.0,0.0,0.0,0.0,0.0,0.0,0.0,0.0,0.0,0.0,0.0,-3.1338,-3.2143,-3.2421,-3.285,-3.3451,-3.3963,-3.4365,-3.4621,-3.526,-3.5731,-3.599,-3.6737,-3.752,-3.8348,-3.9451,-4.041,-4.1193,-4.1442,-4.1445,-4.1243,-4.0789,-4.0485,-4.0347,-4.0852,-4.0914,-4.0731,-4.1528,-4.1826,-4.192,-2.8512,0.0,0.0,0.0,0.0,0.0,0.0,0.0,0.0,0.0,0.0,0.0,-3.8801,-3.91,0.0,0.0,-4.0008,-3.8836,0.0,0.0,-3.4973,0.0,0.0,0.0,0.0,0.0,0.0,0.0,0.0,0.0,0.0,0.0,0.0,0.0,0.0,-2.8109,-2.7592,0.0,0.0,-2.9661,-2.8558,-2.8765,-2.9679,-2.873,-2.8868,-2.9489,-2.9282,-2.9834,-3.0455,-2.8903,-2.9627,0.0,-2.8972,0.0,0.0,0.0,0.0,0.0,-2.9696,0.0,0.0,0.0,0.0,0.0,0.0,0.0,0.0,0.0,0.0,0.0,0.0,0.0,0.0,0.0,0.0,0.0,0.0,0.0,0.0,0.0,0.0,0.0,0.0,0.0,0.0,0.0,-2.9822,-3.0197,-3.0949,-3.1476,-3.219,-3.3059,-3.325,-3.3595,-3.4078,-3.4222,-3.4442,-3.4779,-3.5395,-3.6531,-3.8098,-3.8722,-3.9849,-4.1299,-4.0866,-4.0701,-4.0655,-4.0035,-3.9773,-3.9832,-4.0182,-4.0153,-4.0034,-4.0832,-4.1154,-4.1273,-2.799,-2.9034,0.0,0.0,0.0,0.0,0.0,0.0,0.0,0.0,0.0,0.0,0.0,0.0,0.0,0.0,0.0,-4.1101,-4.1792,0.0,-3.5283,0.0,0.0,-3.2662,0.0,0.0,0.0,0.0,0.0,0.0,0.0,0.0,0.0,0.0,0.0,-2.8385,-2.8282,-2.6799,-2.6661,-2.7385,-2.7351,-2.7351,-2.7489,0.0,-2.8868,-2.942,-2.8696,0.0,0.0,-2.8903,-2.8937,0.0,0.0,0.0,0.0,0.0,0.0,0.0,0.0,0.0,0.0,-2.973,0.0,0.0,0.0,0.0,-2.8235,0.0,0.0,0.0,0.0,0.0,0.0,0.0,0.0,0.0,0.0,0.0,0.0,0.0,0.0,0.0,0.0,0.0,0.0,-2.9852,-3.0094,-3.0431,-3.0953,-3.0939,-3.1474,-3.2593,-3.2315,-3.2524,-3.3342,-3.3713,-3.3908,-3.3963,-3.5148,-3.67,-3.8605,-3.9065,-4.0347,-4.2124,-4.092,-4.0424,-4.0311,-3.8984,-3.846,-3.854,-3.9166,-3.945,-3.9518,-4.0535,-4.081,-4.0748,0.0,0.0,0.0,0.0,0.0,0.0,0.0,-3.3938,0.0,0.0,0.0,0.0,0.0,0.0,-4.4527,0.0,0.0,-4.3069,-4.2827,-4.0112,0.0,0.0,0.0,-3.587,0.0,0.0,0.0,0.0,0.0,0.0,0.0,0.0,0.0,0.0,0.0,-2.8592,0.0,0.0,0.0,0.0,0.0,-2.8316,-2.873,0.0,0.0,-2.8075,-2.8316,-2.873,0.0,-2.8006,-2.8489,-2.9282,-2.804,-2.8351,-2.9006,-2.8247,-2.8213,0.0,0.0,0.0,-2.8489,-2.873,0.0,0.0,0.0,0.0,0.0,0.0,0.0,0.0,0.0,0.0,0.0,0.0,0.0,0.0,0.0,0.0,0.0,0.0,0.0,0.0,0.0,0.0,0.0,-2.7338,-2.7547,-2.8095,0.0,-3.032,-3.1478,-3.2583,-3.2774,-3.2913,-3.2968,-3.2868,-3.2739,-3.2545,-3.3982,-3.5091,-3.6014,-3.738,-3.8459,-3.9273,-3.9059,-3.8939,-3.8939,-3.8562,-3.8391,-3.846,-3.9284,-3.9617,-3.9686,-4.0381,-4.0655,-4.0704,-2.9728,0.0,0.0,0.0,0.0,0.0,0.0,0.0,0.0,0.0,-4.0584,0.0,-4.5121,0.0,-4.5707,0.0,-4.5699,-4.4449,-4.2896,-4.1378,0.0,-3.8272,-3.8215,0.0,0.0,0.0,0.0,0.0,0.0,-3.0075,0.0,0.0,0.0,0.0,0.0,0.0,0.0,0.0,-2.7799,0.0,0.0,-2.8454,0.0,0.0,-2.8454,-2.8489,0.0,-2.8385,-2.8282,-2.7558,-2.7937,-2.8558,-2.7592,-2.7937,-2.8523,-2.7558,-2.7627,-2.7971,-2.773,-2.7696,0.0,-2.8282,-2.804,0.0,-2.7971,0.0,0.0,0.0,0.0,0.0,0.0,0.0,0.0,0.0,0.0,0.0,0.0,-2.6096,0.0,0.0,0.0,0.0,0.0,0.0,-2.622,-2.6067,-2.6497,-2.6999,0.0,0.0,-3.0839,-3.1815,-3.2298,-3.2525,-3.2601,-3.2283,-3.2002,-3.18,-3.28,-3.3659,-3.4479,-3.5635,-3.6581,-3.7255,-3.745,-3.7523,-3.7523,-3.7612,-3.7634,-3.776,-3.8606,-3.9077,-3.9399,-4.0326,-4.068,-4.0786,0.0,0.0,0.0,0.0,-3.1093,0.0,0.0,0.0,-3.8905,0.0,-4.1895,-4.3897,-4.5397,-4.5535,-4.5811,-4.6596,-4.6631,0.0,-4.2423,-4.2137,0.0,0.0,-3.7685,-3.6615,-3.4337,0.0,0.0,0.0,0.0,0.0,0.0,0.0,0.0,0.0,-3.0317,0.0,-2.7385,-2.8109,-2.7523,-2.6247,-2.704,-2.7799,-2.8523,-2.8523,-2.942,-3.0507,-2.8937,-2.8385,-2.8247,-2.7523,-2.7282,-2.7282,-2.7282,-2.7282,-2.7282,-2.7282,-2.7282,-2.7454,-2.8144,-2.8351,-2.8351,-2.8385,0.0,0.0,0.0,0.0,-2.8352,0.0,0.0,0.0,0.0,0.0,0.0,0.0,0.0,0.0,0.0,0.0,0.0,0.0,0.0,0.0,0.0,-2.6908,-2.6634,-2.6059,-2.6842,0.0,0.0,0.0,-2.9661,-3.046,-3.0901,-3.1494,-3.2283,-3.1966,-3.18,-3.18,-3.1834,-3.2593,-3.3992,-3.4061,-3.4835,-3.6146,-3.618,-3.618,-3.618,-3.618,-3.6215,-3.6318,-3.7133,-3.7927,-3.8767,-4.0308,-4.086,-4.0836,-3.0002,-3.1152,-3.2509,0.0,-3.2743,-3.2421,0.0,0.0,0.0,0.0,-4.3768,-4.5604,-4.7707,-4.7431,-4.7189,-4.7396,-4.6941,0.0,0.0,0.0,0.0,-4.0894,-4.0342,-3.8962,-3.6684,-3.6422,0.0,-3.3233,0.0,0.0,-3.0351,0.0,0.0,0.0,0.0,0.0,-2.8144,-2.8316,-2.7868,-2.704,-2.7799,-2.8903,0.0,0.0,-3.0369,-3.0507,-2.8937,-2.804,-2.7558,-2.7351,-2.7282,-2.7282,-2.7282,-2.7282,-2.7282,-2.7282,-2.7282,-2.7316,-2.7523,-2.7558,-2.7696,-2.8247,-2.8006,-2.7661,0.0,0.0,0.0,0.0,0.0,0.0,0.0,0.0,0.0,0.0,0.0,0.0,0.0,0.0,0.0,-2.8698,0.0,0.0,-2.7024,-2.6544,-2.6212,-2.6083,-2.6297,0.0,0.0,0.0,0.0,-3.046,-3.0917,-3.1546,-3.2283,-3.1966,-3.18,-3.18,-3.2352,-3.2524,-3.2421,-3.3578,-3.3973,-3.38,-3.4387,-3.4663,-3.4663,-3.4663,-3.4993,-3.5559,-3.6318,-3.7422,-3.8698,-3.9664,-4.0008,-4.0008,-3.0962,0.0,0.0,-3.6422,0.0,0.0,-3.6448,0.0,0.0,-4.293,-4.4803,0.0,-4.7672,-4.7493,-4.7217,-4.7217,-4.65,0.0,-4.5147,0.0,0.0,-4.1585,-4.048,-3.8996,-3.7008,-3.6215,0.0,-3.2612,0.0,0.0,-3.0144,0.0,0.0,0.0,0.0,-2.911,0.0,-2.8385,-2.8144,-2.7799,-2.7868,0.0,0.0,-2.9317,-2.9386,-2.9523,-2.8351,-2.7661,-2.7282,-2.7282,-2.7282,-2.7282,-2.7282,-2.7282,-2.7282,-2.7282,-2.7282,-2.7282,-2.7282,-2.7282,-2.7385,-2.7799,-2.7592,-2.742,-2.7833,-2.7902,-2.7902,0.0,0.0,0.0,0.0,0.0,0.0,0.0,0.0,0.0,0.0,0.0,0.0,0.0,0.0,0.0,-2.7089,-2.6402,-2.588,-2.5646,0.0,0.0,0.0,0.0,0.0,-3.0031,-3.1288,-3.1986,-3.2073,-3.2567,-3.2455,-3.18,-3.2214,-3.2214,-3.1834,-3.2697,-3.2835,-3.2455,-3.3248,-3.3559,-3.3628,-3.4283,-3.4835,-3.5318,-3.6387,-3.7353,-3.8146,-3.8617,-3.8939,-3.9215,0.0,0.0,0.0,0.0,0.0,0.0,0.0,-4.082,0.0,-4.3241,0.0,-4.6596,-4.6596,-4.6527,-4.6424,-4.632,0.0,-4.4665,-4.3276,-4.3103,-4.2447,-4.1101,-3.9583,-3.8008,-3.649,-3.5525,0.0,0.0,0.0,0.0,0.0,0.0,0.0,0.0,0.0,0.0,0.0,-2.8247,-2.8247,0.0,-2.7661,-2.7833,-2.8351,-2.7799,-2.7937,-2.8316,-2.7661,-2.7385,-2.7282,-2.7282,-2.7282,-2.7282,-2.7282,-2.7282,-2.7282,-2.7282,-2.7282,-2.7282,-2.7282,-2.7282,-2.7282,-2.7282,-2.7282,-2.7282,-2.7282,-2.7282,-2.7332,-2.742,-2.8454,-2.9213,0.0,0.0,0.0,0.0,0.0,0.0,0.0,0.0,0.0,0.0,0.0,0.0,0.0,-2.6758,0.0,0.0,0.0,0.0,0.0,0.0,0.0,-2.9489,-3.142,0.0,-3.211,0.0,-3.3317,-3.211,-3.211,-3.2007,-3.18,-3.1903,-3.1903,-3.1834,-3.249,-3.2766,-3.2869,-3.4318,-3.5007,-3.5352,-3.6926,-3.7443,-3.7374,-3.7478,-3.7814,-3.8217,0.0,0.0,0.0,0.0,0.0,-4.1396,-4.1527,-4.24,-4.3265,-4.3993,-4.5561,-4.6596,-4.6596,-4.5983,-4.5389,-4.476,-4.4587,0.0,0.0,0.0,0.0,-4.1826,-4.0319,-3.8801,-3.734,-3.5338,-3.3716,0.0,0.0,0.0,0.0,0.0,0.0,0.0,0.0,0.0,-2.7489,-2.7489,0.0,-2.7523,-2.8006,-2.8282,-2.8454,-2.8937,-2.8834,-2.8385,-2.8247,-2.7799,-2.7282,-2.7282,-2.7282,-2.7282,-2.7282,-2.7282,-2.7282,-2.7282,-2.7282,-2.7282,-2.7282,-2.7282,-2.7282,-2.7282,-2.7282,-2.7282,-2.7282,-2.7282,-2.7454,-2.8075,-2.842,-2.8937,-3.0075,0.0,0.0,0.0,0.0,0.0,0.0,0.0,0.0,0.0,0.0,0.0,0.0,0.0,0.0,0.0,0.0,0.0,0.0,0.0,0.0,0.0,-2.9903,0.0,0.0,0.0,-3.3317,-3.3716,-3.3716,-3.3007,-3.18,-3.2421,-3.2386,-3.18,-3.1938,-3.2007,-3.2041,-3.2938,-3.4042,-3.5352,-3.6926,-3.7077,-3.6594,-3.7271,-3.6928,-3.6264,0.0,0.0,0.0,0.0,0.0,0.0,0.0,-4.344,0.0,-4.3795,-4.4722,-4.5389,-4.5389,-4.5044,-4.4699,-4.4345,-4.3966,-4.3414,-4.262,-4.224,-4.1654,-4.0836,-3.9733,0.0,-3.6374,-3.4076,-3.2697,-3.2317,0.0,0.0,0.0,0.0,0.0,0.0,0.0,-2.8075,0.0,0.0,0.0,-2.7868,-2.7833,-2.7833,-2.7868,-2.8213,-2.8144,-2.7833,-2.7833,-2.7592,-2.7282,-2.7282,-2.7282,-2.7282,-2.7282,-2.7282,-2.7282,-2.7282,-2.7282,-2.7282,-2.7282,-2.7282,-2.7282,-2.7282,-2.7282,-2.7282,-2.7282,-2.7592,-2.7971,-2.8316,-2.9041,-2.9799,-3.0558,-3.1007,0.0,0.0,0.0,0.0,0.0,0.0,0.0,0.0,0.0,0.0,0.0,0.0,0.0,0.0,0.0,0.0,0.0,0.0,0.0,0.0,0.0,0.0,0.0,0.0,0.0,-3.349,-3.349,-3.2904,-3.18,-3.2179,-3.2352,-3.2386,-3.2386,-3.2593,-3.3041,-3.38,-3.4766,-3.5835,-3.6594,-3.6628,-3.6331,-3.6439,-3.6117,-3.5689,0.0,-4.0308,0.0,0.0,-4.2724,0.0,-4.2719,-4.3639,-4.4171,-4.363,-4.3985,-4.4354,-4.4285,-4.4311,-4.4173,-4.3828,-4.3276,-4.262,-4.1826,-4.1792,-4.117,-3.9767,-3.8974,-3.7525,-3.5249,-3.311,-3.1869,0.0,0.0,0.0,0.0,0.0,0.0,0.0,0.0,0.0,0.0,0.0,-2.8178,-2.8109,-2.7523,-2.7282,-2.7282,-2.7282,-2.7282,-2.7282,-2.7282,-2.7282,-2.7282,-2.7282,-2.7282,-2.7282,-2.7282,-2.7282,-2.7282,-2.7282,-2.7282,-2.7282,-2.7282,-2.7282,-2.7282,-2.7282,-2.7282,-2.7282,-2.7282,-2.7868,-2.8454,-2.8592,-2.9868,-3.0938,-3.0938,-3.142,0.0,0.0,0.0,0.0,0.0,0.0,0.0,0.0,0.0,0.0,0.0,0.0,0.0,0.0,0.0,0.0,0.0,0.0,0.0,0.0,0.0,-3.2076,-3.3145,0.0,-3.4421,0.0,-3.3386,-3.2904,-3.2041,-3.2041,-3.2352,-3.2904,-3.2731,-3.3214,-3.4165,-3.4924,-3.5628,-3.6284,-3.6178,-3.6135,-3.6092,-3.5633,-3.5351,-3.526,0.0,0.0,0.0,0.0,0.0,0.0,0.0,-4.2285,-4.3739,-4.43,-4.4439,-4.4422,-4.4328,-4.4311,-4.3759,-4.2344,-4.2171,-4.1826,-4.1067,-4.0998,-4.0618,-3.9733,-3.8974,-3.7525,-3.5249,-3.3628,-3.2145,0.0,0.0,0.0,0.0,0.0,0.0,0.0,0.0,0.0,0.0,-2.742,-2.7385,-2.7385,-2.7316,-2.7282,-2.7282,-2.7282,-2.7282,-2.7282,-2.7282,-2.7282,-2.7282,-2.7282,-2.7282,-2.7282,-2.7282,-2.7282,-2.7282,-2.7282,-2.7282,-2.7282,-2.7282,-2.7282,-2.7282,-2.7282,-2.7282,-2.7282,-2.7282,-2.7868,-2.8592,-2.9282,-3.0627,-3.1696,-3.1696,-3.1731,-3.1765,0.0,0.0,0.0,0.0,0.0,0.0,0.0,0.0,0.0,0.0,0.0,0.0,0.0,0.0,0.0,0.0,0.0,0.0,-2.9455,0.0,-3.1853,-3.3992,-3.413,-3.4476,-3.4973,-3.4973,-3.4214,-3.28,-3.28,-3.2835,-3.2869,-3.2179,-3.2731,-3.4165,-3.4924,-3.5628,-3.6241,-3.5832,-3.5677,-3.5611,-3.5052,-3.461,-3.425,0.0,0.0,0.0,0.0,0.0,0.0,0.0,-4.2812,-4.3272,-4.3118,-4.3462,-4.3709,-4.363,-4.3207,-4.2689,-4.2043,-4.1619,-4.1205,-4.0929,-4.0446,-3.9836,-3.9077,-3.8341,-3.6891,-3.4594,-3.3455,-3.2179,0.0,0.0,0.0,0.0,0.0,0.0,0.0,0.0,-2.7799,-2.7937,-2.7489,-2.7282,-2.7282,-2.7282,-2.7282,-2.7282,-2.7282,-2.7282,-2.7282,-2.7282,-2.7282,-2.7282,-2.7282,-2.7282,-2.7282,-2.7282,-2.7282,-2.7282,-2.7282,-2.7282,-2.7282,-2.7282,-2.7282,-2.7282,-2.7282,-2.7282,-2.7282,-2.7282,-2.8213,-2.9144,-2.9455,-3.0731,-3.18,-3.18,-3.18,-3.18,0.0,0.0,0.0,0.0,0.0,0.0,0.0,0.0,0.0,0.0,0.0,0.0,0.0,0.0,0.0,0.0,0.0,0.0,-2.9455,0.0,-3.1317,-3.4096,-3.4096,-3.4268,-3.4545,-3.4993,-3.4145,-3.2283,-3.3179,-3.3869,-3.4283,-3.4456,-3.4835,-3.5401,-3.5424,-3.5603,-3.5832,-3.5305,-3.4877,-3.4464,-3.3919,-3.3355,-3.2781,-4.1229,0.0,-4.1605,0.0,-4.292,-4.2783,-4.2435,-4.2584,-4.2422,-4.1704,-4.2208,-4.2659,-4.2827,-4.2344,-4.193,-4.1723,-4.1205,-4.0791,-4.0584,-4.0008,-3.925,-3.8318,-3.7525,0.0,-3.417,-3.3375,-3.2131,-3.0404,-3.0058,0.0,0.0,0.0,0.0,0.0,-2.7868,-2.7799,-2.804,-2.7523,-2.7282,-2.7282,-2.7282,-2.7282,-2.7282,-2.7282,-2.7282,-2.7316,-2.7558,-2.7489,-2.7316,-2.7558,-2.7489,-2.7282,-2.7282,-2.7282,-2.7282,-2.7282,-2.7282,-2.7282,-2.7282,-2.7282,-2.7282,-2.7282,-2.7282,-2.7282,-2.7282,-2.8454,-2.9627,-3.0075,-3.1041,-3.18,-3.18,-3.18,-3.18,-3.18,0.0,0.0,0.0,0.0,0.0,0.0,-2.8247,-2.7523,-2.7316,0.0,0.0,0.0,0.0,0.0,0.0,0.0,0.0,0.0,0.0,0.0,0.0,-3.3889,-3.4096,-3.4096,-3.4387,-3.3904,-3.2835,-3.3938,-3.4594,-3.4904,-3.587,-3.618,-3.5966,-3.5708,-3.5611,-3.5509,-3.4631,-3.3975,-3.3491,-3.274,-3.2168,-3.1734,-4.204,-4.2071,-4.2043,-4.217,-4.2199,-4.1742,-4.0437,-4.0815,-4.0985,-4.0288,-4.0813,-4.1429,-4.1954,-4.2033,-4.1723,-4.0998,-4.0929,-4.0584,-3.9767,-3.9698,-3.9043,0.0,0.0,-3.5635,-3.4233,-3.3471,-3.1999,-2.9711,0.0,0.0,-2.7316,0.0,-2.8385,-2.8385,-2.8385,-2.7971,-2.7316,-2.7282,-2.7282,-2.7282,-2.7282,-2.7282,-2.7282,-2.7282,-2.7282,-2.7385,-2.8144,-2.7902,-2.742,-2.8144,-2.7902,-2.7282,-2.7282,-2.7282,-2.7282,-2.7282,-2.7282,-2.7282,-2.7282,-2.7282,-2.7282,-2.7282,-2.7282,-2.7282,-2.7282,-2.8454,-2.9937,-3.1455,-3.18,-3.18,-3.18,-3.18,-3.18,-3.18,0.0,0.0,0.0,0.0,0.0,0.0,-2.8385,-2.8109,-2.7351,0.0,0.0,0.0,0.0,0.0,0.0,0.0,0.0,-2.9489,-3.1696,0.0,-3.1834,-3.3337,-3.4096,-3.4096,-3.3283,-3.3697,-3.5145,-3.518,-3.4766,-3.4199,-3.5663,-3.587,-3.5228,-3.5504,-3.5611,-3.5419,-3.3716,-3.3016,-3.2878,-3.1642,-3.1223,-3.1318,-4.1405,-4.1416,-4.154,-4.1993,-4.2046,-4.1928,-4.1503,-4.1669,-4.1626,-4.0927,-4.1024,-4.129,-4.1441,-4.1441,-4.1325,0.0,-4.0608,-4.0238,0.0,-3.8989,-3.8192,-3.7727,-3.6443,-3.5318,-3.4349,-3.3584,-3.2036,-2.9676,0.0,0.0,0.0,-2.9041,-2.8868,-2.8385,-2.8385,-2.8006,-2.7282,-2.7282,-2.7282,-2.7282,-2.7282,-2.7282,-2.7282,-2.7282,-2.7282,-2.7316,-2.7558,-2.7489,-2.7316,-2.7558,-2.7489,-2.7282,-2.7282,-2.7282,-2.7282,-2.7282,-2.7282,-2.7282,-2.7282,-2.7282,-2.7282,-2.7282,-2.7282,-2.7282,-2.7282,-2.804,-2.9317,-3.1386,-3.1386,-3.1041,-3.1041,-3.1041,-3.0869,-3.0317,-3.0248,0.0,0.0,0.0,0.0,0.0,-2.7971,-2.7558,0.0,-2.7282,0.0,0.0,0.0,0.0,0.0,0.0,0.0,0.0,-3.0731,0.0,-3.3371,-3.3317,-3.38,-3.4835,-3.4594,-3.4973,-3.5939,-3.5421,-3.5352,-3.5628,-3.6111,-3.5976,-3.5448,-3.5159,-3.4565,-3.3749,-3.2876,-3.1939,-3.1047,-3.0663,-3.0212,-2.9809,-4.1198,-4.1152,-4.1279,-4.1624,-4.1704,-4.1704,-4.1704,-4.1799,-4.1731,-4.1267,-4.129,-4.1323,-4.1277,-4.13,0.0,-4.1152,-4.0758,-4.0282,-3.9712,-3.8807,-3.8007,-3.7394,-3.6162,-3.5172,-3.4444,0.0,0.0,-2.9743,-2.9555,-2.9228,-2.8729,-2.8988,-2.8834,-2.8385,-2.8385,-2.8144,-2.7696,-2.7435,-2.7282,-2.7282,-2.7282,-2.7282,-2.7282,-2.7282,-2.7282,-2.7316,-2.7592,-2.7523,-2.7316,-2.7627,-2.7523,-2.7282,-2.7282,-2.7282,-2.7282,-2.7282,-2.7282,-2.7282,-2.7282,-2.7282,-2.7282,-2.7282,-2.7282,-2.7351,-2.7661,-2.8282,-2.9213,-3.0627,-3.08,-3.061,-3.0317,-3.0248,-3.0075,-2.9592,-2.9489,-2.942,-2.9144,0.0,0.0,0.0,0.0,0.0,0.0,-2.7282,0.0,0.0,0.0,0.0,0.0,0.0,0.0,-2.9489,-3.0834,0.0,-3.3628,-3.3455,-3.3973,-3.518,-3.549,-3.5697,-3.587,-3.5697,-3.5786,-3.6028,-3.6028,-3.5766,-3.526,-3.4754,-3.4105,-3.3331,-3.2272,-3.1374,-3.0496,-2.999,-2.9516,-2.9146,-4.138,-4.1277,0.0,0.0,-4.1209,0.0,-4.1209,-4.13,-4.1403,-4.1403,-4.1515,-4.156,-4.1426,-4.1503,-4.141,-4.1185,0.0,0.0,0.0,-3.892,-3.8223,-3.6774,-3.5904,-3.5142,-3.4523,-3.3718,-3.2179,-2.9896,-2.8257,-2.7502,-2.7634,-2.8262,-2.8574,-2.8574,-2.8505,-2.8471,-2.8351,-2.7661,-2.7385,-2.7385,-2.742,-2.7454,-2.7454,-2.7385,-2.7385,-2.7454,-2.8109,-2.7868,-2.7385,-2.8075,-2.7868,-2.7282,-2.7282,-2.7282,-2.7282,-2.7282,-2.7282,-2.7282,-2.7282,-2.7282,-2.7282,-2.7282,-2.7282,-2.7489,-2.8213,-2.8937,-2.9455,-2.9489,-3.011,-3.0351,-2.9558,-2.942,-2.942,-2.9351,-2.9351,-2.911,-2.842,0.0,0.0,0.0,0.0,0.0,0.0,-2.7351,-2.7351,0.0,0.0,0.0,0.0,0.0,-3.042,-2.9627,-3.1731,-3.2938,-3.3076,-3.3731,-3.4476,-3.5214,-3.5939,-3.5918,-3.5242,-3.5931,-3.6006,-3.5532,-3.5532,-3.5237,-3.4697,-3.4267,-3.4043,-3.3806,-3.1929,-3.1167,-3.0946,-2.9588,-2.9114,-2.9209,0.0,0.0,-4.13,-4.1232,-4.1209,-4.1209,-4.1209,-4.13,-4.1403,-4.1403,-4.1515,-4.1582,-4.156,-4.1078,-4.0727,-4.0661,-4.0114,-3.9623,-3.9238,-3.8137,-3.7296,-3.6946,-3.5614,-3.4807,-3.4669,-3.3318,-3.1987,-3.0645,-2.964,-2.9417,-3.0006,-3.0162,-3.0231,-3.0197,-2.9642,-2.9021,-2.8385,-2.8213,-2.8144,-2.8178,-2.8765,-2.8972,-2.8937,-2.8351,-2.8144,-2.8075,-2.7696,-2.7454,-2.7332,-2.7489,-2.742,-2.7282,-2.7282,-2.7282,-2.7282,-2.7282,-2.7282,-2.7282,-2.7282,-2.7282,-2.7282,-2.7282,-2.7282,-2.7489,-2.8213,-2.8523,-2.8834,-2.9386,-2.9661,-2.9558,-2.8799,-2.8661,-2.8489,-2.7902,-2.7799,-2.7764,-2.7592,-2.7558,0.0,0.0,-2.7799,-2.7902,-2.7351,-2.7799,-2.7902,0.0,0.0,0.0,0.0,-3.0282,-3.1179,-3.042,-3.2041,-3.3455,-3.4628,-3.4283,-3.4476,-3.5214,-3.5939,-3.6011,-3.5494,-3.5664,-3.5464,-3.4981,-3.4981,-3.4697,-3.4275,-3.4151,-3.3551,-3.2628,-3.1589,-3.0907,-3.0338,-2.943,-2.9114,-2.9114,-4.1515,-4.1493,-4.1471,-4.1391,-4.1368,-4.1368,-4.1368,-4.1448,-4.1493,-4.1493,-4.156,-4.1604,-4.1604,-4.0959,-4.0502,-4.0502,-3.9743,-3.9126,-3.8796,-3.7953,-3.7376,-3.7025,-3.5846,-3.5039,-3.4706,-3.3529,-3.2284,-3.1043,-2.9828,-2.9447,-2.9863,-2.9813,-2.9796,-2.9796,-2.9379,-2.8913,-2.8435,-2.8089,-2.7935,-2.7937,-2.8316,-2.8489,-2.8454,-2.804,-2.7902,-2.7833,-2.742,-2.7282,-2.7282,-2.7282,-2.7282,-2.7282,-2.7282,-2.7282,-2.7282,-2.7282,-2.7282,-2.7282,-2.7282,-2.7282,-2.7282,-2.7282,-2.7282,-2.7385,-2.7799,-2.8144,-2.842,-2.8489,-2.8765,-2.8765,-2.804,-2.7902,-2.7661,-2.6868,-2.704,-2.7178,-2.6799,-2.7075,0.0,-2.7764,-2.8144,-2.8385,-2.8316,-2.8661,-2.873,-2.8351,-2.9006,0.0,-2.9455,-3.1248,-3.1972,-3.1214,-3.2662,-3.4007,-3.518,-3.5145,-3.5318,-3.5697,-3.6111,-3.6049,-3.5611,-3.5611,-3.5168,-3.4488,-3.4488,-3.4193,-3.372,-3.372,-3.3182,-3.2228,-3.1476,-3.078,-3.0109,-2.9367,-2.9114,-2.9114,-4.1604,-4.1604,-4.1604,-4.1604,-4.1604,-4.1604,-4.1604,-4.1604,-4.1604,-4.1604,-4.1604,-4.1604,-4.1604,-4.0832,-4.0327,-4.0327,-3.9463,-3.8725,-3.8164,-3.7883,-3.7461,-3.6849,-3.5952,-3.5179,-3.4512,-3.3722,-3.2669,-3.1336,-2.9787,-2.9092,-2.9136,-2.8917,-2.88,-2.88,-2.88,-2.877,-2.8655,-2.8031,-2.7722,-2.7674,-2.7659,-2.7643,-2.7643,-2.7489,-2.747,-2.747,-2.7382,-2.7297,-2.7297,-2.7297,-2.7297,-2.7282,-2.7282,-2.7282,-2.7282,-2.7282,-2.7282,-2.7282,-2.7282,-2.7282,-2.7282,-2.7282,-2.7282,-2.7316,-2.742,-2.804,-2.8385,-2.7764,-2.8213,-2.8489,-2.7627,-2.7454,-2.7247,-2.6557,-2.6937,-2.7109,-2.6523,0.0,-2.7696,-2.8316,-2.8592,-2.9006,-2.9627,-2.9799,-2.9868,-2.9868,-3.0402,-3.0831,-3.1007,-3.2261,-3.2689,-3.2145,-3.3544,-3.4614,-3.5352,-3.5973,-3.6284,-3.6284,-3.6284,-3.6006,-3.5498,-3.5498,-3.4944,-3.3975,-3.3975,-3.372,-3.3277,-3.3182,-3.2866,-3.2355,-3.1413,-3.0749,-3.0267,-2.9398,-2.9114,-2.9114,-4.1604,-4.1604,-4.1604,-4.1604,-4.1604,-4.1604,-4.1604,-4.1604,-4.1604,-4.1604,-4.1604,-4.1604,-4.1604,-4.034,-3.9498,-3.9498,-3.8164,-3.7567,-3.8058,-3.688,-3.6108,-3.5968,-3.4634,-3.3792,-3.3687,-3.2967,-3.2389,-3.2022,-3.1166,-3.0728,-3.0728,-3.0013,-2.9698,-2.9698,-2.9698,-2.9685,-2.9586,-2.9482,-2.9412,-2.9396,-2.9296,-2.9228,-2.9159,-2.8471,-2.8246,-2.8241,-2.7618,-2.7376,-2.7376,-2.7376,-2.7329,-2.7282,-2.7282,-2.7282,-2.7282,-2.7282,-2.7282,-2.7282,-2.7282,-2.7282,-2.7282,-2.7282,-2.7282,-2.7454,-2.8075,-2.8799,-2.9317,-2.9179,-2.9799,-2.9903,-2.8489,-2.8213,-2.8178,-2.8075,-2.7627,-2.7454,-2.7971,0.0,-2.8282,-2.8385,-2.9558,-3.0386,-3.0489,-3.1076,-3.142,-3.142,-3.1136,-3.1419,-3.2505,-3.2997,-3.3366,-3.3731,-3.4579,-3.5387,-3.6111,-3.6249,-3.6284,-3.6284,-3.6284,-3.5832,-3.4911,-3.4911,-3.4391,-3.3408,-3.3408,-3.3388,-3.3245,-3.2703,-3.2734,-3.2961,-3.109,-3.0622,-3.0907,-2.9588,-2.9114,-2.9114,-4.1534,-4.1604,-4.1604,-4.1604,-4.1604,-4.1604,-4.1604,-4.1604,-4.1604,-4.1604,-4.1253,-4.1007,-4.1007,-3.9603,-3.8634,-3.8634,-3.7637,-3.6954,-3.6845,-3.6178,-3.5792,-3.5792,-3.4318,-3.3301,-3.2915,-3.2581,-3.2388,-3.2301,-3.1531,-3.1162,-3.1127,-2.9919,-2.9358,-2.9323,-2.8903,-2.8681,-2.8622,-2.8622,-2.8606,-2.8575,-2.8492,-2.846,-2.8426,-2.8047,-2.7924,-2.7921,-2.7573,-2.7434,-2.7434,-2.7434,-2.7419,-2.7423,-2.7423,-2.7423,-2.7423,-2.7423,-2.736,-2.7282,-2.7282,-2.7282,-2.7282,-2.7282,-2.7592,-2.7971,-2.8316,-2.8972,-2.9489,-2.9489,-2.9799,-2.9834,-2.911,-2.8661,-2.8385,-2.8385,-2.7764,0.0,0.0,-2.8385,-2.8868,-3.0075,-3.0869,-3.1646,-3.2474,-3.2835,-3.3041,-3.3041,-3.2814,-3.3102,-3.4111,-3.4274,-3.4254,-3.4111,-3.48,-3.5559,-3.6284,-3.6284,-3.6284,-3.6284,-3.6284,-3.5754,-3.4793,-3.4793,-3.4267,-3.3309,-3.3309,-3.3309,-3.3245,-3.2576,-3.2481,-3.2608,-3.0868,-3.0394,-3.0528,-2.9493,-2.9114,-2.9114,-4.1183,-4.1323,-4.1394,-4.1569,-4.1604,-4.1604,-4.1604,-4.1464,-4.1323,-4.1323,-4.0691,-4.0221,-4.0221,-3.8936,-3.8093,-3.8093,-3.7251,-3.6443,-3.5827,-3.5441,-3.5266,-3.5266,-3.3967,-3.2985,-3.2406,-3.2406,-3.2406,-3.2406,-3.1598,-3.1177,-3.1177,-2.9808,-2.907,-2.8895,-2.8438,-2.8127,-2.7912,-2.7912,-2.7882,-2.7801,-2.7596,-2.7526,-2.7526,-2.7511,-2.7511,-2.7526,-2.7526,-2.7526,-2.7526,-2.7526,-2.7511,-2.7496,-2.7496,-2.7496,-2.7496,-2.7496,-2.7423,-2.7313,-2.7313,-2.7297,-2.7316,-2.7523,-2.7971,-2.8489,-2.8834,-2.9386,-2.9834,-3.0006,-3.0041,-2.9972,-2.9799,-2.9317,-2.8937,-2.8937,0.0,0.0,0.0,-2.9075,-2.9834,-3.1593,-3.211,-3.2869,-3.4234,-3.4372,-3.4381,-3.4452,-3.435,-3.4569,-3.5276,-3.5,-3.4569,-3.3971,-3.4588,-3.5242,-3.586,-3.6032,-3.6135,-3.6135,-3.6135,-3.5666,-3.4793,-3.4793,-3.4267,-3.3277,-3.3151,-3.3056,-3.2993,-3.2165,-3.1912,-3.1912,-3.0464,-3.0046,-3.0109,-2.9367,-2.9114,-2.9114,-4.0432,-4.0573,-4.0818,-4.1464,-4.1604,-4.1604,-4.1604,-4.1007,-4.0573,-4.0573,-3.9884,-3.9371,-3.9371,-3.862,-3.8093,-3.8093,-3.674,-3.5862,-3.5792,-3.4459,-3.3687,-3.3687,-3.2932,-3.2476,-3.2406,-3.2406,-3.2406,-3.2406,-3.1598,-3.1177,-3.1177,-3.0369,-2.9632,-2.893,-2.9632,-2.9527,-2.8809,-2.8809,-2.8809,-2.8724,-2.7912,-2.7602,-2.7587,-2.7526,-2.7542,-2.7602,-2.7602,-2.7602,-2.7602,-2.7602,-2.7557,-2.7496,-2.7496,-2.7496,-2.7496,-2.7496,-2.7469,-2.7392,-2.7392,-2.7329,-2.7454,-2.8144,-2.8351,-2.8765,-3.0179,-3.0576,-3.0817,-3.1489,-3.1627,-3.142,-3.0748,-3.0576,-3.0541,-3.0541,0.0,0.0,-3.0438,-3.111,-3.1593,-3.1765,-3.3041,-3.4234,-3.5042,-3.5111,-3.5221,-3.5462,-3.5023,-3.4988,-3.5531,-3.4442,-3.3695,-3.3452,-3.3931,-3.4288,-3.4549,-3.5282,-3.5655,-3.5655,-3.5655,-3.5351,-3.4793,-3.4793,-3.4267,-3.3277,-3.2639,-3.2355,-3.226,-3.09,-3.0717,-3.116,-2.9714,-2.9611,-3.0109,-2.9367,-2.9114,-2.9114,-3.9645,-3.9743,-3.9989,-4.0783,-4.0924,-4.0924,-4.0924,-4.0678,-4.0327,-3.9814,-3.9076,-3.8585,-3.8585,-3.7883,-3.7216,-3.6705,-3.6143,-3.5406,-3.4459,-3.3827,-3.3301,-3.2845,-3.2546,-3.2406,-3.2406,-3.2406,-3.2406,-3.2406,-3.209,-3.1949,-3.1914,-3.1142,-3.0369,-2.9632,-2.9457,-2.8895,-2.8157,-2.8157,-2.8157,-2.8122,-2.7812,-2.7657,-2.7657,-2.7627,-2.7627,-2.7657,-2.7657,-2.7657,-2.7657,-2.7657,-2.7642,-2.7612,-2.7612,-2.7612,-2.7612,-2.7612,-2.7557,-2.7554,-2.8025,-2.8068,-2.804,-2.8316,-2.911,-2.9972,-3.0576,-3.1041,-3.1455,-3.1731,-3.18,-3.1696,-3.142,-3.1007,-3.1025,-3.1903,0.0,-3.0834,-3.2577,-3.2628,-3.2835,-3.38,-3.4421,-3.5076,-3.5801,-3.5617,-3.5482,-3.5599,-3.5098,-3.4688,-3.4509,-3.3438,-3.2795,-3.2733,-3.2897,-3.3237,-3.3783,-3.4087,-3.461,-3.5343,-3.5343,-3.5137,-3.4793,-3.4793,-3.4267,-3.3277,-3.3024,-3.2898,-3.2803,-3.1413,-3.1223,-3.1697,-2.9809,-2.9548,-3.0109,-2.9367,-2.9114,-2.9114,-3.8843,-3.8915,-3.9182,-3.9989,-4.0116,-4.0116,-4.0116,-3.9884,-3.9533,-3.9006,-3.8234,-3.7742,-3.7742,-3.7286,-3.6689,-3.5862,-3.5601,-3.488,-3.3581,-3.3266,-3.2915,-3.2406,-3.2406,-3.2406,-3.2406,-3.216,-3.216,-3.2406,-3.216,-3.216,-3.2371,-3.1844,-3.1036,-3.0088,-2.9527,-2.8825,-2.8052,-2.7806,-2.7841,-2.8052,-2.7806,-2.7701,-2.7701,-2.7701,-2.7701,-2.7701,-2.7701,-2.7701,-2.7701,-2.7701,-2.7701,-2.7701,-2.7701,-2.7701,-2.7701,-2.7672,-2.7772,-2.803,-2.8505,-2.8911,-2.9159,-2.9126,-2.9903,-3.0783,-3.0972,-3.142,-3.18,-3.18,-3.1972,-3.2145,-3.2145,-3.1938,-3.2076,-3.311,-3.2421,-3.2301,-3.3889,-3.38,-3.4007,-3.5076,-3.5387,-3.5732,-3.6249,-3.5876,-3.5543,-3.5351,-3.4864,-3.423,-3.3425,-3.3048,-3.257,-3.1955,-3.178,-3.1974,-3.2479,-3.3186,-3.3943,-3.4751,-3.4968,-3.4992,-3.4793,-3.4658,-3.4118,-3.3277,-3.2835,-3.2645,-3.255,-3.1103,-3.0844,-3.1128,-2.9682,-2.9398,-2.9801,-2.9272,-2.9114,-2.9114,-3.8033,-3.8093,-3.8339,-3.9126,-3.9266,-3.9322,-3.9322,-3.862,-3.8093,-3.8093,-3.7481,-3.6989,-3.6989,-3.6989,-3.6673,-3.5862,-3.5144,-3.4372,-3.3546,-3.2827,-3.2406,-3.2406,-3.2406,-3.2406,-3.2406,-3.1598,-3.1598,-3.2406,-3.1598,-3.1598,-3.2406,-3.2406,-3.1563,-3.0124,-3.0124,-2.9667,-2.886,-2.8052,-2.8157,-2.8825,-2.8017,-2.7701,-2.7701,-2.7701,-2.7701,-2.7701,-2.7701,-2.7701,-2.7701,-2.7701,-2.7701,-2.7701,-2.7701,-2.7701,-2.7686,-2.7632,-2.8176,-2.8771,-2.8711,-2.9775,-3.0872,-3.0715,-3.0714,-3.0903,-3.1627,-3.18,-3.18,-3.18,-3.2386,-3.2904,-3.2904,-3.3559,-3.4096,-3.413,-3.413,-3.413,-3.413,-3.4752,-3.5214,-3.5214,-3.5835,-3.6284,-3.6284,-3.5876,-3.5374,-3.484,-3.4366,-3.3616,-3.2551,-3.3522,-3.3176,-3.1157,-3.0723,-3.0497,-3.0497,-3.2674,-3.3769,-3.3802,-3.4452,-3.4793,-3.4769,-3.4292,-3.3797,-3.3214,-3.1823,-3.1198,-3.1103,-2.9682,-2.9114,-2.9114,-2.9114,-2.9114,-2.9114,-2.9114,-2.9114,-2.9114,-3.7715,-3.7482,-3.7567,-3.8339,-3.8687,-3.8864,-3.8864,-3.8863,-3.869,-3.8151,-3.7648,-3.7339,-3.7339,-3.7129,-3.6463,-3.5144,-3.532,-3.4915,-3.3581,-3.2827,-3.2406,-3.2406,-3.2406,-3.2406,-3.2406,-3.216,-3.216,-3.2406,-3.216,-3.216,-3.2371,-3.1809,-3.1317,-3.0861,-3.0334,-2.9667,-2.8895,-2.8649,-2.8368,-2.8052,-2.7806,-2.7701,-2.7701,-2.7701,-2.7701,-2.7701,-2.7701,-2.7701,-2.7701,-2.7701,-2.7701,-2.7701,-2.7701,-2.7701,-2.7806,-2.8338,-2.8642,-2.9031,-3.0118,-3.0661,-3.0872,-3.0855,-3.1202,-3.1598,-3.1806,-3.182,-3.18,-3.18,-3.2386,-3.2904,-3.2904,-3.3559,-3.4268,-3.4766,-3.4869,-3.5042,-3.5559,-3.5835,-3.5973,-3.5973,-3.618,-3.6156,-3.5854,-3.57,-3.5374,-3.484,-3.4235,-3.3495,-3.2541,-3.2702,-3.2278,-3.1137,-3.0723,-3.0351,-3.0011,-3.0685,-3.1659,-3.2961,-3.2685,-3.3166,-3.4292,-3.3624,-3.334,-3.3245,-3.2386,-3.1975,-3.188,-3.0433,-2.9864,-2.9832,-2.9304,-2.9114,-2.9114,-2.9114,-2.9114,-2.9114,-3.7542,-3.7225,-3.713,-3.7602,-3.789,-3.8067,-3.8217,-3.8402,-3.8383,-3.7915,-3.765,-3.745,-3.7338,-3.7145,-3.6498,-3.5249,-3.5098,-3.457,-3.3299,-3.292,-3.2688,-3.2556,-3.2556,-3.2524,-3.2406,-3.2225,-3.219,-3.2406,-3.209,-3.1914,-3.1914,-3.1423,-3.0861,-3.0264,-2.9808,-2.9351,-2.8895,-2.8544,-2.8333,-2.8157,-2.7841,-2.7701,-2.7701,-2.7701,-2.7701,-2.7701,-2.7701,-2.7701,-2.7736,-2.8052,-2.8157,-2.8228,-2.8544,-2.8438,-2.8333,-2.9141,-2.9565,-2.9954,-3.09,-3.1305,-3.148,-3.148,-3.1969,-3.2505,-3.2817,-3.2866,-3.2898,-3.3209,-3.3751,-3.4209,-3.4367,-3.489,-3.5435,-3.5731,-3.5806,-3.5945,-3.6409,-3.6444,-3.6444,-3.6444,-3.6444,-3.6297,-3.5854,-3.5732,-3.5487,-3.4934,-3.4651,-3.4141,-3.3306,-3.3106,-3.2636,-3.1832,-3.1099,-3.0539,-3.0075,-2.9881,-3.0662,-3.236,-3.1956,-3.242,-3.3615,-3.2707,-3.2347,-3.2424,-3.1754,-3.1469,-3.1374,-3.0243,-2.9769,-2.9706,-2.9272,-2.9114,-2.9114,-2.9114,-2.9114,-2.9114,-3.7505,-3.7225,-3.6989,-3.7029,-3.7068,-3.7206,-3.756,-3.7632,-3.7632,-3.7632,-3.7596,-3.7432,-3.7145,-3.7029,-3.6689,-3.5862,-3.4694,-3.3706,-3.2973,-3.3162,-3.3136,-3.2858,-3.2874,-3.2766,-3.2473,-3.2046,-3.201,-3.2473,-3.17,-3.1332,-3.1332,-3.1229,-3.044,-2.9105,-2.9035,-2.8965,-2.886,-2.8122,-2.8193,-2.8719,-2.7982,-2.7701,-2.7701,-2.7701,-2.7736,-2.7806,-2.7736,-2.7736,-2.7912,-2.8649,-2.8965,-2.9141,-2.9878,-2.9597,-2.9176,-2.9983,-3.0685,-3.1212,-3.1299,-3.1879,-3.2511,-3.2581,-3.3019,-3.3589,-3.4163,-3.4371,-3.458,-3.5262,-3.5814,-3.6241,-3.656,-3.6955,-3.7137,-3.6762,-3.6684,-3.6684,-3.6684,-3.6684,-3.6684,-3.6684,-3.6684,-3.6561,-3.6135,-3.595,-3.5632,-3.5088,-3.5419,-3.5294,-3.445,-3.4281,-3.3835,-3.3041,-3.1808,-3.0986,-3.0618,-3.0022,-3.0461,-3.1843,-3.1778,-3.2134,-3.2822,-3.1635,-3.116,-3.1135,-3.0464,-3.0204,-3.0141,-2.9398,-2.9114,-2.9114,-2.9114,-2.9114,-2.9114,-2.9114,-2.9114,-2.9091,-3.7505,-3.7225,-3.7087,-3.7356,-3.7667,-3.7964,-3.8312,-3.8594,-3.8744,-3.8744,-3.8296,-3.7948,-3.7879,-3.7338,-3.6689,-3.5862,-3.4694,-3.392,-3.3742,-3.345,-3.3276,-3.3166,-3.3451,-3.3437,-3.3111,-3.2746,-3.2746,-3.3096,-3.2668,-3.2433,-3.2433,-3.159,-3.1001,-3.0685,-3.0088,-2.9492,-2.8895,-2.8719,-2.8368,-2.7947,-2.7771,-2.7701,-2.7701,-2.7701,-2.8087,-2.8544,-2.7912,-2.8087,-2.8684,-2.8825,-2.9316,-2.9862,-3.0053,-2.9983,-2.9983,-3.0756,-3.1072,-3.1317,-3.1949,-3.2687,-3.3406,-3.4056,-3.4721,-3.4945,-3.3875,-3.401,-3.4441,-3.4615,-3.567,-3.6414,-3.5884,-3.6817,-3.7471,-3.6824,-3.6684,-3.6684,-3.6684,-3.6684,-3.6684,-3.6684,-3.6684,-3.6485,-3.5994,-3.5808,-3.5688,-3.5464,-3.5898,-3.5643,-3.4472,-3.4761,-3.4628,-3.3835,-3.2313,-3.1453,-3.1369,-2.9974,-2.9711,-3.0593,-2.9997,-3.0378,-3.1554,-3.079,-3.0686,-3.1135,-3.0464,-3.0204,-3.0141,-2.9398,-2.9114,-2.9114,-2.9114,-2.9114,-2.9114,-2.9114,-2.9114,-2.9036,-3.7505,-3.7225,-3.7106,-3.7432,-3.7667,-3.7998,-3.8517,-3.873,-3.8811,-3.8661,-3.8332,-3.7966,-3.7613,-3.7241,-3.6689,-3.5862,-3.5527,-3.5026,-3.4307,-3.4309,-3.4092,-3.3573,-3.3726,-3.3739,-3.3536,-3.3379,-3.3196,-3.3045,-3.2874,-3.2359,-3.1489,-3.0959,-3.0264,-2.9492,-2.9141,-2.8719,-2.8333,-2.8333,-2.8087,-2.7701,-2.7701,-2.7912,-2.8263,-2.8263,-2.8544,-2.8895,-2.886,-2.9351,-2.9983,-2.9983,-3.0264,-3.0685,-3.1072,-3.0931,-3.0791,-3.1563,-3.2019,-3.2335,-3.2371,-3.3213,-3.4091,-3.4126,-3.4969,-3.5687,-3.5228,-3.54,-3.5747,-3.6077,-3.6969,-3.7464,-3.6841,-3.754,-3.7951,-3.7001,-3.6846,-3.6846,-3.6846,-3.6846,-3.6846,-3.6846,-3.6846,-3.669,-3.6367,-3.6015,-3.5898,-3.6006,-3.6178,-3.6006,-3.5361,-3.5229,-3.5007,-3.4648,-3.3194,-3.2159,-3.1601,-3.0474,-2.9821,-2.9674,-2.9272,-2.984,-3.1167,-3.052,-3.0394,-3.0686,-3.0362,-3.0014,-2.9643,-2.9272,-2.9114,-2.9114,-2.9114,-2.9114,-2.9114,-2.9114,-2.9114,-2.9091,-3.7487,-3.7281,-3.7206,-3.7632,-3.7703,-3.7893,-3.8579,-3.867,-3.8548,-3.8234,-3.8135,-3.7844,-3.7184,-3.7029,-3.6638,-3.5706,-3.6201,-3.5917,-3.4392,-3.4907,-3.4845,-3.382,-3.386,-3.3834,-3.3739,-3.3834,-3.3606,-3.306,-3.2937,-3.207,-3.0474,-3.0347,-2.9457,-2.7912,-2.7912,-2.7841,-2.7701,-2.7701,-2.7701,-2.7701,-2.7701,-2.8087,-2.8719,-2.886,-2.9,-2.9211,-2.9878,-3.058,-3.1177,-3.1177,-3.1282,-3.1528,-3.2195,-3.1949,-3.1528,-3.2195,-3.2915,-3.3371,-3.2757,-3.3705,-3.4723,-3.4056,-3.4969,-3.6197,-3.6849,-3.6989,-3.7165,-3.7777,-3.8286,-3.8438,-3.7997,-3.8265,-3.8251,-3.7176,-3.6989,-3.6989,-3.6989,-3.6989,-3.6989,-3.6989,-3.6989,-3.693,-3.6811,-3.6402,-3.6255,-3.6506,-3.6423,-3.636,-3.6339,-3.5773,-3.5407,-3.5387,-3.4079,-3.2923,-3.1999,-3.1248,-3.0398,-2.9461,-2.9461,-2.9998,-3.1033,-3.0559,-3.033,-3.0204,-3.0204,-2.9769,-2.9114,-2.9114,-2.9068,-2.899,-2.9091,-2.9068,-2.899,-2.9091,-2.9114,-2.9114,-3.7432,-3.7469,-3.765,-3.8344,-3.8455,-3.8579,-3.897,-3.9027,-3.8913,-3.8563,-3.83,-3.7948,-3.7469,-3.7167,-3.6427,-3.4969,-3.5414,-3.5121,-3.3559,-3.4023,-3.4216,-3.382,-3.4005,-3.3902,-3.3379,-3.3889,-3.4093,-3.4018,-3.3472,-3.2762,-3.1917,-3.1328,-3.0229,-2.8754,-2.8754,-2.8368,-2.7701,-2.7701,-2.7701,-2.7701,-2.7701,-2.7771,-2.7947,-2.8649,-2.9351,-2.9932,-3.0053,-3.058,-3.1177,-3.1177,-3.1668,-3.2265,-3.2371,-3.2335,-3.2265,-3.2371,-3.2897,-3.3477,-3.3371,-3.4477,-3.5617,-3.5511,-3.6162,-3.6884,-3.6989,-3.6989,-3.7025,-3.713,-3.7702,-3.7962,-3.7286,-3.7702,-3.7927,-3.711,-3.6989,-3.6989,-3.6989,-3.6989,-3.6989,-3.6989,-3.6989,-3.693,-3.6811,-3.6731,-3.6705,-3.6664,-3.6643,-3.6602,-3.6464,-3.6395,-3.6284,-3.6146,-3.4599,-3.3671,-3.3504,-3.1959,-3.1082,-3.0914,-3.0914,-3.0717,-3.0362,-3.0844,-3.0749,-3.0204,-3.0204,-2.9769,-2.9114,-2.9114,-2.8897,-2.8606,-2.8943,-2.8897,-2.8606,-2.8967,-2.9114,-2.9091,-3.7523,-3.7685,-3.7998,-3.8517,-3.8594,-3.87,-3.9041,-3.9082,-3.8984,-3.864,-3.8332,-3.7966,-3.7542,-3.6798,-3.6233,-3.6006,-3.6043,-3.581,-3.5302,-3.5278,-3.5135,-3.4781,-3.4377,-3.4068,-3.3823,-3.4055,-3.4179,-3.4179,-3.3784,-3.3108,-3.219,-3.1383,-3.0374,-2.9174,-2.8684,-2.8179,-2.7736,-2.8193,-2.8368,-2.8403,-2.886,-2.9281,-2.9702,-3.0053,-3.0404,-3.072,-3.072,-3.1212,-3.1879,-3.1879,-3.2371,-3.3003,-3.3003,-3.302,-3.309,-3.3564,-3.3933,-3.4179,-3.4179,-3.5285,-3.6373,-3.5897,-3.6408,-3.6989,-3.6989,-3.6989,-3.6989,-3.6989,-3.7602,-3.7883,-3.713,-3.7602,-3.7848,-3.713,-3.6989,-3.6989,-3.6989,-3.6989,-3.6911,-3.6731,-3.665,-3.6588,-3.6527,-3.643,-3.6506,-3.6664,-3.6684,-3.6664,-3.6623,-3.6241,-3.6079,-3.6199,-3.4889,-3.3999,-3.3594,-3.2563,-3.1752,-3.1198,-3.1634,-3.1444,-3.078,-3.1065,-3.0844,-3.0204,-3.0204,-2.9651,-2.8779,-2.899,-2.885,-2.8535,-2.8943,-2.8967,-2.885,-2.9013,-2.9114,-2.9091]},{"header":{"parameterUnit":"m.s-1","parameterCategory":1,"la1":30.6,"la2":28.766,"lo1":-90.7593,"lo2":-88.6598,"dy":0.0162,"dx":0.0183,"nx":116,"ny":114,"refTime":"2023-08-07T06:00:00:Z","depth":0,"parameterNumber":3,"parameterNumberName":"V-component_of_WINDS"},"data":[0.0,0.0,0.0,0.0,0.0,0.0,0.0,0.0,0.0,0.0,0.0,0.0,0.0,0.0,0.0,0.0,0.0,0.0,0.0,0.0,0.0,0.0,0.0,0.0,0.0,0.0,0.0,0.0,0.0,0.0,0.0,0.0,0.0,0.0,0.0,0.0,0.0,0.0,0.0,0.0,0.0,0.0,0.0,0.0,0.0,0.0,0.0,0.0,0.0,0.0,0.0,0.0,0.0,0.0,0.0,0.0,0.0,0.0,0.0,0.0,0.0,0.0,0.0,0.0,0.0,0.0,0.0,0.0,0.0,0.0,0.0,0.0,0.0,0.0,0.0,0.0,0.0,0.0,0.0,0.0,0.0,0.0,0.0,0.0,0.0,0.0,0.0,0.0,0.0,0.0,0.0,0.0,0.0,0.0,0.0,0.0,0.0,0.0,0.0,0.0,0.0,0.0,0.0,0.0,0.0,0.0,0.0,0.0,0.0,0.0,0.0,0.0,0.0,0.0,0.0,0.0,0.0,0.0,0.0,0.0,0.0,0.0,0.0,0.0,0.0,0.0,0.0,0.0,0.0,0.0,0.0,0.0,0.0,0.0,0.0,0.0,0.0,0.0,0.0,0.0,0.0,0.0,0.0,0.0,0.0,0.0,0.0,0.0,0.0,0.0,0.0,0.0,0.0,0.0,0.0,0.0,0.0,0.0,0.0,0.0,0.0,0.0,0.0,0.0,0.0,0.0,0.0,0.0,0.0,0.0,0.0,0.0,0.0,0.0,0.0,0.0,0.0,0.0,0.0,0.0,0.0,0.0,0.0,0.0,0.0,0.0,0.0,0.0,0.0,0.0,0.0,0.0,0.0,0.0,0.0,0.0,0.0,0.0,0.0,0.0,0.0,0.0,0.0,0.0,0.0,0.0,0.0,0.0,0.0,0.0,0.0,0.0,0.0,0.0,0.0,0.0,0.0,0.0,0.0,0.0,0.0,0.0,0.0,0.0,0.0,0.0,0.0,0.0,0.0,0.0,0.0,0.0,0.0,0.0,0.0,0.0,0.0,0.0,0.0,0.0,0.0,0.0,0.0,0.0,0.0,0.0,0.0,0.0,0.0,0.0,0.0,0.0,0.0,0.0,0.0,0.0,0.0,0.0,0.0,0.0,0.0,0.0,0.0,0.0,0.0,0.0,0.0,0.0,0.0,0.0,0.0,0.0,0.0,0.0,0.0,0.0,0.0,0.0,0.0,0.0,0.0,0.0,0.0,0.0,0.0,0.0,0.0,0.0,0.0,0.0,0.0,0.0,0.0,0.0,0.0,0.0,0.0,0.0,0.0,0.0,0.0,0.0,0.0,0.0,0.0,0.0,0.0,0.0,0.0,0.0,0.0,0.0,0.0,0.0,0.0,0.0,0.0,0.0,0.0,0.0,0.0,0.0,0.0,0.0,0.0,0.0,0.0,0.0,0.0,0.0,0.0,0.0,0.0,0.0,0.0,0.0,0.0,0.0,0.0,0.0,0.0,0.0,0.0,0.0,0.0,0.0,0.0,0.0,0.0,0.0,0.0,0.0,0.0,0.0,0.0,0.0,0.0,0.0,0.0,0.0,0.0,0.0,0.0,0.0,0.0,0.0,0.0,0.0,0.0,0.0,0.0,0.0,0.0,0.0,0.0,0.0,0.0,0.0,0.0,0.0,0.0,0.0,0.0,0.0,0.0,0.0,0.0,0.0,0.0,0.0,0.0,0.0,0.0,0.0,0.0,0.0,0.0,0.0,0.0,0.0,0.0,0.0,0.0,0.0,0.0,0.0,0.0,0.0,0.0,0.0,0.0,0.0,0.0,0.0,0.0,0.0,0.0,0.0,0.0,0.0,0.0,0.0,0.0,0.0,0.0,0.0,0.0,0.0,0.0,0.0,0.0,0.0,0.0,0.0,0.0,0.0,0.0,0.0,0.0,0.0,0.0,0.0,0.0,0.0,0.0,0.0,0.0,0.0,0.0,0.0,0.0,0.0,0.0,0.0,0.0,0.0,0.0,0.0,0.0,0.0,0.0,0.0,0.0,0.0,0.0,0.0,0.0,0.0,0.0,0.0,0.0,0.0,0.0,0.0,0.0,0.0,0.0,0.0,0.0,0.0,0.0,0.0,0.0,0.0,0.0,0.0,0.0,0.0,0.0,0.0,0.0,0.0,0.0,0.0,0.0,0.0,0.0,0.0,0.0,0.0,0.0,0.0,0.0,0.0,0.0,0.0,0.0,0.0,0.0,0.0,0.0,0.0,0.0,0.0,0.0,0.0,0.0,0.0,0.0,0.0,0.0,0.0,0.0,0.0,0.0,0.0,0.0,0.0,0.0,0.0,0.0,0.0,0.0,0.0,0.0,0.0,0.0,0.0,0.0,0.0,0.0,0.0,0.0,0.0,0.0,0.0,0.0,0.0,0.0,0.0,0.0,0.0,0.0,0.0,0.0,0.0,0.0,0.0,0.0,0.0,0.0,0.0,0.0,0.0,0.0,0.0,0.0,0.0,0.0,0.0,0.0,0.0,0.0,0.0,0.0,0.0,0.0,0.0,0.0,0.0,0.0,0.0,0.0,0.0,0.0,0.0,0.0,0.0,0.0,0.0,0.0,0.0,0.0,0.0,0.0,0.0,0.0,0.0,0.0,0.0,0.0,0.0,0.0,0.0,0.0,0.0,0.0,0.0,0.0,0.0,0.0,0.0,0.0,0.0,0.0,0.0,0.0,0.0,0.0,0.0,0.0,0.0,0.0,0.0,0.0,0.0,0.0,0.0,0.0,0.0,0.0,0.0,0.0,0.0,0.0,0.0,0.0,0.0,0.0,0.0,0.0,0.0,0.0,0.0,0.0,0.0,0.0,0.0,0.0,0.0,0.0,0.0,0.0,0.0,0.0,0.0,0.0,0.0,0.0,0.0,0.0,0.0,0.0,0.0,0.0,0.0,0.0,0.0,0.0,0.0,0.0,0.0,0.0,0.0,0.0,0.0,0.0,0.0,0.0,0.0,0.0,0.0,0.0,0.0,0.0,0.0,0.0,0.0,0.0,0.0,0.0,0.0,0.0,0.0,0.0,0.0,0.0,0.0,0.0,0.0,0.0,0.0,0.0,0.0,0.0,0.0,0.0,0.0,0.0,0.0,0.0,0.0,0.0,0.0,0.0,0.0,0.0,0.0,0.0,0.0,0.0,0.0,0.0,0.0,0.0,0.0,0.0,0.0,0.0,0.0,0.0,0.0,0.0,0.0,0.0,0.0,0.0,0.0,0.0,0.0,0.0,0.0,0.0,0.0,0.0,0.0,0.0,0.0,0.0,0.0,0.0,0.0,0.0,0.0,0.0,0.0,0.0,0.0,0.0,0.0,0.0,0.0,0.0,0.0,0.0,0.0,0.0,0.0,0.0,0.0,0.0,0.0,0.0,0.0,0.0,0.0,0.0,0.0,0.0,0.0,0.0,0.0,0.0,0.0,0.0,0.0,0.0,0.0,0.0,0.0,0.0,0.0,0.0,0.0,0.0,0.0,0.0,0.0,0.0,0.0,0.0,0.0,0.0,0.0,0.0,0.0,0.0,0.0,0.0,0.0,0.0,0.0,0.0,0.0,0.0,0.0,0.0,0.0,0.0,0.0,0.0,0.0,0.0,0.0,0.0,0.0,0.0,0.0,0.0,0.0,0.0,0.0,0.0,0.0,0.0,0.0,0.0,0.0,0.0,0.0,0.0,0.0,0.0,0.0,0.0,0.0,0.0,0.0,0.0,0.0,0.0,0.0,0.0,0.0,0.0,0.0,0.0,0.0,0.0,0.0,0.0,0.0,0.0,0.0,0.0,0.0,0.0,0.0,0.0,0.0,0.0,0.0,0.0,0.0,0.0,0.0,0.0,0.0,0.0,0.0,0.0,0.0,0.0,0.0,0.0,0.0,0.0,0.0,0.0,0.0,0.0,0.0,0.0,0.0,0.0,0.0,0.0,0.0,0.0,0.0,0.0,0.0,0.0,0.0,0.0,0.0,0.0,0.0,0.0,0.0,0.0,0.0,0.0,0.0,0.0,0.0,0.0,0.0,0.0,0.0,0.0,0.0,0.0,0.0,0.0,0.0,0.0,0.0,0.0,0.0,0.0,0.0,0.0,0.0,0.0,0.0,0.0,0.0,0.0,0.0,0.0,0.0,0.0,0.0,0.0,0.0,0.0,0.0,0.0,0.0,0.0,0.0,0.0,0.0,0.0,0.0,0.0,0.0,0.0,0.0,0.0,0.0,0.0,0.0,0.0,0.0,0.0,0.0,0.0,0.0,0.0,0.0,0.0,0.0,0.0,0.0,0.0,0.0,0.0,0.0,0.0,0.0,0.0,0.0,0.0,0.0,0.0,0.0,0.0,0.0,0.0,0.0,0.0,0.0,0.0,0.0,0.0,0.0,0.0,0.0,0.0,0.0,0.0,0.0,0.0,0.0,0.0,0.0,0.0,0.0,0.0,0.0,0.0,0.0,0.0,0.0,0.0,0.0,0.0,0.0,0.0,0.0,0.0,0.0,0.0,0.0,0.0,0.0,0.0,0.0,0.0,0.0,0.0,0.0,0.0,0.0,0.0,0.0,0.0,0.0,0.0,0.0,0.0,0.0,0.0,0.0,0.0,0.0,0.0,0.0,0.0,0.0,0.0,0.0,0.0,0.0,0.0,0.0,0.0,0.0,0.0,0.0,0.0,0.0,0.0,0.0,0.0,0.0,0.0,0.0,0.0,0.0,0.0,0.0,0.0,0.0,0.0,0.0,0.0,0.0,0.0,0.0,0.0,0.0,0.0,0.0,0.0,0.0,0.0,0.0,0.0,0.0,0.0,0.0,0.0,0.0,0.0,0.0,0.0,0.0,0.0,0.0,0.0,0.0,0.0,0.0,0.0,0.0,0.0,0.0,0.0,0.0,0.0,0.0,0.0,0.0,0.0,0.0,0.0,0.0,0.0,0.0,0.0,0.0,0.0,0.0,0.0,0.0,0.0,0.0,0.0,0.0,0.0,0.0,0.0,0.0,0.0,0.0,0.0,0.0,0.0,0.0,0.0,0.0,0.0,0.0,0.0,0.0,0.0,0.0,0.0,0.0,0.0,0.0,0.0,0.0,0.0,0.0,0.0,0.0,0.0,0.0,0.0,0.0,0.0,0.0,0.0,0.0,0.0,0.0,0.0,0.0,0.0,0.0,0.0,0.0,0.0,0.0,0.0,0.0,0.0,0.0,0.0,0.0,0.0,0.0,0.0,0.0,0.0,0.0,0.0,0.0,0.0,0.0,0.0,0.0,0.0,0.0,0.0,0.0,0.0,0.0,0.0,0.0,0.0,0.0,0.0,0.0,0.0,0.0,0.0,0.0,0.0,0.0,0.0,0.0,0.0,0.0,0.0,0.0,0.0,0.0,0.0,0.0,0.0,0.0,0.0,0.0,0.0,0.0,0.0,0.0,0.0,0.0,0.0,0.0,0.0,0.0,0.0,0.0,0.0,0.0,0.0,0.0,0.0,0.0,0.0,0.0,0.0,0.0,0.0,0.0,0.0,0.0,0.0,0.0,0.0,0.0,0.0,0.0,0.0,0.0,0.0,0.0,0.0,0.0,0.0,0.0,0.0,0.0,0.0,0.0,0.0,0.0,0.0,0.0,0.0,0.0,0.0,0.0,0.0,0.0,0.0,0.0,0.0,0.0,0.0,0.0,0.0,0.0,0.0,0.0,0.0,0.0,0.0,0.0,0.0,0.0,0.0,0.0,0.0,0.0,0.0,0.0,0.0,0.0,0.0,0.0,0.0,0.0,0.0,0.0,0.0,0.0,0.0,0.0,0.0,0.0,0.0,0.0,0.0,0.0,0.0,0.0,0.0,0.0,0.0,0.0,0.0,0.0,0.0,0.0,0.0,0.0,0.0,0.0,0.0,0.0,0.0,0.0,0.0,0.0,0.0,0.0,0.0,0.0,0.0,0.0,0.0,0.0,0.0,0.0,0.0,0.0,0.0,0.0,0.0,0.0,0.0,0.0,0.0,0.0,0.0,0.0,0.0,0.0,0.0,0.0,0.0,0.0,0.0,0.0,0.0,0.0,0.0,0.0,0.0,0.0,0.0,0.0,-2.1213,0.0,0.0,0.0,0.0,0.0,0.0,0.0,0.0,0.0,0.0,0.0,0.0,0.0,0.0,0.0,0.0,0.0,0.0,0.0,0.0,0.0,0.0,0.0,0.0,0.0,0.0,0.0,0.0,0.0,0.0,0.0,0.0,0.0,0.0,0.0,0.0,0.0,0.0,0.0,0.0,0.0,0.0,0.0,0.0,0.0,0.0,0.0,0.0,0.0,0.0,0.0,0.0,0.0,0.0,0.0,0.0,0.0,0.0,0.0,0.0,0.0,0.0,0.0,0.0,0.0,0.0,0.0,0.0,0.0,0.0,0.0,0.0,0.0,0.0,0.0,0.0,0.0,0.0,0.0,0.0,0.0,0.0,0.0,0.0,0.0,0.0,0.0,0.0,0.0,0.0,0.0,0.0,0.0,0.0,0.0,0.0,0.0,0.0,0.0,0.0,0.0,0.0,0.0,0.0,0.0,0.0,0.0,0.0,0.0,0.0,0.0,0.0,0.0,0.0,0.0,0.0,-2.3331,0.0,0.0,0.0,0.0,0.0,0.0,0.0,0.0,0.0,0.0,0.0,0.0,0.0,0.0,0.0,0.0,0.0,0.0,0.0,0.0,0.0,0.0,0.0,0.0,0.0,0.0,0.0,0.0,0.0,0.0,0.0,0.0,0.0,0.0,0.0,0.0,0.0,0.0,0.0,0.0,0.0,0.0,0.0,0.0,0.0,0.0,0.0,0.0,0.0,0.0,0.0,0.0,0.0,0.0,0.0,0.0,0.0,0.0,0.0,0.0,0.0,0.0,0.0,0.0,0.0,0.0,0.0,0.0,0.0,0.0,0.0,0.0,0.0,0.0,0.0,0.0,0.0,0.0,0.0,0.0,0.0,0.0,0.0,0.0,0.0,0.0,0.0,0.0,0.0,0.0,0.0,0.0,0.0,0.0,0.0,0.0,0.0,0.0,0.0,0.0,0.0,0.0,0.0,0.0,0.0,0.0,0.0,0.0,-2.2967,-2.3368,-2.349,-2.6263,-2.7491,-2.7316,-2.7097,-2.6714,-2.6237,-2.6403,0.0,0.0,0.0,0.0,0.0,0.0,0.0,0.0,0.0,0.0,0.0,0.0,0.0,0.0,0.0,0.0,0.0,0.0,0.0,0.0,0.0,0.0,0.0,0.0,0.0,0.0,0.0,0.0,0.0,0.0,0.0,0.0,0.0,0.0,0.0,0.0,0.0,0.0,-0.5136,-0.5284,-0.5351,-0.5385,0.0,0.0,0.0,0.0,0.0,0.0,0.0,0.0,0.0,0.0,0.0,0.0,0.0,0.0,0.0,0.0,0.0,0.0,0.0,0.0,0.0,0.0,0.0,0.0,0.0,0.0,0.0,0.0,0.0,0.0,0.0,0.0,0.0,0.0,0.0,0.0,0.0,0.0,0.0,0.0,0.0,0.0,0.0,0.0,-1.3802,-1.4875,0.0,0.0,0.0,0.0,0.0,0.0,0.0,0.0,0.0,0.0,0.0,0.0,0.0,-2.1939,-2.3078,-2.5855,-2.6442,-2.496,-2.794,-2.8617,-2.7311,-2.9288,-3.0681,-3.1577,-3.2903,0.0,-2.8327,-2.753,0.0,0.0,0.0,0.0,0.0,0.0,0.0,0.0,0.0,0.0,0.0,0.0,0.0,0.0,0.0,0.0,0.0,0.0,0.0,0.0,0.0,0.0,0.0,0.0,0.0,0.0,0.0,0.0,0.0,0.0,0.0,0.0,0.0,0.0,0.0,0.0,0.0,0.0,0.0,-0.5639,-0.6004,-0.6515,-0.6574,-0.7205,-0.8239,-0.8773,0.0,0.0,0.0,0.0,0.0,0.0,0.0,0.0,0.0,0.0,0.0,0.0,0.0,0.0,0.0,0.0,0.0,0.0,0.0,0.0,0.0,0.0,0.0,0.0,0.0,0.0,0.0,0.0,0.0,0.0,0.0,0.0,0.0,0.0,0.0,0.0,0.0,0.0,0.0,-1.4082,-1.5542,-1.6048,-1.7029,-1.7448,0.0,0.0,0.0,0.0,0.0,0.0,0.0,0.0,0.0,-2.297,-2.4146,-2.5082,-2.5811,-2.8661,-2.9245,-2.77,-3.0202,-3.057,-2.9139,-3.1803,-3.3167,-3.3513,-3.5901,-3.5471,-3.3082,-3.1189,-2.9385,-2.7709,0.0,0.0,0.0,0.0,-2.5566,-2.5625,0.0,0.0,0.0,0.0,0.0,0.0,0.0,0.0,0.0,0.0,0.0,0.0,0.0,0.0,0.0,0.0,0.0,0.0,0.0,0.0,0.0,0.0,0.0,0.0,0.0,0.0,0.0,0.0,0.0,0.0,0.0,0.0,0.0,-0.7203,-0.7346,-0.7678,-0.8166,-0.9497,-0.9494,0.0,0.0,0.0,0.0,0.0,0.0,0.0,0.0,0.0,0.0,0.0,0.0,0.0,0.0,0.0,0.0,0.0,0.0,0.0,0.0,0.0,0.0,0.0,0.0,0.0,0.0,0.0,0.0,0.0,0.0,0.0,0.0,0.0,0.0,0.0,0.0,0.0,0.0,-1.6153,-1.7105,-1.7145,-1.8477,-1.8798,0.0,0.0,0.0,0.0,0.0,0.0,-2.2844,-2.3947,-2.4901,-2.5841,-2.715,-2.8081,-2.8487,-3.0887,-3.1352,-2.9866,-3.168,-3.1647,-3.0145,-3.3523,-3.4813,-3.4513,-3.7482,-3.8144,-3.6934,-3.4121,-3.1934,-3.0254,-2.8867,-2.793,-2.7383,-2.7598,-2.748,-2.7363,0.0,0.0,0.0,0.0,0.0,0.0,0.0,0.0,0.0,0.0,0.0,0.0,0.0,0.0,0.0,0.0,0.0,0.0,0.0,0.0,0.0,0.0,0.0,0.0,0.0,0.0,0.0,0.0,0.0,0.0,0.0,0.0,0.0,0.0,0.0,-0.8674,-0.9418,-0.9162,-0.9023,-0.8974,0.0,0.0,0.0,0.0,0.0,0.0,0.0,0.0,0.0,0.0,0.0,0.0,0.0,0.0,0.0,0.0,0.0,0.0,0.0,0.0,0.0,0.0,0.0,0.0,0.0,0.0,0.0,0.0,0.0,0.0,0.0,0.0,0.0,0.0,0.0,0.0,0.0,0.0,0.0,-1.8437,-2.0414,0.0,0.0,0.0,0.0,-2.1135,-2.2888,-2.4573,-2.5811,-2.7049,-2.8197,-2.9164,-2.9851,-3.051,-3.1139,-3.2896,-3.2927,-3.1212,-3.2943,-3.2618,-3.0483,-3.3836,-3.5207,-3.5063,-3.7897,-3.8906,-3.8223,-3.4805,-3.3086,-3.2461,-3.0742,-3.0039,-2.9961,-2.957,-2.9489,-2.9297,0.0,0.0,0.0,0.0,0.0,0.0,0.0,0.0,0.0,0.0,0.0,0.0,0.0,0.0,0.0,0.0,0.0,0.0,0.0,0.0,0.0,0.0,0.0,0.0,0.0,0.0,0.0,0.0,0.0,0.0,0.0,0.0,0.0,0.0,0.0,0.0,0.0,0.0,-0.9749,-0.912,-0.9478,-0.9076,0.0,0.0,0.0,0.0,0.0,0.0,0.0,0.0,0.0,0.0,0.0,0.0,0.0,0.0,0.0,0.0,0.0,0.0,0.0,0.0,0.0,0.0,0.0,0.0,0.0,0.0,0.0,0.0,0.0,0.0,0.0,0.0,0.0,0.0,0.0,0.0,0.0,-2.0989,-2.2605,0.0,-2.1842,-2.2673,-2.3686,-2.4618,-2.5841,-2.7213,-2.8822,-2.9646,-3.0588,-3.1534,-3.1988,-3.2427,-3.2866,-3.4155,-3.3831,-3.1929,-3.3267,-3.272,-3.0739,-3.4196,-3.56,-3.5398,-3.8631,-3.9648,-3.8848,-3.7051,-3.5586,-3.4355,-3.3164,-3.2187,-3.1445,-3.1348,-3.0898,-3.041,0.0,0.0,0.0,0.0,0.0,0.0,0.0,0.0,0.0,0.0,0.0,0.0,0.0,0.0,0.0,0.0,0.0,0.0,0.0,0.0,0.0,0.0,0.0,0.0,0.0,0.0,0.0,0.0,0.0,0.0,0.0,0.0,0.0,0.0,0.0,0.0,0.0,0.0,0.0,0.0,-1.0124,-0.993,-0.9172,0.0,0.0,0.0,0.0,0.0,0.0,0.0,0.0,0.0,0.0,0.0,0.0,0.0,0.0,0.0,0.0,0.0,0.0,0.0,0.0,0.0,0.0,0.0,0.0,0.0,0.0,0.0,0.0,0.0,0.0,0.0,0.0,0.0,0.0,0.0,-2.2365,-2.2552,-2.4222,-2.4871,-2.3732,-2.4828,-2.6059,-2.7054,-2.8463,-2.9807,-3.1095,-3.1885,-3.2544,-3.3085,-3.3407,-3.3568,-3.3568,-3.4258,-3.3759,-3.212,-3.2859,-3.2655,-3.1798,-3.4701,-3.6178,-3.665,-3.9315,-4.0117,-3.9375,-3.8652,-3.7441,-3.5937,-3.5078,-3.4023,-3.3027,-3.3027,-3.248,-3.1738,0.0,0.0,0.0,0.0,0.0,0.0,0.0,0.0,0.0,0.0,0.0,0.0,0.0,0.0,0.0,0.0,0.0,0.0,0.0,0.0,0.0,0.0,0.0,0.0,0.0,0.0,0.0,0.0,0.0,0.0,0.0,0.0,0.0,0.0,0.0,0.0,0.0,0.0,0.0,0.0,0.0,0.0,-1.0582,0.0,0.0,0.0,0.0,0.0,0.0,0.0,0.0,0.0,0.0,0.0,0.0,0.0,0.0,0.0,0.0,0.0,0.0,0.0,0.0,0.0,0.0,0.0,0.0,0.0,0.0,0.0,0.0,0.0,0.0,0.0,0.0,0.0,-1.9947,-2.2178,-2.3621,-2.306,-2.5291,-2.6079,-2.4174,-2.646,-2.8151,-2.8259,-3.0502,-3.2105,-3.2763,-3.37,-3.408,-3.3773,-3.4066,-3.3919,-3.3276,-3.3171,-3.2763,-3.1812,-3.1798,-3.2378,-3.3347,-3.5106,-3.6877,-3.8609,-3.9912,-4.0197,-3.9863,-3.9375,-3.8437,-3.7226,-3.6387,-3.5508,-3.4707,-3.4707,-3.4141,-3.3281,0.0,0.0,0.0,0.0,0.0,0.0,0.0,0.0,0.0,0.0,0.0,0.0,0.0,0.0,0.0,0.0,0.0,0.0,0.0,0.0,0.0,0.0,0.0,0.0,0.0,0.0,0.0,0.0,0.0,0.0,0.0,0.0,0.0,0.0,0.0,0.0,0.0,0.0,0.0,0.0,0.0,0.0,-1.0818,0.0,0.0,0.0,0.0,0.0,0.0,0.0,0.0,0.0,0.0,0.0,0.0,0.0,0.0,0.0,0.0,0.0,0.0,0.0,0.0,0.0,0.0,0.0,0.0,0.0,0.0,0.0,0.0,0.0,0.0,0.0,0.0,-2.2191,-2.2338,-2.3901,-2.5291,-2.5972,-2.7081,-2.7727,-2.7486,-2.8426,-2.9466,-3.0254,-3.1425,-3.2544,-3.3422,-3.3949,-3.4285,-3.4432,-3.43,-3.4139,-3.3949,-3.348,-3.288,-3.2149,-3.1915,-3.1701,-3.155,-3.3347,-3.5042,-3.678,-3.8048,-3.9089,-3.9844,-3.9062,-3.8184,-3.7266,-3.7031,-3.6016,-3.4707,-3.4707,-3.3965,-3.2851,0.0,0.0,0.0,0.0,0.0,0.0,0.0,0.0,0.0,0.0,0.0,0.0,0.0,0.0,0.0,0.0,0.0,0.0,0.0,0.0,0.0,0.0,0.0,0.0,0.0,0.0,0.0,0.0,0.0,0.0,0.0,0.0,0.0,0.0,0.0,0.0,0.0,0.0,0.0,0.0,0.0,0.0,-1.1663,-1.0873,-1.0415,-1.0166,-0.9872,-0.9959,-1.0166,-0.9864,0.0,0.0,0.0,0.0,0.0,0.0,0.0,0.0,0.0,0.0,0.0,0.0,0.0,0.0,0.0,0.0,0.0,0.0,0.0,0.0,0.0,0.0,0.0,0.0,-2.2767,-2.4396,-2.5064,-2.5785,-2.6547,-2.7348,-2.7856,-2.8318,-2.8571,-2.9102,-2.9802,-3.0808,-3.1525,-3.2335,-3.3405,-3.3649,-3.3911,-3.4285,-3.411,-3.389,-3.3612,-3.3232,-3.2646,-3.1871,-3.1681,-3.1737,-3.1881,-3.2936,-3.4717,0.0,-3.7656,-3.8686,-3.9824,-3.8945,-3.8066,0.0,0.0,0.0,0.0,0.0,-3.3476,-3.2461,0.0,0.0,0.0,0.0,0.0,0.0,0.0,0.0,0.0,0.0,0.0,0.0,0.0,0.0,0.0,0.0,0.0,0.0,0.0,0.0,0.0,0.0,0.0,0.0,0.0,0.0,0.0,0.0,0.0,0.0,0.0,0.0,0.0,0.0,0.0,0.0,0.0,0.0,0.0,0.0,0.0,0.0,-1.2678,-1.1524,-1.1273,-1.1443,-1.0794,-1.0552,-1.0617,-1.0577,0.0,0.0,0.0,0.0,0.0,0.0,0.0,0.0,0.0,0.0,0.0,0.0,0.0,0.0,0.0,0.0,0.0,0.0,0.0,0.0,0.0,0.0,0.0,0.0,-2.4796,-2.6507,-2.7642,-2.7602,-2.7562,-2.7816,-2.8083,-2.8328,-2.8328,-2.8995,-2.9711,-3.0534,-3.1081,-3.1991,-3.3142,0.0,0.0,0.0,0.0,-3.329,-3.2719,-3.2676,-3.2207,-3.1315,-3.1315,-3.1963,-3.3101,-3.3101,-3.5025,-3.8292,-3.7758,-3.8417,-3.9824,-3.8887,-3.7969,-3.707,-3.6211,-3.5391,-3.459,-3.373,-3.293,-3.2226,0.0,0.0,0.0,0.0,0.0,0.0,0.0,0.0,0.0,0.0,0.0,0.0,0.0,0.0,0.0,0.0,0.0,0.0,0.0,0.0,0.0,0.0,0.0,0.0,0.0,0.0,0.0,0.0,0.0,0.0,0.0,0.0,0.0,0.0,0.0,0.0,0.0,0.0,0.0,0.0,0.0,0.0,-1.2556,-1.2028,-1.1784,-1.1687,-1.1395,-1.1663,-1.2109,-1.1817,-1.1776,-1.176,-1.1289,0.0,0.0,0.0,0.0,0.0,0.0,0.0,0.0,0.0,0.0,0.0,0.0,0.0,0.0,0.0,0.0,0.0,0.0,0.0,0.0,-2.4356,-2.5985,-2.7348,-2.8297,-2.8591,-2.8711,-2.8778,-2.8831,-2.8871,-2.8871,-2.969,-3.0361,-3.0755,-3.184,-3.2732,-3.3142,-3.3215,-3.3244,-3.3244,-3.2837,-3.25,-3.2383,-3.212,-3.1754,-3.1315,0.0,0.0,-3.1316,-3.1316,-3.3167,-3.6442,-3.5669,-3.7063,-3.9805,-3.8555,-3.7344,-3.6172,-3.5293,-3.4844,-3.459,-3.373,-3.3105,-3.2617,0.0,0.0,0.0,0.0,0.0,0.0,0.0,0.0,0.0,0.0,0.0,0.0,0.0,0.0,0.0,0.0,0.0,0.0,0.0,0.0,0.0,0.0,0.0,0.0,0.0,0.0,0.0,0.0,0.0,0.0,0.0,0.0,0.0,0.0,0.0,0.0,0.0,0.0,0.0,0.0,0.0,0.0,-1.2661,-1.2304,-1.2117,-1.202,-1.1833,-1.2109,-1.2604,-1.2353,-1.2361,-1.2385,-1.2117,-1.1606,-1.0988,0.0,0.0,0.0,0.0,0.0,0.0,0.0,0.0,0.0,0.0,0.0,0.0,0.0,0.0,-2.016,0.0,0.0,-2.4502,-2.6132,-2.7388,-2.8364,-2.8965,-2.9299,-2.9312,-2.8871,-2.8951,-2.9045,-2.9045,-2.9602,-3.0175,-3.0853,-3.1427,-3.2054,-3.2675,-3.2498,-3.2425,-3.2529,-3.2207,-3.1959,-3.1798,-3.1637,-3.1388,-3.1066,-3.1066,-3.1396,-3.2128,-3.2128,-3.3985,-3.7241,-3.6383,-3.7451,-3.9766,-3.8242,-3.6973,-3.5957,-3.5312,-3.4766,-3.4316,-3.3652,-3.3027,-3.2461,0.0,0.0,0.0,0.0,0.0,0.0,0.0,0.0,0.0,0.0,0.0,0.0,0.0,0.0,0.0,0.0,0.0,0.0,0.0,0.0,0.0,0.0,0.0,0.0,0.0,0.0,0.0,0.0,0.0,0.0,0.0,0.0,0.0,0.0,0.0,0.0,0.0,0.0,0.0,0.0,0.0,0.0,-1.2751,-1.2426,-1.2328,-1.2328,-1.2109,-1.2174,-1.2369,-1.2475,-1.2515,-1.2532,-1.2637,-1.2426,-1.1979,-1.1183,-1.0883,0.0,0.0,0.0,0.0,0.0,0.0,0.0,0.0,0.0,-1.8998,-2.0013,-2.1056,-2.2285,-2.3901,-2.5104,-2.6319,-2.7736,-2.8617,-2.9205,-2.9446,-2.9686,-2.9553,-2.8778,-2.8951,-2.9098,-2.9045,-2.9346,-2.992,-3.0783,-3.0798,-3.1194,-3.212,-3.1845,-3.17,-3.171,-3.1637,-3.1476,-3.1212,-3.1212,-3.1081,-3.0817,-3.0817,-3.1565,-3.2936,-3.3201,-3.5006,-3.7989,-3.7675,-3.833,-3.9394,-3.7832,-3.6777,-3.6094,-3.5586,-3.4902,-3.4141,-3.3711,-3.2969,-3.2229,0.0,0.0,0.0,0.0,0.0,0.0,0.0,0.0,0.0,0.0,0.0,0.0,0.0,0.0,0.0,0.0,0.0,0.0,0.0,0.0,0.0,0.0,0.0,0.0,0.0,0.0,0.0,0.0,0.0,0.0,0.0,0.0,0.0,0.0,0.0,0.0,0.0,0.0,0.0,0.0,0.0,0.0,-1.2572,-1.2377,-1.2402,-1.2491,-1.215,-1.1849,-1.1695,-1.2174,-1.2337,-1.2418,-1.2889,-1.2791,-1.2426,-1.2004,0.0,-1.0351,-1.0493,-1.2224,-1.4276,-1.5736,-1.7276,-1.9172,0.0,0.0,-2.1628,-2.2979,-2.3794,-2.4543,-2.5531,-2.6453,-2.7468,-2.8698,-2.9192,-2.9446,-2.9486,-2.9513,-2.9392,-2.9032,-2.9259,-2.9325,-2.9072,-2.9406,-2.9854,-3.0461,-3.1104,-3.1583,-3.1871,-3.177,-3.1624,-3.1373,-3.1081,-3.092,-3.0876,-3.0876,-3.0861,-3.0817,-3.0817,-3.09,-3.1135,-3.2282,-3.3902,-3.5842,-3.7652,-3.835,-3.8066,-3.7129,-3.668,-3.6523,-3.5703,-3.5078,-3.457,-3.416,-3.3223,-3.2229,0.0,0.0,0.0,0.0,0.0,0.0,0.0,0.0,0.0,0.0,0.0,0.0,0.0,0.0,0.0,0.0,0.0,0.0,0.0,0.0,0.0,0.0,0.0,0.0,0.0,0.0,0.0,0.0,0.0,0.0,0.0,0.0,0.0,0.0,0.0,0.0,0.0,0.0,0.0,0.0,0.0,0.0,-1.284,-1.2564,-1.2312,-1.206,-1.1687,-1.1533,0.0,0.0,-1.1971,-1.2223,-1.2653,-1.254,-1.2182,-1.1825,-1.1354,0.0,-1.2153,-1.4071,0.0,0.0,-1.9625,-2.1871,-2.306,-2.334,-2.3674,-2.481,-2.5504,-2.6172,-2.7149,-2.7682,-2.8323,0.0,-2.9259,-2.9285,-2.9459,-2.9192,-2.8738,-2.8083,-2.827,-2.8604,-2.9005,-2.9206,-2.964,-3.0319,-3.0705,-3.1081,-3.1534,-3.152,-3.1359,-3.1037,-3.089,-3.0817,-3.0817,-3.0817,-3.0817,-3.0817,-3.0817,-3.1212,-3.2068,-3.2563,-3.4084,-3.6308,-3.8175,-3.8418,-3.7539,-3.7187,-3.6738,-3.623,-3.5625,-3.5117,-3.4648,-3.4219,-3.3262,-3.2229,0.0,0.0,0.0,0.0,0.0,0.0,0.0,0.0,0.0,0.0,0.0,0.0,0.0,0.0,0.0,0.0,0.0,0.0,0.0,0.0,0.0,0.0,0.0,0.0,0.0,0.0,0.0,0.0,0.0,0.0,0.0,0.0,0.0,0.0,0.0,0.0,0.0,0.0,0.0,0.0,0.0,0.0,-1.2978,-1.2515,-1.2082,-1.1516,-1.1191,-1.1062,0.0,0.0,-1.1289,-1.1663,-1.2069,-1.2052,-1.1841,-1.1638,-1.1541,-1.1753,-1.2767,0.0,0.0,-1.8314,-2.0941,-2.3327,-2.3877,-2.4609,-2.5344,-2.6146,-2.6666,-2.7203,-2.7846,-2.8167,0.0,-2.9018,-2.9005,-2.9018,-2.9325,-2.8711,-2.803,-2.7455,-2.7215,-2.7415,-2.823,-2.8524,-2.9041,-3.0054,-3.0223,-3.0567,-3.1113,-3.1256,-3.1154,-3.0832,-3.0817,-3.0817,-3.0817,-3.0817,-3.0817,-3.0817,-3.0744,-3.1213,-3.2258,-3.2938,-3.4216,-3.6041,-3.7406,-3.7475,-3.663,-3.64,-3.6158,-3.582,-3.5508,-3.4961,-3.4316,-3.4004,-3.3164,-3.2229,0.0,0.0,0.0,0.0,0.0,0.0,0.0,0.0,0.0,0.0,0.0,0.0,0.0,0.0,0.0,0.0,0.0,0.0,0.0,0.0,0.0,0.0,0.0,0.0,0.0,0.0,0.0,0.0,0.0,0.0,0.0,0.0,0.0,0.0,0.0,0.0,0.0,0.0,0.0,0.0,0.0,0.0,-1.2767,-1.2069,-1.1468,-1.1028,-1.0777,0.0,0.0,0.0,-1.0176,-1.052,-1.1102,-1.1378,0.0,-1.1719,-1.1638,0.0,0.0,0.0,-1.5242,-1.7833,-2.0085,-2.2448,-2.5304,-2.6119,-2.6507,-2.7108,-2.7338,-2.7404,-2.731,-2.7635,-2.8003,-2.8167,-2.843,-2.8724,-2.9005,-2.8043,-2.7402,-2.7655,-2.644,-2.5812,0.0,-2.7241,-2.8273,-2.9411,-2.9789,-3.0255,-3.0778,-3.1139,-3.1154,-3.0832,-3.0817,-3.0817,-3.0817,-3.0817,-3.0817,-3.0817,-3.051,-3.0446,-3.0565,-3.3054,-3.4051,-3.3868,-3.4757,-3.5062,-3.4917,-3.4198,-3.447,-3.541,-3.5391,-3.4609,-3.3457,-3.3437,-3.291,-3.2229,0.0,0.0,0.0,0.0,0.0,0.0,0.0,0.0,0.0,0.0,0.0,0.0,0.0,0.0,0.0,0.0,0.0,0.0,0.0,0.0,0.0,0.0,0.0,0.0,0.0,0.0,0.0,0.0,0.0,0.0,0.0,0.0,0.0,0.0,0.0,0.0,0.0,0.0,0.0,0.0,0.0,0.0,-1.1725,-1.1614,-1.0839,-0.9736,0.0,0.0,0.0,0.0,0.0,0.0,-1.0347,0.0,0.0,-1.0794,-1.1265,-1.1744,0.0,0.0,-1.6247,-1.7679,-2.0582,-2.3411,-2.469,-2.6073,-2.6921,-2.672,-2.6367,-2.6085,-2.5913,-2.565,-2.5916,-2.7481,-2.7635,-2.8016,-2.9019,-2.8476,-2.7649,-2.6754,-2.6551,0.0,0.0,0.0,0.0,-2.8837,-2.9505,-3.005,-3.0734,-3.0934,-3.0934,-3.0832,-3.0817,-3.0817,-3.0817,-3.0612,-3.0612,-3.0817,-3.0276,-2.991,-2.9771,-3.1495,-3.2065,-3.1874,-3.3248,-3.3599,-3.3072,-3.3563,-3.3816,-3.3951,-3.4332,-3.4062,-3.3379,-3.3105,-3.2461,-3.1738,0.0,0.0,0.0,0.0,0.0,0.0,0.0,0.0,0.0,0.0,0.0,0.0,0.0,0.0,0.0,0.0,0.0,0.0,0.0,0.0,0.0,0.0,0.0,0.0,0.0,0.0,0.0,0.0,0.0,0.0,0.0,0.0,0.0,0.0,0.0,0.0,0.0,0.0,0.0,0.0,0.0,0.0,-1.0707,-1.0361,-0.9688,0.0,0.0,0.0,0.0,0.0,0.0,0.0,0.0,0.0,-1.0331,-1.0631,-1.1354,-1.2215,0.0,-1.4551,-1.6572,-1.8622,-2.1162,-2.3504,-2.4968,-2.6281,-2.6827,-2.5812,-2.5439,-2.4966,-2.417,-2.3763,-2.4164,-2.5917,-2.6046,-2.6543,-2.8469,-2.8096,-2.7489,-2.7047,-2.6964,0.0,0.0,0.0,0.0,-2.8603,-2.94,-3.0073,-3.0656,-3.0759,-3.0817,-3.0817,-3.0817,-3.0876,-3.0993,-3.0803,-3.0685,-3.0642,-2.9998,-2.9456,-2.911,-3.05,-3.0662,-2.9864,-3.131,-3.1878,-3.1816,-3.2366,-3.2965,-3.3481,-3.3953,-3.3633,-3.2949,-3.2676,-3.2031,-3.1309,0.0,0.0,0.0,0.0,0.0,0.0,0.0,0.0,0.0,0.0,0.0,0.0,0.0,0.0,0.0,0.0,0.0,0.0,0.0,0.0,0.0,0.0,0.0,0.0,0.0,0.0,0.0,0.0,0.0,0.0,0.0,0.0,0.0,0.0,0.0,0.0,0.0,0.0,0.0,0.0,0.0,0.0,-0.9752,-0.8523,0.0,0.0,0.0,0.0,0.0,0.0,0.0,0.0,0.0,0.0,-1.1062,-1.1248,-1.1939,-1.2881,-1.3945,-1.4627,-1.6095,-2.0507,-2.1749,-2.2665,-2.5873,-2.6653,-2.6199,-2.4449,-2.4378,-2.4011,0.0,0.0,-2.2681,-2.3646,-2.3857,-2.4847,-2.7318,-2.699,-2.6962,0.0,0.0,0.0,0.0,0.0,0.0,-2.8704,0.0,-3.0256,-3.0393,-3.0671,-3.0846,-3.0817,-3.0846,-3.0993,-3.13,-3.13,-3.0949,-3.0372,-2.9661,-2.9032,-2.8432,-2.9975,-2.9623,-2.7937,-2.8899,-3.0004,-3.1107,-3.0566,-3.1727,-3.3959,-3.3984,-3.3223,-3.2129,-3.2129,-3.1601,-3.0937,0.0,0.0,0.0,0.0,0.0,0.0,0.0,0.0,0.0,0.0,0.0,0.0,0.0,0.0,0.0,0.0,0.0,0.0,0.0,0.0,0.0,0.0,0.0,0.0,0.0,0.0,0.0,0.0,0.0,0.0,0.0,0.0,0.0,0.0,0.0,0.0,0.0,0.0,0.0,0.0,0.0,0.0,-0.866,0.0,0.0,0.0,0.0,0.0,0.0,0.0,0.0,0.0,0.0,0.0,-1.1849,-1.2233,0.0,-1.3945,-1.4749,-1.5455,-1.6649,-1.9437,-2.0672,-2.1779,-2.3913,-2.4624,-2.4509,-2.316,-2.2212,-2.1413,0.0,0.0,0.0,-2.3674,-2.5066,0.0,-2.8859,-2.9371,0.0,0.0,0.0,-2.879,-2.825,-2.8962,0.0,0.0,-2.9676,-3.0209,-3.0685,-3.1007,-3.1081,-3.0832,-3.1051,-3.1227,-3.1315,-3.1066,-3.051,-2.9617,-2.9208,-2.8812,-2.8432,-2.8548,-2.8133,-2.7232,-2.7479,-2.811,-2.8964,-2.9312,-3.0389,-3.203,-3.2517,-3.2246,-3.168,-3.168,-3.1348,-3.0898,0.0,0.0,0.0,0.0,0.0,0.0,0.0,0.0,0.0,0.0,0.0,0.0,0.0,0.0,0.0,0.0,0.0,0.0,0.0,0.0,0.0,0.0,0.0,0.0,0.0,0.0,0.0,0.0,0.0,0.0,0.0,0.0,0.0,0.0,0.0,0.0,0.0,0.0,0.0,0.0,0.0,0.0,0.0,0.0,0.0,0.0,0.0,0.0,0.0,0.0,0.0,-1.1151,-1.1549,-1.2158,-1.2774,-1.3308,0.0,-1.4919,-1.5634,-1.675,-1.8291,-2.039,-2.165,-2.2625,-2.3498,-2.365,-2.3088,-2.1271,-2.0451,0.0,0.0,0.0,0.0,0.0,0.0,0.0,-2.8539,-2.9563,-3.0112,0.0,-3.0542,0.0,-2.9698,-3.0056,-3.0217,0.0,-3.0188,-3.0378,-3.0598,-3.1051,-3.1227,-3.1037,-3.1212,-3.1315,-3.1315,-3.0846,-3.0334,-2.9793,-2.9047,-2.8534,-2.8212,-2.7744,-2.7247,-2.6764,0.0,-2.6894,-2.7915,-2.8576,-2.9702,-3.1074,-3.185,-3.1894,-3.1523,-3.1523,-3.125,-3.0898,0.0,0.0,0.0,0.0,0.0,0.0,0.0,0.0,0.0,0.0,0.0,0.0,0.0,0.0,0.0,0.0,0.0,0.0,0.0,0.0,0.0,0.0,0.0,0.0,0.0,0.0,0.0,0.0,0.0,0.0,0.0,0.0,0.0,0.0,0.0,0.0,0.0,0.0,0.0,0.0,0.0,0.0,0.0,0.0,0.0,0.0,0.0,0.0,0.0,0.0,-1.1232,-1.1622,-1.2475,-1.3254,-1.3889,-1.4414,-1.513,-1.5804,-1.6503,-1.8163,-2.0115,-2.1998,-2.32,-2.3891,-2.3793,-2.3086,-2.1854,-1.9328,0.0,0.0,-1.796,0.0,-1.9345,-2.1057,0.0,-2.4437,-2.7686,-2.8959,-3.0129,-3.1622,-3.1827,-3.171,-3.1344,-3.1051,-3.0876,-3.0832,-3.0817,-3.07,-3.0437,-3.0978,-3.1315,-3.1315,-3.1271,-3.1227,-3.1183,-3.0583,-3.0343,-3.0284,-2.8959,-2.8151,-2.7844,-2.7232,-2.6821,-2.6683,0.0,0.0,-2.8075,-2.8564,-2.9616,-3.1002,-3.1799,-3.1894,-3.1601,-3.1601,-3.1328,-3.0976,0.0,0.0,0.0,0.0,0.0,0.0,0.0,0.0,0.0,0.0,-0.8396,0.0,0.0,0.0,0.0,0.0,0.0,0.0,0.0,0.0,0.0,0.0,0.0,0.0,0.0,0.0,0.0,0.0,0.0,0.0,0.0,0.0,0.0,0.0,0.0,0.0,0.0,0.0,0.0,0.0,0.0,0.0,0.0,0.0,0.0,0.0,0.0,0.0,0.0,0.0,-1.2012,-1.2873,-1.3482,-1.4261,-1.5065,-1.561,-1.6064,-1.6519,-1.7096,-1.8576,-2.0394,-2.2071,-2.2732,-2.308,-2.3327,-2.1991,0.0,0.0,0.0,-1.771,-1.7442,-1.8154,0.0,-2.1657,0.0,0.0,0.0,0.0,-3.0876,0.0,0.0,0.0,0.0,0.0,0.0,0.0,0.0,-3.0803,-3.0744,-3.111,-3.1315,-3.1315,-3.1051,-3.0788,-3.0607,-3.0225,-2.9807,-2.9529,-2.852,-2.7932,-2.7844,-2.7013,-2.7038,-2.7795,-2.7389,0.0,-3.0137,-2.9923,-3.0692,-3.1922,-3.1677,-3.1816,-3.2051,-3.2051,-3.1777,-3.1406,0.0,0.0,0.0,0.0,0.0,0.0,0.0,0.0,0.0,0.0,-0.9572,-0.8812,0.0,0.0,0.0,0.0,0.0,0.0,0.0,0.0,0.0,0.0,0.0,0.0,0.0,0.0,0.0,0.0,0.0,0.0,0.0,0.0,0.0,0.0,0.0,0.0,0.0,0.0,0.0,0.0,0.0,0.0,0.0,0.0,0.0,0.0,0.0,0.0,0.0,0.0,-1.1874,-1.2856,-1.3863,-1.4732,-1.5488,-1.6024,-1.6438,-1.6836,-1.7372,-1.9553,-2.1852,-2.2286,-2.3295,-2.3856,-2.2481,0.0,0.0,0.0,0.0,-1.7227,-1.729,0.0,0.0,0.0,0.0,0.0,0.0,0.0,0.0,0.0,0.0,0.0,0.0,0.0,0.0,0.0,0.0,0.0,-3.0817,-3.1139,-3.1315,-3.1315,-3.0993,-3.0671,-3.0431,-2.9851,-2.9442,-2.912,-2.833,-2.7861,-2.7671,-2.7466,-2.7517,-2.7779,-2.8223,0.0,-2.9623,-3.0202,-3.0835,-3.1418,-3.1769,-3.1992,-3.2229,-3.2229,-3.2031,-3.1816,0.0,0.0,0.0,0.0,0.0,0.0,0.0,-1.2324,-1.1663,-1.1492,-1.0627,-0.9714,-0.8914,-0.8625,0.0,0.0,0.0,0.0,0.0,0.0,0.0,0.0,0.0,0.0,0.0,0.0,0.0,0.0,0.0,0.0,0.0,0.0,0.0,0.0,0.0,0.0,0.0,0.0,0.0,0.0,0.0,0.0,0.0,0.0,0.0,0.0,0.0,0.0,0.0,0.0,-1.137,-1.2239,-1.3474,-1.4546,-1.5423,-1.5837,-1.6357,-1.6996,-1.7876,-2.0728,-2.3214,-2.2945,-2.4057,-2.4569,-2.167,-2.0005,0.0,0.0,0.0,-1.6979,-1.7232,0.0,0.0,0.0,0.0,0.0,0.0,0.0,0.0,0.0,0.0,0.0,0.0,0.0,0.0,0.0,0.0,0.0,-3.0817,-3.1066,-3.1168,-3.111,-3.0788,-3.0437,-3.0042,-2.9471,-2.9017,-2.8681,-2.811,-2.7715,-2.7511,-2.7934,-2.7921,-2.7704,-2.9057,0.0,0.0,-3.0591,-3.1176,-3.122,-3.2054,-3.2363,-3.2441,-3.2441,-3.2383,-3.2246,0.0,0.0,0.0,0.0,0.0,0.0,0.0,-1.2696,-1.2158,-1.1953,-1.0993,-1.0158,-0.9592,-0.9364,0.0,0.0,0.0,0.0,0.0,0.0,0.0,0.0,0.0,0.0,0.0,0.0,0.0,0.0,0.0,0.0,0.0,0.0,0.0,0.0,0.0,0.0,0.0,0.0,0.0,0.0,0.0,0.0,0.0,0.0,0.0,0.0,0.0,0.0,0.0,0.0,0.0,-1.1257,-1.1825,-1.3295,-1.4789,-1.4838,0.0,0.0,-1.9429,-2.1668,-2.3523,-2.4368,-2.461,-2.4022,-2.1323,0.0,0.0,0.0,-1.6636,-1.6777,-1.7232,-1.7337,0.0,0.0,0.0,0.0,0.0,0.0,0.0,0.0,0.0,0.0,0.0,0.0,0.0,0.0,0.0,0.0,-3.0817,-3.0846,-3.0744,-3.0534,-3.0129,-2.9647,-2.9032,-2.8695,-2.8282,-2.7961,-2.7686,-2.751,-2.7511,-2.7934,-2.8047,-2.8191,-3.0215,0.0,0.0,-3.2028,-3.2607,-3.2607,-3.2692,-3.2969,-3.3301,-3.3301,-3.3066,-3.2734,0.0,0.0,0.0,0.0,0.0,0.0,0.0,-1.2939,-1.2218,-1.2624,-1.2093,-1.1212,-1.0102,-1.043,-1.0219,0.0,0.0,0.0,0.0,0.0,0.0,0.0,0.0,0.0,0.0,0.0,0.0,0.0,0.0,0.0,0.0,0.0,0.0,0.0,0.0,0.0,0.0,0.0,0.0,0.0,0.0,0.0,0.0,0.0,0.0,0.0,0.0,0.0,0.0,0.0,0.0,0.0,-1.0485,-1.1459,0.0,0.0,-1.5547,-1.7376,-1.8997,-2.1914,-2.439,-2.4306,-2.4225,-2.3514,-2.1203,0.0,0.0,-1.6773,-1.673,-1.6918,-1.7232,-1.7279,-1.7545,0.0,0.0,0.0,0.0,0.0,0.0,0.0,0.0,0.0,0.0,0.0,0.0,0.0,0.0,0.0,-3.0246,-3.0437,-3.0481,-3.0431,-2.9837,-2.9354,-2.89,-2.8593,-2.8183,-2.7656,-2.7539,-2.7276,-2.6939,-2.7733,-2.7842,-2.7566,-2.9319,0.0,0.0,-3.1563,-3.239,-3.3164,-3.3164,-3.3281,-3.3418,-3.3418,-3.332,-3.3144,0.0,0.0,0.0,0.0,0.0,0.0,-1.4797,-1.316,-1.2324,-1.309,-1.2366,-1.1575,-1.0994,-1.0888,-1.0488,-0.9561,0.0,0.0,0.0,0.0,0.0,0.0,0.0,0.0,0.0,0.0,-0.8926,-0.8974,-1.0175,0.0,0.0,0.0,0.0,0.0,0.0,0.0,0.0,0.0,0.0,0.0,0.0,0.0,0.0,0.0,0.0,0.0,0.0,0.0,0.0,0.0,0.0,0.0,0.0,0.0,0.0,0.0,-1.4894,-1.7231,-1.872,-2.184,-2.465,-2.4338,-2.3905,-2.3021,0.0,0.0,0.0,-1.6874,-1.6885,-1.7073,-1.7279,-1.7279,-1.7279,0.0,0.0,0.0,0.0,0.0,0.0,0.0,0.0,0.0,0.0,0.0,0.0,0.0,0.0,0.0,0.0,-3.0064,-3.0056,-3.0056,-2.9617,-2.9134,-2.8622,-2.8403,-2.7978,-2.7335,-2.7232,-2.6954,-2.6557,-2.7501,-2.7447,-2.6656,0.0,0.0,0.0,-3.0809,-3.1899,-3.2829,-3.3228,-3.3418,-3.3418,-3.3418,-3.3418,-3.3359,0.0,0.0,0.0,0.0,0.0,0.0,0.0,-1.3554,-1.2641,-1.3324,-1.1549,-1.083,-1.2469,-1.0536,-0.9631,-1.0981,0.0,0.0,0.0,0.0,0.0,0.0,0.0,0.0,0.0,0.0,-0.9177,-0.9396,-1.0581,-1.1588,-1.2288,0.0,0.0,0.0,0.0,0.0,0.0,0.0,0.0,0.0,0.0,0.0,0.0,0.0,0.0,0.0,0.0,0.0,0.0,0.0,0.0,0.0,0.0,0.0,0.0,0.0,-1.3446,-1.6479,-1.8939,-2.1544,-2.3861,-2.4849,-2.3981,-2.2405,0.0,0.0,0.0,-1.7085,-1.6979,-1.7073,-1.7279,-1.7279,-1.7279,-1.7279,0.0,0.0,0.0,0.0,0.0,0.0,0.0,0.0,0.0,0.0,0.0,0.0,0.0,0.0,0.0,-2.9559,-2.9383,-2.9383,-2.9383,-2.8915,-2.7888,-2.7888,-2.7627,-2.6983,-2.6676,-2.6515,-2.6557,-2.7254,-2.6808,0.0,0.0,0.0,0.0,-3.0142,-3.1322,-3.1451,-3.2829,-3.3418,-3.3418,-3.3418,-3.3418,-3.3359,0.0,0.0,0.0,0.0,0.0,0.0,0.0,-1.3404,-1.2847,-1.2178,-1.2326,-1.2357,-1.2049,-1.1513,-1.1093,-1.0706,0.0,0.0,0.0,0.0,0.0,0.0,0.0,0.0,0.0,0.0,-0.9681,-1.0906,-1.2004,-1.3166,-1.4307,-1.4862,-1.5105,0.0,0.0,0.0,0.0,0.0,0.0,0.0,0.0,0.0,0.0,0.0,0.0,0.0,0.0,0.0,0.0,0.0,0.0,0.0,0.0,0.0,0.0,0.0,0.0,0.0,-1.8192,-2.0362,-2.2212,-2.2098,-2.1269,-2.0268,-1.9217,0.0,-1.7158,-1.7042,-1.6979,-1.7073,-1.7279,-1.7279,-1.7399,-1.7618,0.0,0.0,0.0,0.0,0.0,0.0,0.0,0.0,0.0,0.0,0.0,0.0,0.0,0.0,0.0,-2.8666,-2.8827,-2.9032,-2.8842,-2.8373,-2.7642,-2.7627,-2.7305,-2.6661,-2.6559,-2.6747,-2.7254,-2.7516,0.0,0.0,0.0,0.0,0.0,-2.9117,-3.0401,-3.1286,-3.1474,-3.2137,-3.2969,-3.2676,-3.2559,-3.2539,0.0,0.0,0.0,0.0,0.0,0.0,0.0,-1.3373,-1.2904,-1.2118,-1.2276,-1.2572,-1.2853,-1.187,-1.1155,-1.1135,0.0,0.0,0.0,0.0,0.0,0.0,0.0,0.0,0.0,-0.9194,-1.0083,-1.1766,-1.2819,-1.4095,-1.5533,-1.6392,-1.6486,-1.5931,-1.5059,0.0,0.0,0.0,0.0,0.0,0.0,0.0,-0.5872,0.0,0.0,0.0,0.0,0.0,0.0,0.0,0.0,0.0,0.0,0.0,0.0,0.0,-1.4934,0.0,0.0,-1.9079,-2.0775,-2.0307,-1.9613,0.0,0.0,0.0,-1.7044,-1.7127,-1.7106,-1.7153,-1.7279,-1.7279,-1.7352,-1.7604,0.0,0.0,0.0,0.0,0.0,0.0,0.0,0.0,0.0,0.0,0.0,0.0,0.0,0.0,0.0,-2.8037,-2.811,-2.8169,-2.8227,-2.7949,-2.7305,-2.7291,-2.6969,-2.6325,-2.6743,-2.6876,-2.6808,-2.7212,0.0,0.0,0.0,0.0,0.0,-2.8592,-2.9942,-3.1129,-3.1395,-3.1932,-3.2519,-3.2266,-3.2229,-3.2148,0.0,0.0,0.0,0.0,0.0,0.0,0.0,0.0,0.0,0.0,-1.1753,-1.1854,-1.4397,-1.1645,-1.0297,0.0,0.0,0.0,0.0,0.0,0.0,0.0,0.0,0.0,-0.9396,-0.9388,-1.0288,-1.2226,-1.3162,-1.4509,-1.6201,-1.7238,-1.7221,-1.638,-1.6046,-1.5072,0.0,0.0,0.0,0.0,0.0,-0.7377,0.0,0.0,0.0,0.0,0.0,0.0,0.0,0.0,0.0,0.0,0.0,0.0,0.0,0.0,0.0,0.0,0.0,0.0,0.0,0.0,0.0,0.0,0.0,0.0,0.0,-1.7214,-1.7235,-1.722,-1.7296,-1.7296,-1.7311,0.0,0.0,0.0,0.0,0.0,0.0,0.0,0.0,0.0,0.0,0.0,0.0,0.0,0.0,0.0,0.0,-2.7569,-2.7261,-2.6925,-2.7495,-2.7525,-2.6925,-2.6925,-2.6603,-2.5974,-2.6962,-2.6793,-2.5614,-2.661,0.0,0.0,0.0,0.0,0.0,-2.8639,-2.9795,-3.0806,-3.2076,-3.24,-3.2129,-3.215,-3.2131,-3.2031,0.0,0.0,0.0,0.0,0.0,0.0,0.0,0.0,0.0,0.0,0.0,-1.2296,-1.3185,-1.1642,0.0,0.0,0.0,0.0,0.0,0.0,0.0,0.0,0.0,0.0,-0.9396,-0.9226,-1.0497,-1.3233,-1.395,-1.5517,-1.7948,-1.8393,-1.8263,-1.7543,-1.6834,-1.5057,0.0,0.0,0.0,0.0,-0.8299,-0.7767,0.0,0.0,0.0,0.0,-0.7369,-0.7731,0.0,0.0,0.0,0.0,0.0,0.0,0.0,0.0,-1.4597,-1.5337,-1.5511,0.0,-1.67,0.0,0.0,0.0,0.0,0.0,0.0,0.0,0.0,0.0,0.0,0.0,0.0,0.0,0.0,0.0,0.0,0.0,0.0,0.0,0.0,0.0,0.0,0.0,0.0,0.0,0.0,0.0,0.0,-2.6778,-2.6588,-2.6252,-2.6398,-2.6398,-2.6252,-2.6252,-2.6047,-2.5637,-2.5909,-2.6262,-2.6729,-2.6783,0.0,0.0,0.0,0.0,-2.6423,-2.8898,-3.0039,-3.0241,-3.0193,-3.0816,-3.1641,-3.1309,-3.1191,-3.1172,0.0,0.0,0.0,0.0,0.0,0.0,0.0,0.0,0.0,0.0,0.0,0.0,0.0,0.0,0.0,0.0,0.0,0.0,0.0,0.0,0.0,0.0,0.0,0.0,-0.9396,-0.9914,-1.1403,-1.4022,-1.4984,-1.6612,-1.8891,-1.9052,-1.8664,-1.7782,-1.662,-1.4823,-1.2574,-1.1864,-1.0858,-0.9702,-0.8816,0.0,0.0,0.0,0.0,0.0,-0.804,-0.8556,0.0,-1.0057,-1.076,-1.1267,0.0,0.0,0.0,0.0,-1.4546,-1.5026,-1.5113,-1.5467,-1.5792,-1.5785,-1.5994,-1.6292,0.0,0.0,0.0,0.0,0.0,0.0,0.0,0.0,0.0,0.0,0.0,0.0,0.0,0.0,0.0,0.0,0.0,0.0,0.0,0.0,0.0,0.0,0.0,0.0,0.0,-2.6135,-2.5974,-2.5798,-2.5652,-2.5652,-2.5798,-2.5798,-2.5637,-2.5315,-2.5914,-2.646,-2.6849,-2.6724,-2.6939,0.0,0.0,0.0,-2.8009,-2.9511,-3.0346,-3.0709,-3.0483,-3.0713,-3.1211,-3.0976,-3.0898,-3.0898,0.0,0.0,0.0,0.0,0.0,0.0,0.0,0.0,0.0,0.0,0.0,0.0,0.0,0.0,0.0,0.0,0.0,0.0,0.0,0.0,0.0,0.0,0.0,-0.8999,-0.9437,-1.0642,-1.2304,-1.4404,-1.5825,-1.7515,-1.943,-1.9564,-1.8838,-1.7462,-1.6166,-1.463,-1.2977,-1.2608,-1.1625,-1.0343,-0.9555,0.0,0.0,0.0,0.0,0.0,0.0,0.0,0.0,-1.1277,-1.1813,-1.2225,-1.3083,0.0,0.0,0.0,0.0,0.0,-1.4982,-1.5436,-1.5947,-1.6054,-1.6395,-1.6732,0.0,0.0,0.0,0.0,0.0,0.0,0.0,0.0,0.0,0.0,0.0,0.0,0.0,0.0,0.0,0.0,0.0,0.0,0.0,0.0,0.0,0.0,0.0,0.0,0.0,-2.5564,-2.5359,-2.5315,-2.5052,-2.5037,-2.5301,-2.5359,-2.5227,-2.4973,-2.608,-2.6572,-2.6435,-2.6501,-2.7002,0.0,0.0,0.0,-2.9947,-3.015,-3.0694,-3.1426,-3.1426,-3.1211,-3.0898,-3.0898,-3.0898,-3.0898,0.0,0.0,0.0,0.0,0.0,0.0,0.0,0.0,0.0,0.0,0.0,0.0,0.0,0.0,0.0,0.0,0.0,0.0,0.0,0.0,0.0,0.0,-0.8763,-0.9064,-0.9575,-1.0346,-1.1823,-1.4015,-1.592,-1.7704,-1.9444,-2.0194,-1.9363,-1.7246,-1.6714,-1.5184,-1.3009,-1.3004,-1.236,-1.1295,-1.0225,0.0,0.0,0.0,0.0,0.0,0.0,0.0,0.0,-1.1497,-1.2047,-1.264,-1.2941,0.0,0.0,0.0,0.0,0.0,-1.5333,-1.5979,-1.6322,-1.5627,-1.6206,-1.6895,0.0,0.0,0.0,0.0,0.0,0.0,0.0,0.0,0.0,0.0,0.0,0.0,0.0,0.0,0.0,0.0,0.0,0.0,0.0,0.0,0.0,0.0,0.0,0.0,0.0,0.0,-2.4598,-2.4305,-2.4262,-2.4262,-2.4305,-2.4583,-2.4554,-2.4232,-2.4479,-2.51,-2.6055,-2.5818,-2.6398,0.0,0.0,-2.8685,-2.9163,-3.0289,-3.0859,-3.0996,-3.0996,-3.0937,-3.0898,-3.0898,-3.0898,-3.0898,0.0,0.0,0.0,0.0,0.0,0.0,0.0,0.0,0.0,0.0,0.0,0.0,0.0,0.0,0.0,0.0,0.0,0.0,0.0,0.0,0.0,-0.889,-0.9015,-0.9226,-0.9478,-1.1231,-1.2978,-1.4593,-1.706,-1.879,-1.9826,-1.9599,-1.8571,-1.6887,-1.6273,-1.5121,-1.3582,-1.3096,-1.262,-1.2088,0.0,0.0,0.0,0.0,0.0,0.0,0.0,0.0,0.0,0.0,-1.2903,-1.3434,-1.3366,0.0,0.0,0.0,0.0,0.0,-1.5177,-1.5789,-1.6165,-1.5793,-1.6579,-1.7346,0.0,0.0,0.0,0.0,0.0,0.0,0.0,0.0,0.0,0.0,0.0,0.0,0.0,0.0,0.0,0.0,0.0,0.0,0.0,0.0,0.0,0.0,0.0,0.0,0.0,0.0,-2.4232,-2.4086,-2.4086,-2.3998,-2.3823,-2.3793,-2.3881,-2.4086,-2.4086,-2.4694,-2.5692,-2.5596,-2.6525,-2.8275,0.0,-2.9294,-3.002,-3.0645,-3.0898,-3.0898,-3.0898,-3.0898,-3.0898,-3.0898,-3.0898,-3.0898,0.0,0.0,0.0,0.0,0.0,0.0,0.0,0.0,0.0,0.0,0.0,0.0,0.0,0.0,0.0,0.0,0.0,0.0,0.0,0.0,-1.0137,-0.9385,-0.9763,-1.001,-1.0083,-1.2362,-1.4186,-1.5592,-1.8072,-1.9533,-2.0013,-1.8971,-1.7822,-1.6567,-1.5752,-1.491,-1.4053,-1.3425,-1.3114,-1.2966,0.0,0.0,0.0,0.0,0.0,0.0,0.0,0.0,0.0,0.0,0.0,0.0,0.0,0.0,0.0,-1.4572,-1.4601,-1.4726,-1.5061,-1.5576,-1.5964,-1.5964,0.0,0.0,0.0,0.0,0.0,0.0,0.0,0.0,0.0,0.0,0.0,0.0,0.0,0.0,0.0,0.0,0.0,0.0,0.0,0.0,0.0,0.0,0.0,0.0,0.0,0.0,0.0,0.0,-2.394,-2.3852,-2.3779,-2.3618,-2.3369,-2.3047,-2.3179,-2.3735,-2.3676,-2.4182,-2.5153,-2.5153,-2.6277,-2.8215,-2.8215,-2.8957,-3.018,-3.0277,-3.049,-3.0723,-3.0723,-3.0723,-3.0742,-3.0859,-3.0898,-3.0898,0.0,0.0,0.0,0.0,0.0,0.0,0.0,0.0,0.0,0.0,0.0,0.0,0.0,0.0,0.0,0.0,0.0,0.0,0.0,0.0,-1.0888,-1.0173,-1.1089,-1.1775,-1.2097,-1.309,-1.4628,-1.6682,-1.8233,-1.9118,-1.9412,-1.8784,-1.7702,-1.6273,-1.5671,-1.491,-1.4108,-1.4289,-1.4249,-1.3939,-1.3237,0.0,0.0,0.0,0.0,0.0,0.0,0.0,0.0,0.0,0.0,0.0,0.0,0.0,-1.4446,-1.492,-1.4834,-1.4703,-1.5226,-1.5644,-1.5907,-1.5907,0.0,0.0,0.0,0.0,0.0,0.0,0.0,0.0,0.0,0.0,0.0,0.0,0.0,0.0,0.0,0.0,0.0,0.0,0.0,0.0,0.0,0.0,0.0,0.0,0.0,0.0,0.0,0.0,0.0,-2.3193,-2.2886,-2.271,-2.2696,-2.2403,-2.2418,-2.2725,-2.2447,-2.3006,-2.4193,-2.4193,-2.4926,-2.6192,-2.6192,-2.6885,-2.8066,-2.8436,-2.9239,-3.0254,-3.0254,-3.0254,-3.0293,-3.0723,-3.0898,-3.0898,0.0,0.0,0.0,0.0,0.0,0.0,0.0,0.0,0.0,0.0,0.0,0.0,0.0,0.0,0.0,0.0,0.0,0.0,0.0,0.0,-1.1772,-1.0433,-1.1621,-1.2571,-1.3081,-1.4344,-1.5624,-1.7037,-1.8648,-1.9439,-1.9403,-1.8571,-1.7622,-1.6513,-1.5738,-1.511,-1.466,-1.4362,-1.4402,-1.4603,-1.4004,-1.3962,0.0,0.0,0.0,0.0,0.0,0.0,0.0,0.0,-1.3283,-1.3741,0.0,0.0,-1.4849,-1.5047,-1.4943,-1.4848,-1.5005,-1.5323,-1.5657,-1.5862,0.0,0.0,0.0,0.0,0.0,0.0,0.0,0.0,0.0,0.0,0.0,0.0,0.0,0.0,0.0,0.0,0.0,0.0,0.0,0.0,0.0,0.0,0.0,0.0,0.0,0.0,0.0,0.0,0.0,-2.2535,-2.2418,-2.2345,-2.2345,-2.1832,-2.1628,-2.1745,-2.2037,-2.2468,-2.293,-2.3728,-2.4359,-2.4886,-2.6451,-2.7368,-2.7842,-2.8748,-2.939,-2.9805,-2.9805,-2.9805,-2.9824,-3.0,-3.0234,-3.043,0.0,0.0,0.0,0.0,0.0,0.0,0.0,0.0,0.0,0.0,0.0,0.0,0.0,0.0,0.0,0.0,0.0,0.0,0.0,-1.3306,-1.2768,-1.1466,-1.2656,-1.3499,-1.3813,-1.5314,-1.6527,-1.7447,-1.873,-1.9185,-1.8841,-1.855,-1.8036,-1.7258,-1.6758,-1.6278,-1.5781,-1.5113,-1.484,-1.4834,-1.4763,-1.4572,0.0,0.0,0.0,0.0,0.0,0.0,0.0,0.0,-1.3227,0.0,0.0,0.0,0.0,0.0,-1.4921,-1.475,-1.4506,-1.4754,-1.5174,0.0,0.0,0.0,0.0,0.0,0.0,0.0,0.0,0.0,0.0,0.0,0.0,0.0,0.0,0.0,0.0,0.0,0.0,0.0,0.0,0.0,0.0,0.0,0.0,0.0,0.0,0.0,0.0,0.0,0.0,0.0,-2.1979,-2.1876,-2.1876,-2.1233,-2.0896,-2.0911,-2.135,-2.1569,-2.1627,-2.2467,-2.2855,-2.2954,-2.4647,-2.5674,-2.6246,-2.7567,-2.8609,-2.9375,-2.9512,-2.9492,-2.9375,-2.9567,-2.9746,-2.9961,0.0,0.0,0.0,0.0,0.0,0.0,0.0,0.0,0.0,0.0,0.0,0.0,0.0,0.0,0.0,0.0,0.0,0.0,-1.4469,-1.4242,-1.3905,-1.3402,-1.4398,-1.4773,-1.428,-1.5851,-1.7141,-1.7982,-1.833,-1.817,-1.7635,-1.8864,-1.908,-1.8513,-1.8941,-1.8534,-1.7531,-1.6728,-1.5674,-1.4609,-1.5676,-1.529,-1.425,0.0,0.0,0.0,0.0,0.0,0.0,0.0,-1.3753,-1.3409,0.0,0.0,0.0,0.0,-1.4721,-1.4364,-1.3682,-1.3975,0.0,0.0,0.0,0.0,0.0,0.0,0.0,0.0,0.0,0.0,0.0,0.0,0.0,0.0,0.0,0.0,0.0,0.0,0.0,0.0,0.0,0.0,0.0,0.0,0.0,0.0,0.0,0.0,0.0,0.0,0.0,0.0,-2.154,-2.1203,-2.1203,-2.0559,-2.0183,-2.0183,-2.0168,-2.0183,-2.0183,-2.0183,-2.0183,-2.0183,-2.0237,-2.1112,-2.2631,-2.4259,-2.6481,-2.8945,-2.9394,-2.9297,-2.8965,-2.9394,-2.9607,-2.957,0.0,0.0,0.0,0.0,0.0,0.0,0.0,0.0,0.0,0.0,0.0,0.0,0.0,0.0,0.0,0.0,0.0,0.0,0.0,-1.4095,-1.3853,-1.2662,-1.4133,-1.4637,-1.3817,-1.5512,-1.674,-1.7422,-1.7554,-1.7814,-1.8343,-1.884,-1.8919,-1.8581,-1.9082,-1.8686,-1.7559,-1.6877,-1.6645,-1.6707,-1.6877,-1.6625,-1.6196,0.0,0.0,0.0,0.0,0.0,0.0,0.0,0.0,0.0,0.0,0.0,0.0,0.0,-1.4545,-1.4408,-1.396,0.0,0.0,0.0,0.0,0.0,0.0,0.0,0.0,0.0,0.0,0.0,0.0,0.0,0.0,0.0,0.0,0.0,0.0,0.0,0.0,0.0,0.0,0.0,0.0,0.0,0.0,0.0,0.0,0.0,0.0,0.0,0.0,0.0,-2.0633,-2.053,-2.053,-2.0106,-1.9901,-1.9901,-1.9667,-1.9798,-2.0183,-2.0183,-2.0183,-2.0237,-2.1078,-2.2135,-2.3429,-2.5878,-2.75,-2.8496,-2.8613,-2.8594,-2.8496,-2.8613,-2.8848,-2.9062,0.0,0.0,0.0,0.0,0.0,0.0,0.0,0.0,0.0,0.0,0.0,0.0,0.0,0.0,0.0,0.0,0.0,0.0,0.0,0.0,-1.3985,-1.3189,-1.4353,-1.4831,-1.4457,-1.5534,-1.6219,-1.6496,-1.6737,-1.7172,-1.7853,-1.923,-1.9821,-1.9788,-2.0822,-2.0587,-1.9294,-1.8189,-1.7647,-1.7656,-1.7858,-1.7499,-1.6992,0.0,0.0,0.0,0.0,0.0,0.0,0.0,0.0,0.0,0.0,0.0,0.0,-1.434,-1.4409,-1.4487,-1.4349,0.0,0.0,0.0,0.0,0.0,0.0,0.0,0.0,0.0,0.0,0.0,0.0,0.0,0.0,0.0,0.0,0.0,0.0,0.0,0.0,0.0,0.0,0.0,0.0,0.0,0.0,0.0,0.0,0.0,0.0,0.0,0.0,0.0,-2.012,-2.0047,-2.0047,-1.9725,-1.9617,-1.9617,-1.9426,-1.9477,-1.9857,-1.9857,-1.9857,-1.9911,-2.078,-2.1985,-2.3565,-2.5352,-2.6736,-2.7793,-2.7793,-2.7891,-2.8047,-2.8047,-2.832,-2.8633,0.0,0.0,0.0,0.0,0.0,0.0,0.0,0.0,0.0,0.0,0.0,0.0,0.0,0.0,0.0,0.0,0.0,0.0,0.0,0.0,-1.4215,-1.4386,-1.4803,-1.5244,-1.5731,-1.5771,-1.5658,-1.5448,-1.6014,-1.6475,-1.6859,-1.9777,-2.1279,-2.1501,-2.3262,-2.3237,-2.1765,-1.9955,-1.8667,-1.7905,-1.8682,-1.8175,-1.7098,-1.862,0.0,0.0,0.0,0.0,0.0,0.0,0.0,0.0,0.0,0.0,0.0,-1.3945,-1.4191,-1.4561,0.0,0.0,0.0,0.0,0.0,0.0,0.0,0.0,0.0,0.0,0.0,0.0,0.0,0.0,0.0,0.0,0.0,0.0,0.0,0.0,0.0,0.0,0.0,0.0,0.0,0.0,0.0,0.0,0.0,0.0,0.0,0.0,0.0,-2.0095,-1.9872,-1.9764,-1.9764,-1.9433,-1.9272,0.0,-1.9272,-1.9257,-1.928,-1.9257,-1.9272,-1.9338,-1.9752,-2.1071,-2.3014,-2.3513,-2.4959,-2.6858,-2.6961,-2.7266,-2.7669,-2.7669,-2.7851,-2.8184,0.0,0.0,0.0,0.0,0.0,0.0,0.0,0.0,0.0,0.0,0.0,0.0,0.0,0.0,0.0,0.0,0.0,0.0,0.0,0.0,-1.4255,-1.38,-1.4776,-1.5364,-1.5484,-1.5712,-1.5768,-1.569,-1.612,-1.6713,0.0,0.0,0.0,-2.0786,0.0,-2.1834,-2.0352,-1.9593,-1.9147,-1.9003,-1.9498,-1.9295,-1.8776,-1.9145,-1.8981,0.0,0.0,0.0,0.0,0.0,0.0,0.0,-1.5621,-1.4846,-1.3931,-1.3667,-1.4046,0.0,0.0,0.0,0.0,0.0,0.0,0.0,0.0,0.0,0.0,0.0,0.0,0.0,0.0,0.0,0.0,0.0,0.0,0.0,0.0,0.0,0.0,0.0,0.0,0.0,0.0,0.0,0.0,0.0,0.0,0.0,0.0,0.0,0.0,-1.9477,-1.9418,-1.9441,-1.9441,-1.9368,-1.9272,0.0,-1.9272,-1.914,-1.8906,-1.9155,-1.9272,-1.9338,-2.0266,-2.1095,-2.196,-2.3771,-2.5051,-2.5811,-2.6654,-2.707,-2.7148,-2.7148,-2.7207,-2.7285,0.0,0.0,0.0,0.0,0.0,0.0,0.0,0.0,0.0,0.0,0.0,0.0,0.0,0.0,0.0,0.0,0.0,0.0,0.0,0.0,0.0,0.0,0.0,0.0,0.0,0.0,0.0,0.0,0.0,0.0,0.0,0.0,0.0,-2.142,0.0,-2.1998,-2.0973,-1.9985,-1.9644,-1.9725,-1.9622,-1.9313,-1.8896,-1.9099,-1.8657,-1.7962,-1.7943,0.0,0.0,0.0,0.0,0.0,0.0,0.0,-1.4249,-1.4067,-1.4399,-1.4971,0.0,0.0,0.0,0.0,0.0,0.0,0.0,0.0,0.0,0.0,0.0,0.0,0.0,0.0,0.0,0.0,0.0,0.0,0.0,0.0,0.0,0.0,0.0,0.0,0.0,0.0,0.0,0.0,0.0,0.0,0.0,-1.9272,-1.9272,-1.9272,-1.9272,-1.9199,-1.9038,-1.9038,-1.8964,-1.8803,-1.8803,-1.8716,-1.8569,-1.8891,-1.9125,-1.9324,-1.9879,-2.054,-2.1302,-2.2434,-2.3677,-2.484,-2.5396,-2.6052,-2.6719,-2.6719,-2.6836,-2.7012,0.0,0.0,0.0,0.0,0.0,0.0,0.0,0.0,0.0,0.0,0.0,0.0,0.0,0.0,0.0,0.0,0.0,0.0,0.0,0.0,0.0,0.0,0.0,0.0,0.0,0.0,0.0,0.0,0.0,0.0,0.0,0.0,0.0,-2.2089,0.0,-2.2419,-2.1915,-2.0332,-1.9795,-1.9879,-1.9335,-1.8765,-1.8304,-1.862,-1.8117,-1.7273,-1.7734,-1.7767,-1.7555,-1.7632,0.0,0.0,0.0,0.0,-1.4699,-1.4699,-1.4929,-1.5426,0.0,0.0,0.0,0.0,0.0,0.0,0.0,0.0,0.0,0.0,0.0,0.0,0.0,0.0,0.0,0.0,0.0,0.0,0.0,0.0,0.0,0.0,0.0,0.0,0.0,0.0,0.0,0.0,0.0,0.0,-1.9184,-1.914,-1.914,-1.9184,-1.914,-1.8979,-1.8701,-1.8701,-1.8569,-1.8306,-1.8247,-1.8247,-1.8306,-1.8525,-1.8833,-1.9199,-1.9257,-1.9776,-2.0637,-2.0842,-2.203,-2.3831,-2.4048,-2.4963,-2.6269,-2.6269,-2.6504,-2.6797,0.0,0.0,0.0,0.0,0.0,0.0,0.0,0.0,0.0,0.0,0.0,0.0,0.0,0.0,0.0,0.0,0.0,0.0,0.0,0.0,0.0,0.0,-1.4968,0.0,0.0,0.0,0.0,0.0,0.0,0.0,0.0,0.0,0.0,-2.1291,0.0,0.0,-2.0686,-1.9421,-1.8871,-1.8872,-1.8449,-1.8064,-1.7803,-1.7714,-1.7543,-1.7358,-1.7137,-1.7359,-1.7741,-1.7593,-1.7234,0.0,0.0,0.0,-1.5018,-1.5018,-1.5268,0.0,0.0,0.0,0.0,0.0,0.0,0.0,0.0,0.0,0.0,0.0,0.0,0.0,0.0,0.0,0.0,0.0,0.0,0.0,0.0,0.0,0.0,0.0,0.0,0.0,0.0,0.0,0.0,0.0,0.0,0.0,-1.8833,-1.8584,-1.8569,-1.8847,-1.8584,-1.8408,-1.8364,-1.8364,-1.835,-1.8291,-1.8013,-1.8028,-1.8291,-1.8057,-1.8277,-1.8877,-1.9155,-1.9376,-1.9583,-2.0534,-2.1641,-2.2785,-2.3732,-2.4794,-2.5771,-2.5771,-2.581,-2.5849,0.0,0.0,0.0,0.0,0.0,0.0,0.0,0.0,0.0,0.0,0.0,0.0,0.0,0.0,0.0,-1.3852,0.0,0.0,0.0,0.0,0.0,-1.4442,-1.4309,-1.4564,-1.5255,0.0,0.0,0.0,0.0,0.0,0.0,-2.1376,-2.2245,0.0,0.0,0.0,0.0,0.0,-1.8985,-1.8785,-1.7825,-1.7307,-1.7039,-1.6646,-1.633,-1.6151,-1.6447,-1.6825,-1.7164,-1.7407,-1.7436,-1.7285,-1.6996,0.0,0.0,0.0,-1.6197,0.0,0.0,0.0,0.0,0.0,0.0,0.0,0.0,0.0,0.0,0.0,0.0,0.0,0.0,0.0,0.0,0.0,0.0,0.0,0.0,0.0,0.0,0.0,0.0,0.0,0.0,0.0,0.0,0.0,0.0,-1.7823,-1.7955,-1.7838,-1.7823,-1.7969,-1.7838,-1.7677,-1.7548,-1.7662,-1.7765,-1.775,-1.7618,-1.7618,-1.7765,-1.7794,-1.8174,-1.8803,-1.8935,-1.9111,-1.9324,-1.9828,-2.0979,-2.2534,-2.3035,-2.4214,-2.5693,-2.5693,-2.5693,-2.5693,0.0,0.0,0.0,0.0,0.0,0.0,0.0,0.0,0.0,0.0,0.0,0.0,0.0,0.0,0.0,0.0,-1.3454,0.0,0.0,0.0,0.0,-1.3948,-1.372,-1.4063,-1.507,0.0,0.0,0.0,0.0,0.0,-2.0058,-2.1065,-2.2667,0.0,-2.3517,0.0,0.0,0.0,0.0,0.0,-1.7401,-1.6659,-1.6468,-1.6016,-1.5597,-1.5346,-1.6171,-1.6496,-1.6645,-1.7226,-1.7529,-1.756,-1.7104,-1.6999,0.0,0.0,0.0,0.0,0.0,0.0,0.0,0.0,0.0,0.0,0.0,0.0,0.0,0.0,0.0,0.0,0.0,0.0,0.0,0.0,0.0,0.0,0.0,0.0,0.0,0.0,0.0,0.0,0.0,0.0,0.0,0.0,0.0,-1.7121,-1.7208,-1.7135,-1.7121,-1.7208,-1.7135,-1.6974,-1.6771,-1.696,-1.7121,-1.7208,-1.7208,-1.7208,-1.7223,-1.7545,-1.7955,-1.8438,-1.8686,-1.8921,-1.9155,-1.9242,-2.0585,-2.2484,-2.2484,-2.38,-2.5693,-2.5693,-2.5693,-2.5693,0.0,0.0,0.0,0.0,0.0,0.0,0.0,0.0,0.0,0.0,0.0,0.0,-1.6413,-1.6011,-1.5399,-1.4633,-1.3876,-1.3292,-1.286,-1.3053,0.0,-1.3613,-1.3613,0.0,-1.4793,0.0,0.0,0.0,0.0,0.0,-2.0503,-2.0943,-2.2226,-2.422,-2.3712,-2.2602,-2.1089,0.0,0.0,0.0,0.0,0.0,0.0,0.0,0.0,0.0,0.0,0.0,-1.641,-1.7002,-1.7358,-1.7472,-1.7187,-1.7238,-1.7311,0.0,0.0,0.0,0.0,0.0,0.0,0.0,0.0,0.0,0.0,0.0,0.0,0.0,0.0,0.0,0.0,0.0,0.0,0.0,0.0,0.0,0.0,0.0,0.0,0.0,0.0,0.0,0.0,0.0,0.0,0.0,0.0,-1.6595,-1.6903,-1.6639,-1.6609,-1.6917,-1.6624,-1.6448,-1.6433,-1.6448,-1.6624,-1.6917,-1.6917,-1.6917,-1.6932,-1.7208,-1.7369,-1.741,-1.8394,-1.8803,-1.8833,-1.9155,-2.0585,-2.2484,-2.2484,-2.38,-2.5693,-2.5693,-2.5693,-2.5693,0.0,0.0,0.0,0.0,0.0,0.0,0.0,0.0,0.0,0.0,0.0,0.0,0.0,-1.6718,-1.6077,-1.5772,-1.48,-1.4124,-1.399,-1.4037,0.0,-1.3818,-1.454,-1.4985,-1.4988,0.0,0.0,0.0,0.0,-1.8284,-1.896,-1.9875,-2.0466,-2.0704,-2.1815,-2.2163,-2.175,-1.9769,0.0,0.0,0.0,0.0,0.0,0.0,0.0,0.0,0.0,0.0,0.0,0.0,0.0,-1.7412,-1.7323,-1.735,-1.7363,-1.7187,-1.6953,0.0,0.0,0.0,0.0,0.0,0.0,0.0,0.0,0.0,0.0,0.0,0.0,0.0,0.0,0.0,0.0,0.0,0.0,0.0,0.0,0.0,0.0,0.0,0.0,0.0,0.0,0.0,0.0,0.0,0.0,0.0,-1.5935,-1.5833,-1.5818,-1.5935,-1.5818,-1.5862,-1.6082,-1.6082,-1.6243,-1.6595,-1.7158,-1.7114,-1.6595,-1.7462,-1.7568,-1.7062,-1.7838,-1.8408,-1.8803,-1.8921,-2.0382,-2.2484,-2.2484,-2.38,-2.5693,-2.5693,-2.5693,-2.5693,0.0,0.0,0.0,0.0,0.0,0.0,0.0,0.0,0.0,0.0,0.0,0.0,0.0,0.0,-1.6455,-1.6239,-1.558,-1.5016,-1.4653,-1.4601,-1.4506,-1.4291,-1.5209,-1.5621,0.0,0.0,0.0,0.0,0.0,0.0,0.0,-1.885,-1.9143,-1.8962,-2.0003,-2.0772,0.0,0.0,0.0,-1.7972,0.0,0.0,-1.6145,0.0,0.0,0.0,0.0,0.0,0.0,0.0,0.0,0.0,0.0,-1.7103,-1.7168,-1.7168,-1.6921,0.0,0.0,0.0,0.0,0.0,0.0,0.0,0.0,0.0,0.0,0.0,0.0,0.0,0.0,0.0,0.0,0.0,0.0,0.0,0.0,0.0,0.0,0.0,0.0,0.0,0.0,0.0,0.0,0.0,0.0,0.0,-1.5382,-1.5382,-1.5382,-1.5382,-1.5382,-1.5498,-1.5745,-1.5717,-1.5906,-1.6257,-1.7113,-1.707,-1.6272,-1.7468,-1.7578,-1.6771,-1.7252,-1.7925,-1.8678,-1.9134,-2.0559,-2.2534,-2.2885,-2.4115,-2.5693,-2.5693,-2.5693,-2.5693,0.0,0.0,0.0,0.0,0.0,0.0,0.0,0.0,0.0,-1.5661,0.0,0.0,0.0,0.0,0.0,-1.5929,-1.6222,-1.5931,-1.474,-1.4673,-1.4796,-1.511,0.0,0.0,0.0,0.0,0.0,0.0,0.0,0.0,0.0,0.0,-1.8504,0.0,-1.8449,-1.854,-1.9201,0.0,-1.8467,-1.7917,0.0,-1.5942,-1.7116,0.0,0.0,0.0,-1.869,-1.8371,0.0,-1.7612,0.0,0.0,0.0,0.0,0.0,0.0,0.0,0.0,0.0,0.0,0.0,0.0,0.0,0.0,0.0,0.0,0.0,0.0,0.0,0.0,0.0,0.0,0.0,0.0,0.0,0.0,0.0,0.0,0.0,0.0,0.0,0.0,0.0,0.0,0.0,0.0,0.0,-1.5382,-1.5382,-1.5382,-1.5382,-1.5382,-1.5382,-1.5382,-1.5382,-1.5382,-1.5542,-1.5906,-1.68,-1.6757,-1.5949,-1.7172,-1.7283,-1.6477,-1.6771,-1.7413,-1.8405,-1.9763,-2.1196,-2.2567,-2.3633,-2.4707,-2.5693,-2.5693,-2.5693,-2.5693,0.0,0.0,0.0,0.0,0.0,0.0,0.0,0.0,-1.568,0.0,0.0,0.0,-1.689,-1.7165,-1.7387,-1.746,-1.7316,-1.7045,-1.6705,-1.644,-1.6052,-1.5623,-1.6486,0.0,0.0,0.0,0.0,0.0,0.0,0.0,0.0,0.0,0.0,0.0,-1.7954,-1.788,-1.7587,-1.7752,0.0,0.0,-1.6643,-1.6541,0.0,0.0,0.0,0.0,0.0,-1.8424,-1.8863,0.0,-1.8205,-1.7992,0.0,0.0,0.0,0.0,0.0,0.0,-1.5644,0.0,0.0,0.0,0.0,0.0,0.0,0.0,0.0,0.0,0.0,0.0,0.0,0.0,0.0,0.0,0.0,0.0,0.0,0.0,0.0,0.0,0.0,0.0,0.0,0.0,0.0,0.0,-1.4787,-1.4764,-1.5159,-1.5173,-1.5257,-1.5382,-1.5382,-1.5382,-1.5382,-1.5382,-1.5425,-1.557,-1.7064,-1.7335,-1.6542,-1.7989,-1.8137,-1.7314,-1.7219,-1.7486,-1.7969,-1.8636,-2.0178,-2.2206,-2.2731,-2.4048,-2.5693,-2.5693,-2.5693,-2.5693,0.0,0.0,0.0,0.0,0.0,0.0,0.0,0.0,-1.634,0.0,0.0,0.0,-1.7385,-1.777,-1.8027,-1.8081,-1.7899,-1.7678,-1.7513,-1.7128,-1.67,-1.6298,-1.7062,-1.7134,0.0,0.0,0.0,0.0,0.0,0.0,0.0,0.0,0.0,0.0,0.0,0.0,0.0,0.0,0.0,0.0,-1.6303,0.0,0.0,-1.6845,-1.7609,0.0,0.0,0.0,-1.9563,-1.8677,-1.827,0.0,0.0,0.0,0.0,0.0,0.0,0.0,0.0,0.0,0.0,0.0,0.0,0.0,0.0,-1.4975,0.0,0.0,0.0,0.0,0.0,0.0,0.0,0.0,0.0,0.0,0.0,0.0,0.0,0.0,0.0,0.0,0.0,0.0,0.0,-1.471,-1.4496,-1.4543,-1.4851,-1.4784,-1.4842,-1.5054,-1.4972,-1.5043,-1.5257,-1.5257,-1.5298,-1.5423,-1.7082,-1.7472,-1.6755,-1.8087,-1.8308,-1.7692,-1.7311,-1.7311,-1.7633,-1.8294,-1.9828,-2.1827,-2.2649,-2.4005,-2.5488,-2.5615,-2.5693,-2.5693,0.0,0.0,0.0,0.0,0.0,0.0,0.0,0.0,0.0,0.0,-1.7568,-1.7734,-1.8173,-1.8484,-1.8595,-1.8246,-1.8136,-1.799,-1.766,-1.7165,-1.6908,-1.6908,-1.7202,-1.7183,0.0,0.0,0.0,0.0,0.0,0.0,0.0,0.0,0.0,0.0,0.0,0.0,0.0,0.0,0.0,-1.5693,-1.5494,-1.6034,0.0,0.0,-1.8506,0.0,-1.9391,-1.9598,-1.9912,-1.8617,-1.7839,0.0,0.0,0.0,0.0,0.0,-1.6383,0.0,0.0,0.0,0.0,0.0,0.0,0.0,-1.4347,-1.439,-1.4459,0.0,0.0,0.0,0.0,0.0,0.0,0.0,0.0,0.0,0.0,0.0,0.0,0.0,0.0,0.0,0.0,-1.498,-1.4608,-1.453,-1.4521,-1.4457,-1.4336,-1.4209,-1.4273,-1.4545,-1.4427,-1.4582,-1.5032,-1.5075,-1.5173,-1.5382,-1.6837,-1.7326,-1.6878,-1.7738,-1.8015,-1.7822,-1.7191,-1.7154,-1.7527,-1.8486,-1.9844,-2.1497,-2.2973,-2.4164,-2.5165,-2.5566,-2.5693,-2.5693,-1.7917,0.0,0.0,0.0,0.0,0.0,0.0,0.0,0.0,0.0,-1.7972,-1.8284,-1.8999,-1.8852,-1.8815,-1.9054,-1.8447,-1.8191,-1.8467,-1.7495,-1.6908,-1.6908,-1.667,-1.6358,-1.5936,0.0,0.0,0.0,0.0,0.0,0.0,0.0,0.0,0.0,0.0,0.0,0.0,0.0,0.0,-1.5716,-1.6006,0.0,-1.7543,-1.6977,-1.7527,-1.8504,-1.8389,-1.8635,-1.8976,0.0,-1.8067,-1.7407,0.0,0.0,0.0,0.0,0.0,0.0,0.0,0.0,0.0,0.0,0.0,0.0,-1.5264,-1.5621,-1.595,0.0,0.0,0.0,0.0,0.0,0.0,0.0,0.0,0.0,0.0,0.0,0.0,0.0,0.0,0.0,0.0,-1.5311,-1.5215,-1.4781,-1.4682,-1.4287,-1.3428,-1.3691,-1.4016,-1.427,-1.4434,-1.4605,-1.4703,-1.4739,-1.4908,-1.5173,-1.6154,-1.7041,-1.7732,-1.779,-1.8116,-1.8705,-1.7659,-1.7732,-1.8519,-1.8736,-1.9704,-2.1117,-2.2625,-2.3991,-2.5165,-2.5566,-2.5693,-2.5693,-1.828,0.0,0.0,0.0,0.0,0.0,0.0,0.0,0.0,0.0,0.0,0.0,-1.9256,-1.9127,-1.9091,-1.9292,-1.876,-1.8412,-1.8412,-1.766,-1.711,-1.6908,-1.6523,-1.6303,-1.6303,-1.6303,0.0,0.0,0.0,0.0,0.0,0.0,0.0,0.0,0.0,0.0,0.0,0.0,-1.6486,-1.6285,-1.6149,0.0,-1.6729,-1.6388,-1.6906,-1.7782,-1.7782,-1.7912,-1.808,-1.808,-1.7819,0.0,0.0,-1.6738,-1.6514,0.0,-1.6201,-1.6115,0.0,0.0,0.0,-1.6275,0.0,0.0,0.0,-1.5463,-1.5378,0.0,0.0,0.0,0.0,0.0,0.0,0.0,0.0,0.0,0.0,0.0,0.0,0.0,0.0,0.0,0.0,-1.4877,-1.466,-1.4689,-1.4956,-1.4877,-1.4338,-1.397,-1.3919,-1.4194,-1.3903,-1.3931,-1.4441,-1.4474,-1.4711,-1.5131,-1.6304,-1.7,-1.7221,-1.777,-1.8137,-1.836,-1.8131,-1.8334,-1.8888,-1.9695,-2.0542,-2.1407,-2.2322,-2.342,-2.4512,-2.5156,-2.541,-2.543,-1.8531,0.0,0.0,0.0,0.0,0.0,0.0,0.0,0.0,0.0,0.0,0.0,0.0,0.0,0.0,0.0,-1.9054,-1.8632,0.0,0.0,0.0,-1.6927,-1.6523,-1.6358,-1.645,-1.6285,0.0,0.0,0.0,0.0,0.0,0.0,0.0,0.0,0.0,0.0,0.0,0.0,0.0,-1.6615,0.0,-1.5813,-1.5932,-1.5882,-1.644,-1.7275,-1.7275,-1.7367,-1.7477,-1.7312,0.0,-1.7348,-1.6526,-1.6486,0.0,0.0,0.0,0.0,0.0,0.0,0.0,0.0,0.0,-1.5913,0.0,0.0,0.0,0.0,0.0,0.0,0.0,0.0,0.0,0.0,0.0,0.0,0.0,0.0,0.0,0.0,0.0,0.0,0.0,-1.4479,-1.4061,-1.4454,-1.5032,-1.5242,-1.4887,-1.4186,-1.3851,-1.388,-1.3199,-1.3244,-1.4057,-1.4182,-1.4487,-1.4948,-1.65,-1.6974,-1.6511,-1.7669,-1.7989,-1.7671,-1.8389,-1.875,-1.9072,-2.0664,-2.1561,-2.1972,-2.2316,-2.2983,-2.3796,-2.4555,-2.4847,-2.4953,-1.8531,-1.9844,0.0,0.0,0.0,0.0,0.0,0.0,0.0,0.0,0.0,0.0,0.0,0.0,0.0,0.0,0.0,0.0,-2.0649,0.0,0.0,0.0,0.0,0.0,-1.4799,-1.5423,-1.5423,0.0,0.0,0.0,0.0,0.0,0.0,0.0,-1.5203,0.0,0.0,0.0,-1.546,0.0,-1.5381,-1.5808,0.0,-1.6006,-1.601,-1.645,-1.645,-1.6908,-1.7385,0.0,-1.6908,-1.7348,0.0,-1.6101,-1.5955,0.0,0.0,0.0,0.0,0.0,0.0,0.0,-1.6793,0.0,0.0,0.0,0.0,0.0,0.0,0.0,0.0,0.0,0.0,0.0,0.0,0.0,0.0,0.0,0.0,0.0,0.0,0.0,0.0,0.0,-1.4366,-1.4087,-1.4619,-1.4279,-1.2732,-1.339,-1.3492,-1.2802,-1.29,-1.304,-1.3146,-1.372,-1.413,-1.443,-1.6016,-1.6769,-1.6784,-1.7378,-1.7596,-1.7462,-1.7949,-1.8673,-1.953,-2.0799,-2.1847,-2.27,-2.2896,-2.3202,-2.3467,-2.3763,-2.4028,-2.4233,-1.9055,-1.9712,0.0,0.0,0.0,0.0,0.0,0.0,0.0,0.0,0.0,0.0,0.0,0.0,0.0,0.0,0.0,-1.9659,0.0,0.0,0.0,0.0,0.0,0.0,0.0,-1.612,-1.5771,0.0,-1.5368,0.0,0.0,0.0,0.0,0.0,-1.5093,0.0,-1.5001,0.0,0.0,0.0,0.0,0.0,0.0,-1.5661,-1.5606,-1.5955,-1.5955,-1.6321,-1.6688,0.0,-1.6303,0.0,0.0,0.0,0.0,0.0,0.0,0.0,0.0,0.0,0.0,0.0,0.0,0.0,-1.5526,0.0,-1.5423,0.0,0.0,0.0,0.0,0.0,0.0,0.0,0.0,0.0,0.0,0.0,0.0,0.0,0.0,0.0,0.0,0.0,0.0,0.0,0.0,-1.478,-1.4143,-1.3595,-1.3272,-1.3135,-1.2783,-1.2934,-1.3681,-1.3978,-1.4482,-1.5184,-1.6597,-1.6951,-1.6327,-1.8083,-1.8523,-1.8018,-1.9545,-2.0439,-2.0844,-2.1802,-2.2441,-2.2769,-2.2586,-2.2796,-2.3279,-2.3615,-2.3724,-2.3717,-1.9687,0.0,0.0,0.0,0.0,0.0,0.0,0.0,0.0,0.0,0.0,0.0,-2.0631,-2.0735,0.0,0.0,-2.1273,-2.0649,0.0,0.0,-1.8595,0.0,0.0,0.0,0.0,0.0,0.0,0.0,0.0,0.0,0.0,0.0,0.0,0.0,0.0,-1.4946,-1.4671,0.0,0.0,-1.5771,-1.5184,-1.5294,-1.5739,-1.5276,-1.5349,-1.568,-1.557,-1.5863,-1.6193,-1.5368,-1.5753,0.0,-1.5404,0.0,0.0,0.0,0.0,0.0,-1.579,0.0,0.0,0.0,0.0,0.0,0.0,0.0,0.0,0.0,0.0,0.0,0.0,0.0,0.0,0.0,0.0,0.0,0.0,0.0,0.0,0.0,0.0,0.0,0.0,0.0,0.0,0.0,-1.495,-1.481,-1.4597,-1.3523,-1.2924,-1.3064,-1.268,-1.298,-1.3985,-1.4351,-1.4931,-1.5713,-1.7072,-1.7229,-1.6417,-1.8625,-1.9167,-1.855,-2.0375,-2.1131,-2.122,-2.1964,-2.2274,-2.225,-2.2102,-2.2315,-2.2766,-2.3102,-2.3166,-2.3114,-2.0289,-2.0236,0.0,0.0,0.0,0.0,0.0,0.0,0.0,0.0,0.0,0.0,0.0,0.0,0.0,0.0,0.0,-2.1797,-2.2163,0.0,-1.876,0.0,0.0,-1.7367,0.0,0.0,0.0,0.0,0.0,0.0,0.0,0.0,0.0,0.0,0.0,-1.5093,-1.5038,-1.4249,-1.4176,-1.4561,-1.4543,-1.4543,-1.4616,0.0,-1.5349,-1.5643,-1.5258,0.0,0.0,-1.5368,-1.5386,0.0,0.0,0.0,0.0,0.0,0.0,0.0,0.0,0.0,0.0,-1.5808,0.0,0.0,0.0,0.0,-1.529,0.0,0.0,0.0,0.0,0.0,0.0,0.0,0.0,0.0,0.0,0.0,0.0,0.0,0.0,0.0,0.0,0.0,0.0,-1.4802,-1.4394,-1.3668,-1.2545,-1.2579,-1.2398,-1.1984,-1.2607,-1.314,-1.3513,-1.4746,-1.5364,-1.5433,-1.6954,-1.7603,-1.7492,-1.8633,-1.9029,-1.881,-1.9463,-1.9771,-1.9824,-2.0619,-2.0936,-2.1034,-2.1598,-2.1811,-2.1849,-2.178,-2.1928,-2.2124,0.0,0.0,0.0,0.0,0.0,0.0,0.0,-1.8045,0.0,0.0,0.0,0.0,0.0,0.0,-2.3675,0.0,0.0,-2.284,-2.2712,-2.1328,0.0,0.0,0.0,-1.9072,0.0,0.0,0.0,0.0,0.0,0.0,0.0,0.0,0.0,0.0,0.0,-1.5203,0.0,0.0,0.0,0.0,0.0,-1.5056,-1.5276,0.0,0.0,-1.4928,-1.5056,-1.5276,0.0,-1.4891,-1.5148,-1.557,-1.4909,-1.5074,-1.5423,-1.5019,-1.5001,0.0,0.0,0.0,-1.5148,-1.5276,0.0,0.0,0.0,0.0,0.0,0.0,0.0,0.0,0.0,0.0,0.0,0.0,0.0,0.0,0.0,0.0,0.0,0.0,0.0,0.0,0.0,0.0,0.0,-1.4231,-1.3734,-1.3138,0.0,-1.2443,-1.2281,-1.1899,-1.2828,-1.3633,-1.4207,-1.5196,-1.5924,-1.6404,-1.7455,-1.7687,-1.7226,-1.9046,-1.9596,-1.9102,-2.0225,-2.0704,-2.0704,-2.0829,-2.0899,-2.0936,-2.1219,-2.1343,-2.138,-2.1982,-2.2132,-2.2043,-2.0193,0.0,0.0,0.0,0.0,0.0,0.0,0.0,0.0,0.0,-2.1522,0.0,-2.4055,0.0,-2.4367,0.0,-2.4299,-2.3572,-2.2748,-2.1943,0.0,-2.0296,-2.0319,0.0,0.0,0.0,0.0,0.0,0.0,-1.5991,0.0,0.0,0.0,0.0,0.0,0.0,0.0,0.0,-1.4781,0.0,0.0,-1.5129,0.0,0.0,-1.5129,-1.5148,0.0,-1.5093,-1.5038,-1.4653,-1.4854,-1.5184,-1.4671,-1.4854,-1.5166,-1.4653,-1.4689,-1.4873,-1.4744,-1.4726,0.0,-1.5038,-1.4909,0.0,-1.4873,0.0,0.0,0.0,0.0,0.0,0.0,0.0,0.0,0.0,0.0,0.0,0.0,-1.4877,0.0,0.0,0.0,0.0,0.0,0.0,-1.4497,-1.4043,-1.3647,-1.3168,0.0,0.0,-1.2617,-1.2492,-1.3585,-1.4439,-1.5029,-1.5789,-1.6438,-1.6908,-1.744,-1.7569,-1.7426,-1.8848,-1.9399,-1.9291,-2.0175,-2.0533,-2.0533,-2.0369,-2.0328,-2.0342,-2.0581,-2.0778,-2.1004,-2.1838,-2.2087,-2.1972,0.0,0.0,0.0,0.0,-1.7147,0.0,0.0,0.0,-2.0686,0.0,-2.2217,-2.3279,-2.4202,-2.4275,-2.4422,-2.4776,-2.4794,0.0,-2.2557,-2.2346,0.0,0.0,-1.9985,-1.9417,-1.821,0.0,0.0,0.0,0.0,0.0,0.0,0.0,0.0,0.0,-1.612,0.0,-1.4561,-1.4946,-1.4634,-1.3956,-1.4378,-1.4781,-1.5166,-1.5166,-1.5643,-1.6178,-1.5386,-1.5093,-1.5019,-1.4634,-1.4506,-1.4506,-1.4506,-1.4506,-1.4506,-1.4506,-1.4506,-1.4598,-1.4964,-1.5074,-1.5074,-1.5093,0.0,0.0,0.0,0.0,-1.5155,0.0,0.0,0.0,0.0,0.0,0.0,0.0,0.0,0.0,0.0,0.0,0.0,0.0,0.0,0.0,0.0,-1.5108,-1.4878,-1.4223,-1.4085,0.0,0.0,0.0,-1.3284,-1.3602,-1.4698,-1.5446,-1.5789,-1.6508,-1.6908,-1.6908,-1.6927,-1.733,-1.8027,-1.8063,-1.8522,-1.9219,-1.9237,-1.9237,-1.9237,-1.9237,-1.9256,-1.9311,-1.9692,-2.0113,-2.0613,-2.1376,-2.1668,-2.1713,-1.8251,-1.776,-1.7651,0.0,-1.7547,-1.7238,0.0,0.0,0.0,0.0,-2.3272,-2.4312,-2.5433,-2.5286,-2.5157,-2.5267,-2.4959,0.0,0.0,0.0,0.0,-2.1687,-2.1394,-2.0662,-1.9454,-1.9366,0.0,-1.7624,0.0,0.0,-1.6138,0.0,0.0,0.0,0.0,0.0,-1.4964,-1.5056,-1.4818,-1.4378,-1.4781,-1.5368,0.0,0.0,-1.6105,-1.6178,-1.5386,-1.4909,-1.4653,-1.4543,-1.4506,-1.4506,-1.4506,-1.4506,-1.4506,-1.4506,-1.4506,-1.4524,-1.4634,-1.4653,-1.4726,-1.5019,-1.4891,-1.4708,0.0,0.0,0.0,0.0,0.0,0.0,0.0,0.0,0.0,0.0,0.0,0.0,0.0,0.0,0.0,-1.5501,0.0,0.0,-1.498,-1.4638,-1.4269,-1.4015,-1.3945,0.0,0.0,0.0,0.0,-1.3602,-1.4664,-1.5429,-1.5789,-1.6508,-1.6908,-1.6908,-1.7202,-1.7293,-1.7238,-1.7807,-1.8064,-1.7972,-1.8284,-1.843,-1.843,-1.843,-1.8557,-1.8907,-1.9311,-1.9897,-2.0576,-2.1089,-2.1273,-2.1273,-1.8012,0.0,0.0,-1.9366,0.0,0.0,-1.9482,0.0,0.0,-2.2767,-2.3822,0.0,-2.5414,-2.5252,-2.5106,-2.5106,-2.479,0.0,-2.4005,0.0,0.0,-2.2053,-2.1467,-2.068,-1.9677,-1.9256,0.0,-1.7294,0.0,0.0,-1.6028,0.0,0.0,0.0,0.0,-1.5478,0.0,-1.5093,-1.4964,-1.4781,-1.4818,0.0,0.0,-1.5588,-1.5625,-1.5698,-1.5074,-1.4708,-1.4506,-1.4506,-1.4506,-1.4506,-1.4506,-1.4506,-1.4506,-1.4506,-1.4506,-1.4506,-1.4506,-1.4506,-1.4561,-1.4781,-1.4671,-1.4579,-1.4799,-1.4836,-1.4836,0.0,0.0,0.0,0.0,0.0,0.0,0.0,0.0,0.0,0.0,0.0,0.0,0.0,0.0,0.0,-1.4862,-1.441,-1.3979,-1.3672,0.0,0.0,0.0,0.0,0.0,-1.4526,-1.5599,-1.621,-1.6298,-1.7044,-1.7257,-1.6908,-1.7128,-1.7128,-1.6927,-1.7385,-1.7458,-1.7257,-1.7678,-1.7844,-1.788,-1.8229,-1.8522,-1.8779,-1.9347,-1.9861,-2.0283,-2.0479,-2.0704,-2.0851,0.0,0.0,0.0,0.0,0.0,0.0,0.0,-2.1991,0.0,-2.2931,0.0,-2.4776,-2.4776,-2.4739,-2.4684,-2.4629,0.0,-2.3749,-2.295,-2.2858,-2.251,-2.1797,-2.0991,-2.0209,-1.9402,-1.8889,0.0,0.0,0.0,0.0,0.0,0.0,0.0,0.0,0.0,0.0,0.0,-1.5019,-1.5019,0.0,-1.4708,-1.4799,-1.5074,-1.4781,-1.4854,-1.5056,-1.4708,-1.4561,-1.4506,-1.4506,-1.4506,-1.4506,-1.4506,-1.4506,-1.4506,-1.4506,-1.4506,-1.4506,-1.4506,-1.4506,-1.4506,-1.4506,-1.4506,-1.4506,-1.4506,-1.4506,-1.4494,-1.4579,-1.5129,-1.5533,0.0,0.0,0.0,0.0,0.0,0.0,0.0,0.0,0.0,0.0,0.0,0.0,0.0,-1.4491,0.0,0.0,0.0,0.0,0.0,0.0,0.0,-1.568,-1.6707,0.0,-1.7073,0.0,-1.7715,-1.7073,-1.7073,-1.7018,-1.6908,-1.6963,-1.6963,-1.6927,-1.7275,-1.7422,-1.7477,-1.8247,-1.8614,-1.8797,-1.9582,-1.9857,-1.982,-1.9875,-2.0159,-2.0481,0.0,0.0,0.0,0.0,0.0,-2.4081,-2.3855,-2.4295,-2.4354,-2.3515,-2.4225,-2.4776,-2.4776,-2.4514,-2.4134,-2.3736,-2.3645,0.0,0.0,0.0,0.0,-2.2181,-2.1438,-2.0631,-1.9802,-1.874,-1.788,0.0,0.0,0.0,0.0,0.0,0.0,0.0,0.0,0.0,-1.4616,-1.4616,0.0,-1.4634,-1.4891,-1.5038,-1.5129,-1.5386,-1.5331,-1.5093,-1.5019,-1.4781,-1.4506,-1.4506,-1.4506,-1.4506,-1.4506,-1.4506,-1.4506,-1.4506,-1.4506,-1.4506,-1.4506,-1.4506,-1.4506,-1.4506,-1.4506,-1.4506,-1.4506,-1.4506,-1.4598,-1.4928,-1.5111,-1.5386,-1.5991,0.0,0.0,0.0,0.0,0.0,0.0,0.0,0.0,0.0,0.0,0.0,0.0,0.0,0.0,0.0,0.0,0.0,0.0,0.0,0.0,0.0,-1.59,0.0,0.0,0.0,-1.7715,-1.788,-1.788,-1.755,-1.6908,-1.7238,-1.722,-1.6908,-1.6982,-1.7018,-1.7037,-1.7513,-1.81,-1.8797,-1.9582,-1.9714,-1.9457,-1.9765,-2.0155,-2.0465,0.0,0.0,0.0,0.0,0.0,0.0,0.0,-2.5844,0.0,-2.4526,-2.4219,-2.4134,-2.4134,-2.395,-2.3767,-2.3517,-2.3316,-2.3023,-2.2602,-2.24,-2.2089,-2.1713,-2.1126,0.0,-1.9289,-1.8119,-1.7385,-1.7183,0.0,0.0,0.0,0.0,0.0,0.0,0.0,-1.4928,0.0,0.0,0.0,-1.4818,-1.4799,-1.4799,-1.4818,-1.5001,-1.4964,-1.4799,-1.4799,-1.4671,-1.4506,-1.4506,-1.4506,-1.4506,-1.4506,-1.4506,-1.4506,-1.4506,-1.4506,-1.4506,-1.4506,-1.4506,-1.4506,-1.4506,-1.4506,-1.4506,-1.4506,-1.4671,-1.4873,-1.5056,-1.5441,-1.5845,-1.6248,-1.6486,0.0,0.0,0.0,0.0,0.0,0.0,0.0,0.0,0.0,0.0,0.0,0.0,0.0,0.0,0.0,0.0,0.0,0.0,0.0,0.0,0.0,0.0,0.0,0.0,0.0,-1.7807,-1.7807,-1.7495,-1.6908,-1.711,-1.7202,-1.722,-1.722,-1.733,-1.7568,-1.7972,-1.8485,-1.9054,-1.9457,-1.9476,-1.9369,-1.9991,-2.033,-2.045,0.0,-2.1376,0.0,0.0,-2.4357,0.0,-2.5605,-2.6873,-2.7201,-2.5444,-2.4507,-2.3832,-2.3547,-2.3499,-2.3425,-2.3242,-2.295,-2.2602,-2.2181,-2.2163,-2.1833,-2.1145,-2.0723,-1.9952,-1.8742,-1.7605,-1.6945,0.0,0.0,0.0,0.0,0.0,0.0,0.0,0.0,0.0,0.0,0.0,-1.4983,-1.4946,-1.4634,-1.4506,-1.4506,-1.4506,-1.4506,-1.4506,-1.4506,-1.4506,-1.4506,-1.4506,-1.4506,-1.4506,-1.4506,-1.4506,-1.4506,-1.4506,-1.4506,-1.4506,-1.4506,-1.4506,-1.4506,-1.4506,-1.4506,-1.4506,-1.4506,-1.4818,-1.5129,-1.5203,-1.5881,-1.645,-1.645,-1.6707,0.0,0.0,0.0,0.0,0.0,0.0,0.0,0.0,0.0,0.0,0.0,0.0,0.0,0.0,0.0,0.0,0.0,0.0,0.0,0.0,0.0,-1.7055,-1.7623,0.0,-1.8302,0.0,-1.7752,-1.7495,-1.7037,-1.7037,-1.7202,-1.7495,-1.7403,-1.766,-1.8118,-1.8521,-1.8944,-1.9292,-1.949,-1.9569,-1.9648,-2.0469,-2.0875,-2.1029,0.0,0.0,0.0,0.0,0.0,0.0,0.0,-2.7264,-2.6935,-2.577,-2.5528,-2.5005,-2.3632,-2.3499,-2.3206,-2.2455,-2.2364,-2.2181,-2.1778,-2.1742,-2.154,-2.1126,-2.0723,-1.9952,-1.8742,-1.788,-1.7092,0.0,0.0,0.0,0.0,0.0,0.0,0.0,0.0,0.0,0.0,-1.4579,-1.4561,-1.4561,-1.4524,-1.4506,-1.4506,-1.4506,-1.4506,-1.4506,-1.4506,-1.4506,-1.4506,-1.4506,-1.4506,-1.4506,-1.4506,-1.4506,-1.4506,-1.4506,-1.4506,-1.4506,-1.4506,-1.4506,-1.4506,-1.4506,-1.4506,-1.4506,-1.4506,-1.4818,-1.5203,-1.557,-1.6285,-1.6853,-1.6853,-1.6872,-1.689,0.0,0.0,0.0,0.0,0.0,0.0,0.0,0.0,0.0,0.0,0.0,0.0,0.0,0.0,0.0,0.0,0.0,0.0,-1.5661,0.0,-1.6892,-1.8027,-1.81,-1.8283,-1.8595,-1.8595,-1.8192,-1.744,-1.744,-1.7458,-1.7477,-1.711,-1.7403,-1.8118,-1.8521,-1.8944,-1.9371,-2.0118,-2.0391,-2.0508,-2.1375,-2.2155,-2.2777,0.0,0.0,0.0,0.0,0.0,0.0,0.0,-2.5979,-2.5744,-2.5083,-2.4402,-2.3794,-2.3198,-2.2913,-2.2638,-2.2355,-2.2071,-2.1851,-2.1705,-2.1449,-2.1181,-2.0778,-2.0332,-1.9564,-1.8394,-1.7789,-1.711,0.0,0.0,0.0,0.0,0.0,0.0,0.0,0.0,-1.4781,-1.4854,-1.4616,-1.4506,-1.4506,-1.4506,-1.4506,-1.4506,-1.4506,-1.4506,-1.4506,-1.4506,-1.4506,-1.4506,-1.4506,-1.4506,-1.4506,-1.4506,-1.4506,-1.4506,-1.4506,-1.4506,-1.4506,-1.4506,-1.4506,-1.4506,-1.4506,-1.4506,-1.4506,-1.4506,-1.5001,-1.5496,-1.5661,-1.634,-1.6908,-1.6908,-1.6908,-1.6908,0.0,0.0,0.0,0.0,0.0,0.0,0.0,0.0,0.0,0.0,0.0,0.0,0.0,0.0,0.0,0.0,0.0,0.0,-1.5661,0.0,-1.6652,-1.8081,-1.8081,-1.8173,-1.8319,-1.8557,-1.8155,-1.7165,-1.7642,-1.8009,-1.8229,-1.832,-1.8522,-1.8872,-1.9485,-1.9888,-2.0118,-2.0952,-2.106,-2.0913,-2.1713,-2.2077,-2.2163,-2.1807,0.0,-2.218,0.0,-2.3364,-2.3776,-2.4934,-2.4834,-2.4492,-2.4017,-2.3037,-2.2444,-2.2712,-2.2455,-2.2236,-2.2126,-2.1851,-2.1632,-2.1522,-2.1273,-2.0869,-2.0374,-1.9952,0.0,-1.8025,-1.7606,-1.695,-1.6039,-1.5856,0.0,0.0,0.0,0.0,0.0,-1.4818,-1.4781,-1.4909,-1.4634,-1.4506,-1.4506,-1.4506,-1.4506,-1.4506,-1.4506,-1.4506,-1.4524,-1.4653,-1.4616,-1.4524,-1.4653,-1.4616,-1.4506,-1.4506,-1.4506,-1.4506,-1.4506,-1.4506,-1.4506,-1.4506,-1.4506,-1.4506,-1.4506,-1.4506,-1.4506,-1.4506,-1.5129,-1.5753,-1.5991,-1.6505,-1.6908,-1.6908,-1.6908,-1.6908,-1.6908,0.0,0.0,0.0,0.0,0.0,0.0,-1.5019,-1.4634,-1.4524,0.0,0.0,0.0,0.0,0.0,0.0,0.0,0.0,0.0,0.0,0.0,0.0,-1.7972,-1.8081,-1.8081,-1.8284,-1.8027,-1.7458,-1.8045,-1.8394,-1.8559,-1.9072,-1.9237,-1.9224,-2.01,-2.0508,-2.0605,-2.1535,-2.1697,-2.1439,-2.2084,-2.216,-2.1964,-2.1943,-2.2135,-2.2768,-2.4224,-2.4487,-2.4649,-2.5145,-2.4222,-2.3306,-2.2794,-2.1758,-2.1338,-2.219,-2.2291,-2.2126,-2.1742,-2.1705,-2.1522,-2.1145,-2.1108,-2.0759,0.0,0.0,-1.8848,-1.7821,-1.7424,-1.6613,-1.5425,0.0,0.0,-1.4524,0.0,-1.5093,-1.5093,-1.5093,-1.4873,-1.4524,-1.4506,-1.4506,-1.4506,-1.4506,-1.4506,-1.4506,-1.4506,-1.4506,-1.4561,-1.4964,-1.4836,-1.4579,-1.4964,-1.4836,-1.4506,-1.4506,-1.4506,-1.4506,-1.4506,-1.4506,-1.4506,-1.4506,-1.4506,-1.4506,-1.4506,-1.4506,-1.4506,-1.4506,-1.5129,-1.5918,-1.6725,-1.6908,-1.6908,-1.6908,-1.6908,-1.6908,-1.6908,0.0,0.0,0.0,0.0,0.0,0.0,-1.5093,-1.4946,-1.4543,0.0,0.0,0.0,0.0,0.0,0.0,0.0,0.0,-1.568,-1.6853,0.0,-1.6927,-1.7679,-1.8081,-1.8081,-1.7697,-1.7917,-1.8687,-1.8705,-1.8485,-1.8136,-1.8962,-1.9072,-1.8781,-1.9985,-2.0508,-2.0604,-2.1739,-2.2165,-2.2229,-2.257,-2.2685,-2.2754,-2.1554,-2.1617,-2.1971,-2.286,-2.3008,-2.3062,-2.3183,-2.2801,-2.2308,-2.1876,-2.1356,-2.1095,-2.1401,-2.1401,-2.1455,0.0,-2.1139,-2.0835,0.0,-2.0189,-1.9775,-1.9483,-1.882,-1.819,-1.7596,-1.7204,-1.6456,-1.5407,0.0,0.0,0.0,-1.5441,-1.5349,-1.5093,-1.5093,-1.4891,-1.4506,-1.4506,-1.4506,-1.4506,-1.4506,-1.4506,-1.4506,-1.4506,-1.4506,-1.4524,-1.4653,-1.4616,-1.4524,-1.4653,-1.4616,-1.4506,-1.4506,-1.4506,-1.4506,-1.4506,-1.4506,-1.4506,-1.4506,-1.4506,-1.4506,-1.4506,-1.4506,-1.4506,-1.4506,-1.4909,-1.5588,-1.6688,-1.6688,-1.6505,-1.6505,-1.6505,-1.6413,-1.612,-1.6083,0.0,0.0,0.0,0.0,0.0,-1.4873,-1.4653,0.0,-1.4506,0.0,0.0,0.0,0.0,0.0,0.0,0.0,0.0,-1.634,0.0,-1.7697,-1.7715,-1.7972,-1.8522,-1.8394,-1.8595,-1.9109,-1.8834,-1.8797,-1.8944,-1.9201,-1.9534,-2.0004,-2.0969,-2.1494,-2.176,-2.2648,-2.2625,-2.1992,-2.2125,-2.195,-2.1707,-2.1105,-2.1195,-2.1374,-2.1726,-2.1826,-2.1826,-2.1826,-2.1643,-2.1435,-2.114,-2.0925,-2.0772,-2.0862,-2.0817,0.0,-2.1195,-2.0935,-2.058,-2.0234,-1.9773,-1.9365,-1.9105,-1.8426,-1.7873,-1.7409,0.0,0.0,-1.5278,-1.5386,-1.5337,-1.5195,-1.5373,-1.5331,-1.5093,-1.5093,-1.4964,-1.4726,-1.4549,-1.4506,-1.4506,-1.4506,-1.4506,-1.4506,-1.4506,-1.4506,-1.4524,-1.4671,-1.4634,-1.4524,-1.4689,-1.4634,-1.4506,-1.4506,-1.4506,-1.4506,-1.4506,-1.4506,-1.4506,-1.4506,-1.4506,-1.4506,-1.4506,-1.4506,-1.4543,-1.4708,-1.5038,-1.5533,-1.6285,-1.6376,-1.6233,-1.612,-1.6083,-1.5991,-1.5735,-1.568,-1.5643,-1.5496,0.0,0.0,0.0,0.0,0.0,0.0,-1.4506,0.0,0.0,0.0,0.0,0.0,0.0,0.0,-1.568,-1.6395,0.0,-1.788,-1.7789,-1.8064,-1.8705,-1.8871,-1.8981,-1.9072,-1.8981,-1.9229,-1.9766,-1.9766,-2.0235,-2.1029,-2.1928,-2.236,-2.2535,-2.2966,-2.2742,-2.2157,-2.1789,-2.1445,-2.1224,-2.0744,-2.0862,0.0,0.0,-2.0997,0.0,-2.0997,-2.0817,-2.0699,-2.0699,-2.0473,-2.0382,-2.0654,-2.0411,-2.0421,-2.0872,0.0,0.0,0.0,-1.9724,-1.9371,-1.8687,-1.8245,-1.7761,-1.7165,-1.6765,-1.6088,-1.5151,-1.4749,-1.4508,-1.4424,-1.4909,-1.5153,-1.5153,-1.5117,-1.5098,-1.5074,-1.4708,-1.4561,-1.4561,-1.4579,-1.4598,-1.4598,-1.4561,-1.4561,-1.4598,-1.4946,-1.4818,-1.4561,-1.4928,-1.4818,-1.4506,-1.4506,-1.4506,-1.4506,-1.4506,-1.4506,-1.4506,-1.4506,-1.4506,-1.4506,-1.4506,-1.4506,-1.4616,-1.5001,-1.5386,-1.5661,-1.568,-1.601,-1.6138,-1.5716,-1.5643,-1.5643,-1.5606,-1.5606,-1.5478,-1.5111,0.0,0.0,0.0,0.0,0.0,0.0,-1.4543,-1.4543,0.0,0.0,0.0,0.0,0.0,-1.6175,-1.5753,-1.6872,-1.7513,-1.7587,-1.7935,-1.8283,-1.8724,-1.9109,-1.9148,-1.8837,-1.9206,-1.9805,-2.0566,-2.0566,-2.1068,-2.1945,-2.2681,-2.3016,-2.3018,-2.2774,-2.2696,-2.2535,-2.1546,-2.1201,-2.127,0.0,0.0,-2.0817,-2.0952,-2.0997,-2.0997,-2.0997,-2.0817,-2.0699,-2.0699,-2.0473,-2.0337,-2.0382,-2.0035,-1.9864,-1.9997,-1.9782,-1.954,-1.935,-1.8756,-1.8342,-1.817,-1.7514,-1.7118,-1.6956,-1.634,-1.5861,-1.5572,-1.5307,-1.5313,-1.562,-1.5743,-1.5779,-1.5761,-1.5472,-1.5228,-1.5093,-1.5001,-1.4964,-1.4983,-1.5294,-1.5404,-1.5386,-1.5074,-1.4964,-1.4928,-1.4726,-1.4598,-1.4494,-1.4616,-1.4579,-1.4506,-1.4506,-1.4506,-1.4506,-1.4506,-1.4506,-1.4506,-1.4506,-1.4506,-1.4506,-1.4506,-1.4506,-1.4616,-1.5001,-1.5166,-1.5331,-1.5625,-1.5771,-1.5716,-1.5313,-1.5239,-1.5148,-1.4836,-1.4781,-1.4763,-1.4671,-1.4653,0.0,0.0,-1.4781,-1.4836,-1.4543,-1.4781,-1.4836,0.0,0.0,0.0,0.0,-1.6101,-1.6578,-1.6175,-1.7037,-1.7789,-1.8412,-1.8229,-1.8283,-1.8724,-1.9109,-1.9552,-2.0082,-2.0178,-2.0682,-2.1489,-2.1489,-2.1945,-2.274,-2.2927,-2.3113,-2.3273,-2.2846,-2.2455,-2.2042,-2.1431,-2.1201,-2.1201,-2.0473,-2.0518,-2.0564,-2.0637,-2.0682,-2.0682,-2.0682,-2.0609,-2.0518,-2.0518,-2.0382,-2.0292,-2.0292,-1.9922,-1.97,-1.97,-1.9384,-1.9136,-1.8922,-1.8511,-1.8179,-1.8008,-1.7483,-1.709,-1.688,-1.6353,-1.5877,-1.5477,-1.5198,-1.5085,-1.5216,-1.5313,-1.5346,-1.5346,-1.5131,-1.5011,-1.5,-1.4818,-1.4775,-1.4854,-1.5056,-1.5148,-1.5129,-1.4909,-1.4836,-1.4799,-1.4579,-1.4506,-1.4506,-1.4506,-1.4506,-1.4506,-1.4506,-1.4506,-1.4506,-1.4506,-1.4506,-1.4506,-1.4506,-1.4506,-1.4506,-1.4506,-1.4506,-1.4561,-1.4781,-1.4964,-1.5111,-1.5148,-1.5294,-1.5294,-1.4909,-1.4836,-1.4708,-1.4286,-1.4378,-1.4451,-1.4249,-1.4396,0.0,-1.4763,-1.4964,-1.5093,-1.5056,-1.5239,-1.5276,-1.5074,-1.5423,0.0,-1.5661,-1.6615,-1.7,-1.6597,-1.7367,-1.8082,-1.8705,-1.8687,-1.8779,-1.8981,-1.9201,-1.9726,-2.0508,-2.0508,-2.1183,-2.2344,-2.2344,-2.2793,-2.3556,-2.3556,-2.3505,-2.3361,-2.2868,-2.2363,-2.1825,-2.1385,-2.1201,-2.1201,-2.0292,-2.0292,-2.0292,-2.0292,-2.0292,-2.0292,-2.0292,-2.0292,-2.0292,-2.0292,-2.0292,-2.0292,-2.0292,-1.9915,-1.9614,-1.9614,-1.9247,-1.8888,-1.8614,-1.8477,-1.8271,-1.7923,-1.7535,-1.7158,-1.6833,-1.6493,-1.5978,-1.5326,-1.4932,-1.4663,-1.4487,-1.4575,-1.4635,-1.4635,-1.4635,-1.4778,-1.4917,-1.4592,-1.4508,-1.4599,-1.4629,-1.4659,-1.4659,-1.4616,-1.4568,-1.4568,-1.4483,-1.4476,-1.4476,-1.4476,-1.4476,-1.4506,-1.4506,-1.4506,-1.4506,-1.4506,-1.4506,-1.4506,-1.4506,-1.4506,-1.4506,-1.4506,-1.4506,-1.4524,-1.4579,-1.4909,-1.5093,-1.4763,-1.5001,-1.5148,-1.4689,-1.4598,-1.4488,-1.4121,-1.4323,-1.4414,-1.4102,0.0,-1.4726,-1.5056,-1.5203,-1.5423,-1.5753,-1.5845,-1.5881,-1.5881,-1.6293,-1.6566,-1.6486,-1.7289,-1.7565,-1.7092,-1.7789,-1.8356,-1.8797,-1.9127,-1.9292,-1.9292,-1.9292,-1.9805,-2.0702,-2.0702,-2.1624,-2.3187,-2.3187,-2.3556,-2.4177,-2.4108,-2.3879,-2.3453,-2.2823,-2.234,-2.194,-2.1408,-2.1201,-2.1201,-2.0292,-2.0292,-2.0292,-2.0292,-2.0292,-2.0292,-2.0292,-2.0292,-2.0292,-2.0292,-2.0292,-2.0292,-2.0292,-1.9675,-1.9264,-1.9264,-1.8614,-1.8323,-1.8562,-1.8037,-1.766,-1.7591,-1.6939,-1.6527,-1.6476,-1.6079,-1.5928,-1.5965,-1.5581,-1.5321,-1.5321,-1.5005,-1.4848,-1.4848,-1.4848,-1.4962,-1.5156,-1.5103,-1.5067,-1.5099,-1.5291,-1.5337,-1.5301,-1.5098,-1.4939,-1.478,-1.4454,-1.4327,-1.4327,-1.4327,-1.4417,-1.4506,-1.4506,-1.4506,-1.4506,-1.4506,-1.4506,-1.4506,-1.4506,-1.4506,-1.4506,-1.4506,-1.4506,-1.4598,-1.4928,-1.5313,-1.5588,-1.5515,-1.5845,-1.59,-1.5148,-1.5001,-1.4983,-1.4928,-1.4689,-1.4598,-1.4873,0.0,-1.5038,-1.5093,-1.5716,-1.6156,-1.6211,-1.6523,-1.6707,-1.6707,-1.7392,-1.7686,-1.7329,-1.8385,-1.8686,-1.7935,-1.8338,-1.8815,-1.9201,-1.9274,-1.9292,-1.9292,-1.9292,-2.0118,-2.1603,-2.1603,-2.2494,-2.3995,-2.3995,-2.4091,-2.4154,-2.3705,-2.3728,-2.3948,-2.2536,-2.2249,-2.2455,-2.1546,-2.1201,-2.1201,-2.0257,-2.0292,-2.0292,-2.0292,-2.0292,-2.0292,-2.0292,-2.0292,-2.0292,-2.0292,-2.0121,-2.0001,-2.0001,-1.9316,-1.8895,-1.8895,-1.8357,-1.7974,-1.802,-1.7694,-1.7505,-1.7505,-1.6785,-1.6287,-1.6098,-1.5891,-1.5841,-1.5929,-1.5549,-1.5325,-1.5308,-1.4754,-1.4478,-1.4461,-1.4253,-1.4261,-1.4466,-1.4466,-1.4497,-1.456,-1.4635,-1.4697,-1.4679,-1.4561,-1.4459,-1.438,-1.4201,-1.413,-1.413,-1.413,-1.416,-1.4237,-1.4237,-1.4237,-1.4237,-1.4237,-1.4357,-1.4506,-1.4506,-1.4506,-1.4506,-1.4506,-1.4671,-1.4873,-1.5056,-1.5404,-1.568,-1.568,-1.5845,-1.5863,-1.5478,-1.5239,-1.5093,-1.5093,-1.4763,0.0,0.0,-1.5093,-1.5349,-1.5991,-1.6413,-1.6782,-1.7221,-1.7458,-1.7568,-1.7568,-1.7909,-1.8114,-1.8137,-1.8658,-1.8695,-1.8137,-1.8504,-1.8907,-1.9292,-1.9292,-1.9292,-1.9292,-1.9292,-2.0177,-2.1794,-2.1794,-2.2681,-2.42,-2.42,-2.42,-2.4154,-2.3614,-2.3545,-2.3637,-2.2376,-2.2032,-2.218,-2.1477,-2.1201,-2.1201,-2.0086,-2.0155,-2.0189,-2.0275,-2.0292,-2.0292,-2.0292,-2.0223,-2.0155,-2.0155,-1.9847,-1.9563,-1.9563,-1.899,-1.8579,-1.8579,-1.8168,-1.7775,-1.7523,-1.7334,-1.7248,-1.7248,-1.6613,-1.6132,-1.5805,-1.5805,-1.5805,-1.5805,-1.5411,-1.5206,-1.5206,-1.4538,-1.4179,-1.4093,-1.387,-1.3795,-1.3878,-1.3878,-1.3939,-1.4013,-1.3985,-1.395,-1.395,-1.398,-1.398,-1.395,-1.395,-1.395,-1.395,-1.395,-1.398,-1.401,-1.401,-1.401,-1.401,-1.401,-1.4237,-1.4446,-1.4446,-1.4476,-1.4524,-1.4634,-1.4873,-1.5148,-1.5331,-1.5625,-1.5863,-1.5955,-1.5973,-1.5936,-1.5845,-1.5588,-1.5386,-1.5386,0.0,0.0,0.0,-1.546,-1.5863,-1.6798,-1.7073,-1.7477,-1.8155,-1.8228,-1.8377,-1.8657,-1.8845,-1.9014,-1.9104,-1.9202,-1.9014,-1.8397,-1.8488,-1.8837,-1.942,-1.9513,-1.9569,-1.9569,-1.9569,-2.0333,-2.1794,-2.1794,-2.2681,-2.4177,-2.4085,-2.4016,-2.3971,-2.3316,-2.3132,-2.3132,-2.2134,-2.178,-2.1825,-2.1385,-2.1201,-2.1201,-1.9665,-1.9734,-1.9853,-2.0223,-2.0292,-2.0292,-2.0292,-2.0001,-1.9734,-1.9734,-1.9453,-1.9256,-1.9256,-1.8836,-1.8579,-1.8579,-1.7969,-1.754,-1.7505,-1.6853,-1.6476,-1.6476,-1.6062,-1.584,-1.5805,-1.5805,-1.5805,-1.5805,-1.5411,-1.5206,-1.5206,-1.4812,-1.4453,-1.411,-1.4453,-1.4401,-1.409,-1.409,-1.409,-1.4087,-1.3878,-1.3799,-1.383,-1.395,-1.392,-1.3799,-1.3799,-1.3799,-1.3799,-1.3799,-1.389,-1.401,-1.401,-1.401,-1.401,-1.401,-1.4148,-1.4297,-1.4297,-1.4417,-1.4598,-1.4964,-1.5074,-1.5294,-1.6046,-1.6215,-1.6343,-1.6743,-1.6817,-1.6707,-1.6306,-1.6215,-1.6196,-1.6196,0.0,0.0,-1.6142,-1.6541,-1.6798,-1.689,-1.7568,-1.8155,-1.8632,-1.8669,-1.9124,-2.0217,-2.1044,-2.1179,-2.0411,-2.0797,-2.0447,-1.9168,-1.8471,-1.8714,-1.9847,-2.0217,-2.043,-2.043,-2.043,-2.0875,-2.1794,-2.1794,-2.2681,-2.4177,-2.3659,-2.3453,-2.3384,-2.2399,-2.2317,-2.2639,-2.1638,-2.1514,-2.1825,-2.1385,-2.1201,-2.1201,-1.9229,-1.9384,-1.9504,-1.9836,-1.9905,-1.9905,-1.9905,-1.9785,-1.9614,-1.9418,-1.9059,-1.8819,-1.8819,-1.8477,-1.8151,-1.7952,-1.7677,-1.7317,-1.6853,-1.6544,-1.6287,-1.6064,-1.5874,-1.5805,-1.5805,-1.5805,-1.5805,-1.5805,-1.5651,-1.5583,-1.5566,-1.5189,-1.4812,-1.4453,-1.4367,-1.4093,-1.3733,-1.3733,-1.3733,-1.3716,-1.364,-1.3601,-1.3601,-1.3662,-1.3662,-1.3601,-1.3601,-1.3601,-1.3601,-1.3601,-1.3631,-1.3692,-1.3692,-1.3692,-1.3692,-1.3692,-1.389,-1.4153,-1.4434,-1.4689,-1.4909,-1.5056,-1.5478,-1.5936,-1.6215,-1.6505,-1.6725,-1.6872,-1.6908,-1.6853,-1.6707,-1.6486,-1.6453,-1.6963,0.0,-1.6395,-1.7276,-1.7348,-1.7458,-1.7972,-1.8302,-1.865,-1.9036,-1.954,-2.0024,-2.045,-2.1298,-2.1518,-2.0838,-2.0042,-1.9366,-1.8851,-1.8565,-1.8757,-1.9455,-1.9631,-1.9581,-1.939,-1.939,-2.0235,-2.1794,-2.1794,-2.2681,-2.4177,-2.3994,-2.3902,-2.3833,-2.2823,-2.2685,-2.3029,-2.1707,-2.1468,-2.1825,-2.1385,-2.1201,-2.1201,-1.8735,-1.9033,-1.911,-1.9504,-1.9512,-1.9512,-1.9512,-1.9453,-1.9281,-1.9025,-1.8648,-1.8408,-1.8408,-1.8186,-1.7894,-1.754,-1.7364,-1.7059,-1.6424,-1.627,-1.6098,-1.5805,-1.5805,-1.5805,-1.5805,-1.5685,-1.5685,-1.5805,-1.5685,-1.5685,-1.5788,-1.5531,-1.5137,-1.4675,-1.4401,-1.4059,-1.3682,-1.3562,-1.3579,-1.3682,-1.3562,-1.3511,-1.3511,-1.3511,-1.3511,-1.3511,-1.3511,-1.3511,-1.3511,-1.3511,-1.3511,-1.3511,-1.3511,-1.3511,-1.3511,-1.3571,-1.3809,-1.4166,-1.4524,-1.493,-1.5301,-1.5446,-1.59,-1.6325,-1.6468,-1.6707,-1.6908,-1.6908,-1.7,-1.7092,-1.7092,-1.6982,-1.7055,-1.7605,-1.7238,-1.713,-1.7972,-1.7972,-1.8082,-1.865,-1.8815,-1.8999,-1.9274,-2.004,-2.0624,-2.0875,-2.168,-2.1807,-2.0886,-1.9321,-1.8427,-1.8403,-1.8626,-1.8834,-1.9132,-1.9548,-1.9646,-1.9411,-1.9583,-2.0407,-2.1794,-2.208,-2.2905,-2.4177,-2.3856,-2.3718,-2.3649,-2.265,-2.2409,-2.2616,-2.1615,-2.1408,-2.1652,-2.1316,-2.1201,-2.1201,-1.8345,-1.8579,-1.8699,-1.9136,-1.9204,-1.9179,-1.9179,-1.8836,-1.8579,-1.8579,-1.823,-1.7991,-1.7991,-1.7991,-1.7837,-1.754,-1.7141,-1.6764,-1.6407,-1.6011,-1.5805,-1.5805,-1.5805,-1.5805,-1.5805,-1.5411,-1.5411,-1.5805,-1.5411,-1.5411,-1.5805,-1.5805,-1.5394,-1.4692,-1.4692,-1.447,-1.4076,-1.3682,-1.3733,-1.4059,-1.3665,-1.3511,-1.3511,-1.3511,-1.3511,-1.3511,-1.3511,-1.3511,-1.3511,-1.3511,-1.3511,-1.3511,-1.3511,-1.3511,-1.3541,-1.3739,-1.4048,-1.4345,-1.455,-1.513,-1.5815,-1.6203,-1.6288,-1.6431,-1.6817,-1.6908,-1.6908,-1.6908,-1.722,-1.7495,-1.7495,-1.7844,-1.8081,-1.81,-1.81,-1.81,-1.81,-1.8429,-1.8724,-1.8724,-1.9054,-1.9292,-1.9292,-2.004,-2.0837,-2.1718,-2.2531,-2.225,-2.0588,-1.8966,-1.806,-1.7988,-1.8643,-1.9011,-1.9011,-2.0318,-2.0999,-2.102,-2.1528,-2.1794,-2.1832,-2.2644,-2.3446,-2.4131,-2.3121,-2.2719,-2.265,-2.1615,-2.1201,-2.1201,-2.1201,-2.1201,-2.1201,-2.1201,-2.1201,-2.1201,-1.7089,-1.7778,-1.8323,-1.8699,-1.8246,-1.7865,-1.7865,-1.7202,-1.6622,-1.6391,-1.6762,-1.7066,-1.7066,-1.761,-1.7735,-1.7141,-1.7227,-1.7076,-1.6424,-1.6011,-1.5805,-1.5805,-1.5805,-1.5805,-1.5805,-1.5685,-1.5685,-1.5805,-1.5685,-1.5685,-1.5788,-1.5514,-1.5274,-1.5052,-1.4795,-1.447,-1.4093,-1.3973,-1.3836,-1.3682,-1.3562,-1.3511,-1.3511,-1.3511,-1.3511,-1.3511,-1.3511,-1.3511,-1.3511,-1.3511,-1.3511,-1.3511,-1.3511,-1.3511,-1.3562,-1.3898,-1.4164,-1.4435,-1.5057,-1.5455,-1.573,-1.5849,-1.6199,-1.6537,-1.6645,-1.6786,-1.6908,-1.6908,-1.722,-1.7495,-1.7495,-1.7844,-1.8173,-1.8485,-1.854,-1.8632,-1.8907,-1.9054,-1.9127,-1.9127,-1.9237,-1.9529,-2.0079,-2.0352,-2.0837,-2.1718,-2.1653,-2.1288,-2.0532,-1.9215,-1.8309,-1.8022,-1.8643,-1.9243,-1.977,-2.0166,-2.0461,-2.0596,-2.0374,-2.1078,-2.2644,-2.252,-2.3075,-2.4154,-2.3476,-2.3178,-2.3109,-2.2111,-2.1697,-2.1675,-2.1339,-2.1201,-2.1201,-2.1201,-2.1201,-2.1201,-1.6617,-1.7408,-1.8059,-1.834,-1.7921,-1.7448,-1.7115,-1.6598,-1.6145,-1.5948,-1.637,-1.6821,-1.7164,-1.7668,-1.7752,-1.7192,-1.6788,-1.6351,-1.5749,-1.5176,-1.5026,-1.5311,-1.5311,-1.547,-1.5805,-1.5371,-1.5354,-1.5805,-1.5651,-1.5566,-1.5566,-1.5326,-1.5052,-1.4761,-1.4538,-1.4316,-1.4093,-1.3922,-1.3819,-1.3733,-1.3579,-1.3511,-1.3511,-1.3511,-1.3511,-1.3511,-1.3511,-1.3511,-1.3528,-1.3682,-1.3733,-1.3768,-1.3922,-1.387,-1.3819,-1.4213,-1.45,-1.4772,-1.5238,-1.5565,-1.5738,-1.5738,-1.6245,-1.6741,-1.6902,-1.7063,-1.7171,-1.7334,-1.7898,-1.8285,-1.7986,-1.8502,-1.8891,-1.8749,-1.8689,-1.8762,-1.9054,-1.9073,-1.9073,-1.9073,-1.9073,-1.935,-2.0079,-2.0216,-2.0644,-2.1565,-2.113,-2.0616,-2.026,-1.9065,-1.823,-1.7827,-1.8319,-1.8944,-1.9671,-1.9966,-2.0343,-2.0815,-2.0505,-2.1154,-2.2673,-2.2479,-2.286,-2.3557,-2.3018,-2.2811,-2.2742,-2.1973,-2.1629,-2.1583,-2.1316,-2.1201,-2.1201,-2.1201,-2.1201,-2.1201,-1.6698,-1.7408,-1.7991,-1.791,-1.7829,-1.7448,-1.6576,-1.6412,-1.6314,-1.6314,-1.6494,-1.6862,-1.7668,-1.791,-1.7894,-1.754,-1.6086,-1.5051,-1.4681,-1.3949,-1.381,-1.4458,-1.4422,-1.476,-1.5576,-1.4646,-1.463,-1.5576,-1.529,-1.5155,-1.5155,-1.5189,-1.4846,-1.4196,-1.4161,-1.4127,-1.4076,-1.3716,-1.375,-1.4007,-1.3648,-1.3511,-1.3511,-1.3511,-1.3528,-1.3562,-1.3528,-1.3528,-1.3613,-1.3973,-1.4127,-1.4213,-1.4572,-1.4435,-1.423,-1.4624,-1.4966,-1.5223,-1.5223,-1.5548,-1.5857,-1.5891,-1.6417,-1.7022,-1.736,-1.7466,-1.7572,-1.787,-1.8843,-1.9371,-1.8678,-1.9443,-1.985,-1.8883,-1.8692,-1.8692,-1.8692,-1.8692,-1.8692,-1.8692,-1.8692,-1.8931,-1.9569,-1.9825,-2.0314,-2.1239,-2.076,-2.0275,-1.994,-1.8807,-1.799,-1.7568,-1.795,-1.8434,-1.9039,-1.9824,-2.0643,-2.1529,-2.1485,-2.1726,-2.2243,-2.2513,-2.2639,-2.2673,-2.2134,-2.1894,-2.1848,-2.1408,-2.1201,-2.1201,-2.1201,-2.1201,-2.1201,-2.1201,-2.1201,-2.1233,-1.6698,-1.7408,-1.7789,-1.7123,-1.6427,-1.5628,-1.4754,-1.3999,-1.3578,-1.3578,-1.4796,-1.5767,-1.5933,-1.7164,-1.7894,-1.754,-1.6086,-1.5147,-1.5067,-1.407,-1.3571,-1.3738,-1.3135,-1.3171,-1.397,-1.4324,-1.4324,-1.4006,-1.4502,-1.4738,-1.4738,-1.5068,-1.512,-1.4966,-1.4675,-1.4384,-1.4093,-1.4007,-1.3836,-1.3631,-1.3545,-1.3511,-1.3511,-1.3511,-1.3699,-1.3922,-1.3613,-1.3699,-1.399,-1.4059,-1.4298,-1.4605,-1.4658,-1.4624,-1.4624,-1.5,-1.5155,-1.5274,-1.5583,-1.5942,-1.6338,-1.661,-1.7028,-1.728,-1.6889,-1.7142,-1.7501,-1.759,-1.8273,-1.8704,-1.8284,-1.8861,-1.9299,-1.8763,-1.8692,-1.8692,-1.8692,-1.8692,-1.8692,-1.8692,-1.8692,-1.8993,-1.9747,-2.0002,-2.0294,-2.0682,-2.0001,-1.9656,-1.9902,-1.907,-1.8412,-1.799,-1.8797,-1.9322,-1.9459,-2.0456,-2.1242,-2.1822,-2.1446,-2.1719,-2.2559,-2.2217,-2.2294,-2.2673,-2.2134,-2.1894,-2.1848,-2.1408,-2.1201,-2.1201,-2.1201,-2.1201,-2.1201,-2.1201,-2.1201,-2.1242,-1.6698,-1.7408,-1.7749,-1.6862,-1.6329,-1.5545,-1.421,-1.362,-1.3506,-1.3928,-1.481,-1.5726,-1.655,-1.7465,-1.7894,-1.754,-1.605,-1.4958,-1.4651,-1.3299,-1.2662,-1.2929,-1.2526,-1.2489,-1.2915,-1.3317,-1.3665,-1.4027,-1.4422,-1.4619,-1.4642,-1.485,-1.4761,-1.4384,-1.4213,-1.4007,-1.3819,-1.3819,-1.3699,-1.3511,-1.3511,-1.3613,-1.3785,-1.3785,-1.3922,-1.4093,-1.4076,-1.4316,-1.4624,-1.4624,-1.4761,-1.4966,-1.5155,-1.5086,-1.5018,-1.5394,-1.5617,-1.5771,-1.5788,-1.6199,-1.6627,-1.6644,-1.7055,-1.7454,-1.7325,-1.7506,-1.7774,-1.7987,-1.8735,-1.914,-1.8469,-1.9076,-1.9389,-1.8498,-1.8371,-1.8371,-1.8371,-1.8371,-1.8371,-1.8371,-1.8371,-1.8594,-1.9134,-1.9708,-2.0001,-1.9805,-1.949,-1.9397,-1.9601,-1.9028,-1.8614,-1.8374,-1.9068,-1.9515,-1.9603,-2.0555,-2.1222,-2.156,-2.1316,-2.173,-2.2696,-2.2123,-2.2032,-2.2294,-2.2009,-2.1757,-2.1537,-2.1316,-2.1201,-2.1201,-2.1201,-2.1201,-2.1201,-2.1201,-2.1201,-2.1233,-1.6739,-1.7286,-1.7448,-1.6412,-1.6247,-1.5696,-1.4041,-1.3789,-1.4126,-1.5061,-1.5311,-1.6015,-1.7587,-1.791,-1.782,-1.7415,-1.5882,-1.4648,-1.3939,-1.2361,-1.1701,-1.2268,-1.2157,-1.2231,-1.2489,-1.2231,-1.2732,-1.3991,-1.4279,-1.4404,-1.4413,-1.4679,-1.4367,-1.3613,-1.3613,-1.3579,-1.3511,-1.3511,-1.3511,-1.3511,-1.3511,-1.3699,-1.4007,-1.4076,-1.4144,-1.4247,-1.4572,-1.4915,-1.5206,-1.5206,-1.5257,-1.5377,-1.5703,-1.5583,-1.5377,-1.5703,-1.6098,-1.6321,-1.5977,-1.6439,-1.6935,-1.661,-1.7055,-1.7655,-1.7923,-1.7991,-1.8076,-1.8425,-1.9246,-1.9638,-1.8687,-1.9287,-1.949,-1.8232,-1.7991,-1.7991,-1.7991,-1.7991,-1.7991,-1.7991,-1.7991,-1.8112,-1.8353,-1.9152,-1.9429,-1.8953,-1.9112,-1.9231,-1.9271,-1.8921,-1.8777,-1.8815,-1.933,-1.9685,-1.985,-2.0732,-2.1285,-2.1454,-2.1454,-2.1845,-2.2547,-2.2203,-2.1986,-2.1894,-2.1894,-2.1629,-2.1201,-2.1201,-2.1265,-2.1305,-2.1233,-2.1265,-2.1305,-2.1233,-2.1201,-2.1201,-1.6862,-1.678,-1.637,-1.4671,-1.4378,-1.4041,-1.3039,-1.2869,-1.3209,-1.4084,-1.4894,-1.5767,-1.678,-1.7529,-1.7718,-1.7055,-1.5536,-1.4324,-1.3601,-1.2048,-1.149,-1.2268,-1.1626,-1.1922,-1.3317,-1.1959,-1.1366,-1.1589,-1.2974,-1.3487,-1.318,-1.4525,-1.4744,-1.4024,-1.4024,-1.3836,-1.3511,-1.3511,-1.3511,-1.3511,-1.3511,-1.3545,-1.3631,-1.3973,-1.4316,-1.4639,-1.4658,-1.4915,-1.5206,-1.5206,-1.5446,-1.5737,-1.5788,-1.5771,-1.5737,-1.5788,-1.6045,-1.6283,-1.6231,-1.6816,-1.742,-1.7368,-1.7638,-1.794,-1.7991,-1.7991,-1.8008,-1.8059,-1.849,-1.8669,-1.8186,-1.849,-1.8652,-1.81,-1.7991,-1.7991,-1.7991,-1.7991,-1.7991,-1.7991,-1.7991,-1.8112,-1.8353,-1.8514,-1.8652,-1.8732,-1.8772,-1.8851,-1.9033,-1.8997,-1.904,-1.9219,-2.0228,-2.0786,-2.0834,-2.1913,-2.2479,-2.2512,-2.2512,-2.2317,-2.2009,-2.2409,-2.234,-2.1894,-2.1894,-2.1629,-2.1201,-2.1201,-2.1431,-2.1753,-2.1368,-2.1431,-2.1753,-2.1336,-2.1201,-2.1233,-1.6657,-1.6288,-1.5545,-1.421,-1.3999,-1.3704,-1.2826,-1.2699,-1.2997,-1.3873,-1.481,-1.5726,-1.6617,-1.7306,-1.7672,-1.7513,-1.6236,-1.5108,-1.4397,-1.3058,-1.2184,-1.1891,-1.1377,-1.144,-1.2144,-1.1477,-1.1105,-1.1105,-1.2254,-1.2833,-1.2924,-1.3443,-1.3603,-1.3411,-1.3262,-1.3328,-1.3528,-1.375,-1.3836,-1.3853,-1.4076,-1.4281,-1.4487,-1.4658,-1.4829,-1.4983,-1.4983,-1.5223,-1.5548,-1.5548,-1.5788,-1.6096,-1.6096,-1.615,-1.6184,-1.637,-1.6505,-1.6624,-1.6624,-1.7209,-1.774,-1.7557,-1.7757,-1.7991,-1.7991,-1.7991,-1.7991,-1.7991,-1.834,-1.8477,-1.8059,-1.834,-1.8459,-1.8059,-1.7991,-1.7991,-1.7991,-1.7991,-1.8152,-1.8514,-1.8674,-1.8794,-1.8913,-1.9015,-1.8953,-1.8732,-1.8692,-1.8732,-1.8812,-1.9371,-1.959,-1.945,-2.0964,-2.166,-2.135,-2.2275,-2.2753,-2.2719,-2.2983,-2.2846,-2.2363,-2.257,-2.2409,-2.1894,-2.1894,-2.1791,-2.1588,-2.1305,-2.1494,-2.1846,-2.1368,-2.1336,-2.1494,-2.1273,-2.1201,-2.1233]}]]